[[[{"header":{"parameterUnit":"kt","parameterCategory":2,"dx":1,"dy":1,"la1":29.587661999999998,"la2":31.0,"lo1":-88.76705300000003,"lo2":-86.6583820000003,"nx":115,"ny":88,"refTime":"2022-10-22T12:00:00:Z","depth":0,"parameterNumber":1,"parameterNumberName":"U-component_of_WINDS"},"data":[-8.6118,-8.2888,-8.1873,-8.0221,-7.799,-7.7341,-7.7165,-7.7165,-7.7165,-7.7165,-7.7165,-7.7165,-7.7165,-7.7165,-7.7165,-7.7165,-7.7238,-7.7653,-7.6848,-7.5701,-7.5627,-7.5432,-7.5017,-7.4407,-7.3358,-7.2011,-7.0555,-6.9505,-6.9331,-6.828,-6.62,-6.2944,-6.265,-6.0197,-5.5887,-5.5012,-5.5012,-5.5012,-5.5012,-5.5012,-5.5012,-5.5012,-5.5012,-5.5012,-5.5012,-5.5012,-5.5012,-5.5012,-5.45,-5.4063,-5.3428,-5.298,-5.271,-5.2653,-5.2329,-5.1008,-4.8564,-4.5861,-4.3008,-4.0621,-3.8154,-3.5755,-3.5304,-3.5579,-3.5878,-3.555,-3.5628,-3.6137,-3.6748,-3.7189,-3.7319,-3.7678,-3.7756,-3.7756,-3.7756,-3.7756,-3.7756,-3.7756,-3.7756,-3.7756,-3.7756,-3.7405,-3.7053,-3.601,-3.3917,-3.2241,-3.0629,-2.9007,-2.7044,-2.5641,-2.4492,-2.2437,-2.0182,-1.8799,-1.7431,-1.7492,-1.7372,-1.7372,-1.7372,-1.7372,-1.7372,-1.7372,-1.7273,-1.7167,-1.7029,-1.6805,-1.6541,-1.5949,-1.4691,-1.3459,-1.0407,-0.7812,-0.5965,0.0,0.0,-8.9074,-8.9826,-8.5846,-8.2631,-8.0318,-7.8089,-7.7165,-7.7165,-7.7165,-7.7165,-7.7165,-7.7165,-7.7165,-7.7165,-7.7165,-7.7165,-7.7311,-7.7702,-7.636,-7.5408,-7.5749,-7.5627,-7.5359,-7.5213,-7.5066,-7.419,-7.2566,-7.1731,-7.0839,-6.9795,-6.7551,-6.3627,-6.1666,-6.0197,-5.6569,-5.5012,-5.5012,-5.5012,-5.5012,-5.5012,-5.5012,-5.5012,-5.5012,-5.5012,-5.5012,-5.5012,-5.5012,-5.4879,-5.4538,-5.4241,-5.3861,-5.3076,-5.2677,-5.281,-5.2184,-5.0972,-4.8525,-4.5732,-4.2886,-4.0486,-3.7806,-3.595,-3.5296,-3.533,-3.6124,-3.6042,-3.5912,-3.6423,-3.715,-3.7553,-3.7678,-3.7756,-3.7756,-3.7756,-3.7756,-3.7756,-3.7756,-3.7756,-3.7756,-3.7756,-3.7756,-3.7756,-3.7531,-3.7644,-3.6073,-3.4254,-3.2595,-3.1074,-2.9619,-2.8405,-2.6845,-2.4663,-2.2604,-2.0018,-1.7842,-1.7479,-1.7372,-1.7372,-1.7372,-1.7372,-1.7358,-1.7293,-1.7194,-1.7049,-1.6778,-1.6515,-1.6244,-1.604,-1.5862,-1.5127,-1.2399,-0.9961,-0.8011,-0.6155,-0.4302,-8.974,-9.1227,-8.6596,-8.3169,-8.0679,-7.8189,-7.7165,-7.7165,-7.7165,-7.7165,-7.7165,-7.7165,-7.7165,-7.7165,-7.7165,-7.7165,-7.7263,-7.7702,-7.6384,-7.5188,-7.5188,-7.5481,-7.5261,-7.4798,-7.5408,-7.5042,-7.3504,-7.2284,-7.101,-7.0281,-6.8209,-6.3627,-6.2454,-6.0296,-5.5784,-5.5012,-5.5012,-5.5012,-5.5012,-5.5012,-5.5012,-5.5012,-5.5012,-5.5012,-5.5012,-5.5012,-5.5012,-5.4955,-5.45,-5.4108,-5.3804,-5.2753,-5.1994,-5.2108,-5.1728,-5.0293,-4.8363,-4.5899,-4.3773,-4.1135,-3.8008,-3.6738,-3.5882,-3.4982,-3.5683,-3.6163,-3.6033,-3.68,-3.7514,-3.7743,-3.7756,-3.7756,-3.7756,-3.7756,-3.7756,-3.7756,-3.7756,-3.7756,-3.7756,-3.7756,-3.7756,-3.7756,-3.7743,-3.773,-3.716,-3.5325,-3.5351,-3.4056,-3.2463,-3.1126,-2.9293,-2.7392,-2.5355,-2.3,-2.0014,-1.8639,-1.8009,-1.7479,-1.7372,-1.7372,-1.7358,-1.7246,-1.7088,-1.6877,-1.6627,-1.6304,-1.606,-1.5875,-1.5607,-1.5438,-1.3773,-1.2016,-1.035,-0.8494,-0.8007,-9.0257,-9.1481,-8.7875,-8.4445,-8.1613,-7.9101,-7.7816,-7.7165,-7.7165,-7.7165,-7.7165,-7.7165,-7.7165,-7.7165,-7.7165,-7.7165,-7.7165,-7.7287,-7.6506,-7.5554,-7.492,-7.5237,-7.5261,-7.4993,-7.4847,-7.4432,-7.3895,-7.3041,-7.1963,-7.0436,-6.8233,-6.3335,-6.265,-6.0097,-5.5389,-5.5012,-5.5012,-5.5012,-5.5012,-5.5012,-5.5012,-5.5012,-5.5012,-5.5012,-5.4936,-5.4936,-5.4614,-5.4595,-5.4082,-5.348,-5.3347,-5.2663,-5.1405,-5.1349,-5.0874,-4.9925,-4.8423,-4.6413,-4.429,-4.1573,-3.8571,-3.7129,-3.5626,-3.5085,-3.5137,-3.5644,-3.6306,-3.7248,-3.7756,-3.7756,-3.7756,-3.7756,-3.7756,-3.7756,-3.7756,-3.7756,-3.7756,-3.7756,-3.7756,-3.7756,-3.7756,-3.7743,-3.7717,-3.7587,-3.7215,-3.6968,-3.6735,-3.5877,-3.399,-3.299,-3.0963,-2.9117,-2.7386,-2.5364,-2.2427,-2.0539,-1.9594,-1.896,-1.8746,-1.8009,-1.7372,-1.726,-1.7115,-1.6818,-1.6475,-1.6172,-1.5908,-1.5743,-1.558,-1.5354,-1.4161,-1.3671,-1.22,-1.1516,-1.171,-9.1764,-9.1877,-9.151,-8.8344,-8.4194,-8.1326,-7.9199,-7.7365,-7.7441,-7.7265,-7.7365,-7.7265,-7.7165,-7.7165,-7.7165,-7.7165,-7.7165,-7.7141,-7.6604,-7.5579,-7.5286,-7.5408,-7.5726,-7.5579,-7.5432,-7.5627,-7.5066,-7.348,-7.2919,-7.1231,-6.8139,-6.3042,-6.2748,-6.0097,-5.5784,-5.5097,-5.5012,-5.5012,-5.5012,-5.5012,-5.5012,-5.5012,-5.5012,-5.5012,-5.4917,-5.4746,-5.4177,-5.3683,-5.3171,-5.2127,-5.1614,-5.1709,-5.1311,-5.1197,-5.076,-4.9905,-4.9452,-4.7435,-4.4857,-4.2381,-3.9525,-3.6857,-3.4421,-3.5073,-3.5689,-3.6373,-3.6701,-3.7496,-3.773,-3.7756,-3.7756,-3.7756,-3.7756,-3.7756,-3.7756,-3.7756,-3.7756,-3.7756,-3.7756,-3.7756,-3.773,-3.7527,-3.7488,-3.7228,-3.6968,-3.6527,-3.6124,-3.5382,-3.438,-3.406,-3.2358,-3.0441,-2.9023,-2.7345,-2.4733,-2.2948,-2.1693,-2.0752,-2.0539,-1.9907,-1.8724,-1.7886,-1.7234,-1.6712,-1.629,-1.6007,-1.5809,-1.5626,-1.5548,-1.5335,-1.5238,-1.5038,-1.5038,-1.4548,-1.4324,-9.1962,-9.1962,-9.1962,-8.9046,-8.4379,-8.0415,-8.0027,-8.123,-8.0027,-7.9395,-7.9199,-7.7915,-7.7165,-7.7165,-7.7165,-7.7165,-7.7165,-7.7141,-7.697,-7.6238,-7.5847,-7.6067,-7.6067,-7.5969,-7.6042,-7.5481,-7.4725,-7.3651,-7.2528,-7.0892,-6.8139,-6.3335,-6.2748,-5.9616,-5.6672,-5.5493,-5.5305,-5.5097,-5.5097,-5.5012,-5.5012,-5.5012,-5.5012,-5.5012,-5.5012,-5.4879,-5.4614,-5.4595,-5.3987,-5.3057,-5.2184,-5.1842,-5.1254,-5.076,-5.0229,-5.0096,-4.9925,-4.8331,-4.6342,-4.4062,-4.1494,-3.9025,-3.6291,-3.6373,-3.6881,-3.7609,-3.7734,-3.7845,-3.7877,-3.7869,-3.7756,-3.7756,-3.7756,-3.7756,-3.7756,-3.7756,-3.7756,-3.7756,-3.7756,-3.7756,-3.7691,-3.7475,-3.7228,-3.6968,-3.6521,-3.5925,-3.5317,-3.4812,-3.4605,-3.4358,-3.297,-3.1853,-3.0693,-2.9438,-2.7866,-2.5984,-2.4733,-2.3688,-2.2807,-2.1293,-2.0067,-1.8871,-1.7224,-1.6534,-1.6139,-1.5908,-1.5613,-1.5548,-1.5528,-1.5528,-1.5431,-1.5309,-1.5392,-1.5476,-1.539,-9.1962,-9.1962,-9.1962,-8.9913,-8.6298,-8.2158,-8.1778,-8.4102,-8.2793,-8.1326,-8.0776,-7.9028,-7.799,-7.7141,-7.7165,-7.7165,-7.7165,-7.7165,-7.7165,-7.6945,-7.6457,-7.6652,-7.6652,-7.6457,-7.614,-7.5627,-7.4725,-7.3553,-7.2675,-7.1327,-6.8139,-6.4328,-6.3335,-6.0396,-5.8042,-5.696,-5.6177,-5.5784,-5.6177,-5.5784,-5.5305,-5.5316,-5.5449,-5.5468,-5.5468,-5.5183,-5.486,-5.4652,-5.374,-5.3076,-5.2374,-5.1747,-5.1007,-5.0304,-4.9925,-4.9925,-4.9925,-4.9528,-4.8331,-4.5359,-4.2774,-4.1099,-3.9163,-3.8891,-3.9168,-3.9828,-3.9654,-3.9644,-3.9571,-3.9697,-3.9808,-3.8617,-3.7756,-3.7756,-3.7756,-3.7756,-3.7756,-3.7756,-3.7756,-3.7756,-3.7756,-3.7462,-3.6955,-3.6644,-3.6003,-3.5304,-3.4786,-3.4605,-3.4358,-3.4267,-3.3548,-3.333,-3.2393,-3.1015,-2.9657,-2.9127,-2.7773,-2.6154,-2.4335,-2.2686,-2.1073,-1.9222,-1.7408,-1.6422,-1.6159,-1.5908,-1.5567,-1.5528,-1.5528,-1.5528,-1.5528,-1.5482,-1.543,-1.5358,-1.5286,-9.1962,-9.1962,-9.1962,-9.1764,-9.1113,-8.8432,-8.6389,-8.4722,-8.4537,-8.3169,-8.0968,-8.0776,-7.9199,-7.7541,-7.7165,-7.7165,-7.7165,-7.7165,-7.7165,-7.7067,-7.6945,-7.7019,-7.7043,-7.7019,-7.6823,-7.6238,-7.5091,-7.3724,-7.3578,-7.1816,-6.9565,-6.6794,-6.4641,-6.218,-6.0894,-6.0117,-5.9214,-5.7655,-5.7451,-5.7062,-5.6061,-5.5916,-5.5828,-5.579,-5.5847,-5.5601,-5.5031,-5.4443,-5.3304,-5.2279,-5.1519,-5.0912,-5.0304,-4.9963,-4.9925,-4.9925,-4.9925,-4.8731,-4.7435,-4.6745,-4.476,-4.4134,-4.2876,-4.2188,-4.2434,-4.318,-4.2742,-4.2225,-4.1102,-4.142,-4.142,-3.992,-3.8293,-3.7869,-3.7869,-3.7969,-3.7969,-3.7756,-3.7756,-3.7756,-3.7756,-3.7366,-3.6735,-3.6176,-3.555,-3.5047,-3.4592,-3.4345,-3.428,-3.419,-3.419,-3.4074,-3.3446,-3.2393,-3.2393,-3.1968,-3.0658,-2.8676,-2.6547,-2.4617,-2.1633,-1.9632,-1.8378,-1.737,-1.6604,-1.5934,-1.5613,-1.5528,-1.5625,-1.5528,-1.5528,-1.5462,-1.5367,-1.5308,-1.5189,-9.1962,-9.1962,-9.1962,-9.1028,-8.974,-9.0372,-9.0286,-8.9277,-8.7608,-8.5546,-8.3263,-8.1518,-7.9467,-7.7816,-7.7165,-7.7165,-7.7165,-7.7165,-7.7165,-7.7165,-7.7165,-7.7165,-7.7165,-7.7141,-7.7165,-7.653,-7.5139,-7.387,-7.3773,-7.1816,-7.0218,-6.8748,-6.6817,-6.4953,-6.4157,-6.2966,-6.1765,-6.0317,-5.8751,-5.8549,-5.7686,-5.6524,-5.598,-5.5847,-5.5828,-5.5885,-5.5164,-5.4538,-5.3873,-5.2677,-5.1918,-5.1462,-5.038,-4.9925,-4.9925,-4.9925,-4.9925,-4.9528,-4.8236,-4.7435,-4.7162,-4.7243,-4.691,-4.655,-4.6821,-4.6394,-4.571,-4.466,-4.2797,-4.2386,-4.1959,-4.1738,-4.0129,-3.8518,-3.8617,-3.8828,-3.8729,-3.7869,-3.7756,-3.7756,-3.7678,-3.6968,-3.6397,-3.5852,-3.5293,-3.4787,-3.4332,-3.4267,-3.4203,-3.419,-3.419,-3.419,-3.3767,-3.3343,-3.3446,-3.3754,-3.2617,-3.1087,-2.943,-2.7699,-2.4681,-2.1289,-1.98,-1.8522,-1.7382,-1.6361,-1.5948,-1.5721,-1.6004,-1.6004,-1.6253,-1.6081,-1.5236,-1.5124,-1.5025,-9.1962,-9.1962,-9.1962,-9.1028,-8.9826,-9.1283,-9.1962,-9.168,-9.0085,-8.7581,-8.4629,-8.3008,-8.0486,-7.799,-7.7165,-7.7165,-7.7165,-7.7165,-7.7165,-7.7165,-7.7165,-7.7165,-7.7165,-7.7165,-7.7165,-7.6555,-7.5091,-7.387,-7.3846,-7.1816,-7.0936,-7.0582,-6.8935,-6.828,-6.7598,-6.6699,-6.3335,-6.1687,-6.1015,-5.9782,-5.9137,-5.7299,-5.6132,-5.6018,-5.6113,-5.5999,-5.5525,-5.5069,-5.4184,-5.2933,-5.2393,-5.1614,-5.0266,-4.9925,-4.9925,-4.9925,-4.9925,-4.9925,-4.9433,-4.8918,-4.8809,-5.0003,-5.0263,-4.967,-4.9925,-4.9095,-4.8591,-4.7693,-4.6506,-4.5965,-4.4332,-4.4128,-4.2937,-4.1227,-3.992,-4.0241,-3.9585,-3.8729,-3.8081,-3.8081,-3.7496,-3.68,-3.6345,-3.5904,-3.5124,-3.4514,-3.4293,-3.4203,-3.419,-3.419,-3.419,-3.419,-3.419,-3.419,-3.419,-3.4074,-3.3191,-3.189,-3.0743,-2.9413,-2.6818,-2.3527,-2.196,-2.0805,-1.8907,-1.7058,-1.7243,-1.7436,-1.7058,-1.745,-1.8542,-1.8836,-1.7504,-1.6554,-1.6057,-9.1962,-9.1962,-9.1962,-9.1877,-9.168,-9.1962,-9.1962,-9.1877,-9.1595,-8.8987,-8.4748,-8.4379,-8.1683,-7.8015,-7.7165,-7.7165,-7.7165,-7.7165,-7.7165,-7.7165,-7.7165,-7.7165,-7.7165,-7.7165,-7.7141,-7.6628,-7.531,-7.4114,-7.3822,-7.2036,-7.1034,-7.0538,-7.0398,-7.0213,-7.0582,-7.0582,-6.6653,-6.0973,-6.2356,-6.1915,-6.0789,-5.8375,-5.7441,-5.7017,-5.666,-5.6075,-5.5658,-5.5221,-5.4298,-5.3124,-5.2644,-5.1652,-5.0209,-4.9963,-4.9925,-4.9925,-4.9925,-4.9925,-4.9925,-4.9925,-5.0548,-5.1756,-5.1676,-5.1417,-5.1548,-5.2455,-5.296,-5.0559,-4.9691,-4.9867,-4.9317,-4.8139,-4.663,-4.4909,-4.2952,-4.2195,-4.1116,-4.0143,-3.9276,-3.8954,-3.7857,-3.6722,-3.6332,-3.5692,-3.4917,-3.4539,-3.4357,-3.419,-3.419,-3.419,-3.419,-3.419,-3.419,-3.419,-3.419,-3.419,-3.3789,-3.2745,-3.142,-2.9973,-2.7692,-2.5423,-2.4093,-2.3298,-2.1609,-1.9999,-1.9529,-1.9234,-2.0268,-2.1192,-2.1756,-2.0859,-1.9614,-1.862,-1.8394,-9.1962,-9.1962,-9.1962,-9.1962,-9.1962,-9.1962,-9.1962,-9.1962,-9.1962,-8.919,-8.4629,-8.4353,-8.1804,-7.8288,-7.7265,-7.7265,-7.7165,-7.7165,-7.7165,-7.7165,-7.7165,-7.7165,-7.7165,-7.7165,-7.7141,-7.6848,-7.5676,-7.4481,-7.3846,-7.2504,-7.1547,-7.0961,-7.079,-7.079,-7.079,-7.0674,-6.9795,-6.7267,-6.6604,-6.52,-6.4374,-6.1177,-5.9155,-5.8305,-5.7131,-5.6202,-5.5449,-5.5126,-5.4241,-5.3271,-5.2473,-5.1595,-5.055,-4.9925,-4.9925,-4.9925,-4.9925,-4.9925,-4.9925,-5.0058,-5.0798,-5.1937,-5.1994,-5.2241,-5.2776,-5.3487,-5.4104,-5.2671,-5.1576,-5.0611,-5.0399,-5.0186,-4.921,-4.7726,-4.5872,-4.4893,-4.3721,-4.1116,-4.0352,-3.9657,-3.7906,-3.6553,-3.6098,-3.5475,-3.4943,-3.4949,-3.4612,-3.419,-3.419,-3.419,-3.419,-3.419,-3.419,-3.419,-3.4138,-3.3927,-3.3475,-3.2535,-3.1653,-3.028,-2.9127,-2.7428,-2.5971,-2.5375,-2.4352,-2.303,-2.2528,-2.2471,-2.3565,-2.469,-2.3356,-2.2046,-2.106,-2.1242,-2.0884,-9.1962,-9.1962,-9.1962,-9.1962,-9.1962,-9.1962,-9.1962,-9.1962,-9.1962,-8.9999,-8.7519,-8.6145,-8.2699,-7.8806,-7.7791,-7.8189,-7.7265,-7.7165,-7.7165,-7.7165,-7.7165,-7.7165,-7.7165,-7.7165,-7.7141,-7.6921,-7.6067,-7.4969,-7.387,-7.2699,-7.1698,-7.1083,-7.079,-7.079,-7.0213,-6.9634,-6.9052,-6.828,-6.7503,-6.7022,-6.6273,-6.3384,-6.0664,-5.9523,-5.782,-5.6585,-5.5192,-5.5012,-5.4139,-5.3209,-5.2677,-5.1441,-5.0247,-4.9982,-4.9925,-4.9925,-4.9925,-4.9925,-4.9925,-5.002,-5.0342,-5.1367,-5.1576,-5.2032,-5.3544,-5.3797,-5.3873,-5.3926,-5.3218,-5.2793,-5.2477,-5.2249,-5.1599,-5.0097,-4.8923,-4.8263,-4.6197,-4.2511,-4.092,-4.0233,-3.8518,-3.6905,-3.6003,-3.544,-3.546,-3.5572,-3.483,-3.419,-3.419,-3.419,-3.419,-3.419,-3.419,-3.419,-3.3888,-3.3524,-3.3159,-3.2488,-3.1904,-3.0965,-3.0183,-2.8712,-2.7921,-2.7537,-2.6697,-2.6229,-2.5998,-2.5795,-2.6036,-2.6656,-2.5568,-2.3744,-2.3581,-2.3887,-2.3199,-9.1962,-9.1962,-9.1962,-9.1962,-9.1962,-9.1962,-9.1962,-9.1962,-9.1962,-9.1764,-9.0857,-8.8987,-8.4009,-7.9565,-7.937,-7.9199,-7.7165,-7.7165,-7.7165,-7.7165,-7.7165,-7.7165,-7.7165,-7.7165,-7.7141,-7.6994,-7.6384,-7.5188,-7.3895,-7.2967,-7.2012,-7.0936,-7.079,-7.079,-7.0305,-6.9331,-6.8467,-6.8186,-6.7998,-6.7923,-6.7272,-6.5148,-6.2313,-6.0828,-5.9361,-5.7655,-5.5201,-5.5012,-5.4386,-5.3133,-5.2715,-5.1728,-5.0285,-4.9963,-4.9925,-4.9925,-4.9925,-4.9925,-4.9925,-4.9925,-4.9982,-5.019,-5.0874,-5.1956,-5.3285,-5.3709,-5.4082,-5.4435,-5.4351,-5.4416,-5.4558,-5.4889,-5.4227,-5.2601,-5.0982,-5.0646,-4.9013,-4.508,-4.204,-4.0907,-3.953,-3.796,-3.6962,-3.7413,-3.7504,-3.8196,-3.765,-3.6654,-3.6263,-3.4688,-3.4586,-3.4381,-3.4381,-3.4045,-3.3602,-3.3146,-3.2768,-3.2138,-3.158,-3.1138,-3.0747,-3.0708,-2.9905,-2.9337,-2.8781,-2.935,-2.9498,-2.8404,-2.7894,-2.8576,-2.8213,-2.6416,-2.5851,-2.5732,-2.5003,-9.1962,-9.1962,-9.1962,-9.1962,-9.1962,-9.1962,-9.1962,-9.1962,-9.1962,-9.1962,-9.1312,-8.9161,-8.5207,-8.123,-8.0679,-7.993,-7.7341,-7.7165,-7.7165,-7.7165,-7.7165,-7.7165,-7.7165,-7.7165,-7.7165,-7.7141,-7.6701,-7.5627,-7.4383,-7.3407,-7.2406,-7.0863,-7.079,-7.079,-7.0582,-6.9888,-6.9424,-6.9424,-6.9424,-6.9592,-6.9386,-6.7146,-6.4745,-6.2198,-5.9962,-5.7655,-5.5493,-5.4974,-5.4177,-5.3076,-5.2445,-5.1671,-5.0266,-4.9925,-4.9925,-4.9925,-4.9925,-4.9925,-4.9925,-4.9925,-4.9925,-5.019,-5.0855,-5.1576,-5.262,-5.2848,-5.319,-5.4101,-5.4595,-5.4955,-5.5012,-5.5012,-5.5012,-5.4123,-5.2811,-5.3144,-5.23,-4.7549,-4.422,-4.3282,-4.1888,-3.992,-3.9449,-3.964,-4.0099,-4.0833,-4.0306,-3.931,-3.765,-3.5464,-3.507,-3.4777,-3.4596,-3.4042,-3.3558,-3.3036,-3.2417,-3.1826,-3.1268,-3.0891,-3.0813,-3.0774,-3.0761,-3.0669,-3.03,-3.0328,-3.0057,-2.9841,-2.9684,-2.8977,-2.8263,-2.7652,-2.7346,-2.7224,-2.6677,-9.2456,-9.1962,-9.1962,-9.1962,-9.1962,-9.1962,-9.1962,-9.1962,-9.1962,-9.1962,-9.151,-8.9336,-8.7519,-8.6054,-8.4379,-8.2132,-7.9297,-7.8831,-7.8288,-7.7441,-7.7165,-7.7165,-7.7165,-7.7165,-7.7165,-7.7165,-7.6945,-7.5945,-7.4529,-7.3651,-7.2797,-7.1083,-7.079,-7.079,-7.0674,-7.079,-7.079,-7.079,-7.079,-7.079,-7.0373,-6.9121,-6.6699,-6.2966,-6.1511,-5.8629,-5.5977,-5.4727,-5.3835,-5.2837,-5.2047,-5.1349,-5.0285,-4.9925,-4.9925,-4.9925,-4.9925,-4.9925,-4.9925,-4.9925,-4.9925,-5.0096,-5.0437,-5.0969,-5.1424,-5.207,-5.2905,-5.3683,-5.45,-5.4936,-5.5012,-5.5012,-5.5012,-5.4785,-5.3914,-5.4123,-5.3206,-4.9141,-4.6491,-4.5618,-4.4633,-4.3528,-4.2683,-4.2953,-4.3411,-4.3476,-4.2578,-4.1593,-3.9724,-3.775,-3.6857,-3.6047,-3.5349,-3.4624,-3.4232,-3.3403,-3.283,-3.1881,-3.1327,-3.1117,-3.0959,-3.0761,-3.0761,-3.0669,-3.1143,-3.088,-3.0216,-2.989,-2.9335,-2.8614,-2.8022,-2.7705,-2.7402,-2.7454,-2.7648,-9.3125,-9.1962,-9.1962,-9.1962,-9.1962,-9.1962,-9.1962,-9.1962,-9.1962,-9.1962,-9.1793,-8.9826,-8.9999,-9.02,-8.8899,-8.5482,-8.2348,-8.075,-7.959,-7.8089,-7.7441,-7.7165,-7.7165,-7.7165,-7.7165,-7.7165,-7.7165,-7.5896,-7.4358,-7.387,-7.2748,-7.1205,-7.079,-7.079,-7.079,-7.079,-7.079,-7.079,-7.079,-7.079,-7.0674,-7.0097,-6.715,-6.3918,-6.1786,-5.9616,-5.5604,-5.431,-5.3487,-5.2524,-5.1801,-5.0931,-5.0096,-4.9925,-4.9925,-4.9925,-4.9925,-4.9925,-4.9925,-4.9925,-4.9925,-4.9944,-5.0001,-4.9944,-5.0494,-5.1481,-5.2582,-5.3551,-5.4481,-5.4898,-5.4765,-5.4898,-5.5012,-5.4785,-5.4558,-5.4785,-5.4474,-5.102,-4.8913,-4.7842,-4.6975,-4.6165,-4.5715,-4.6158,-4.6342,-4.5649,-4.484,-4.3671,-4.2381,-4.0901,-3.9923,-3.8707,-3.7819,-3.6784,-3.6121,-3.4369,-3.3316,-3.2001,-3.1708,-3.1511,-3.1498,-3.1485,-3.1209,-3.1313,-3.2091,-3.2108,-3.1157,-3.0103,-2.9033,-2.8428,-2.8011,-2.7719,-2.7618,-2.7824,-2.8192,-9.3125,-9.1962,-9.1962,-9.1962,-9.1962,-9.1962,-9.1962,-9.1962,-9.1962,-9.1962,-9.1877,-9.1368,-9.1397,-9.1227,-8.9277,-8.6749,-8.3916,-8.1709,-8.0776,-7.9565,-7.8189,-7.7165,-7.7165,-7.7165,-7.7165,-7.7165,-7.7141,-7.5994,-7.4236,-7.387,-7.2626,-7.1352,-7.079,-7.079,-7.079,-7.079,-7.079,-7.079,-7.079,-7.079,-7.0189,-6.8655,-6.6032,-6.3064,-6.0695,-5.8447,-5.5294,-5.4139,-5.326,-5.2521,-5.1649,-5.0893,-5.0096,-4.9925,-4.9925,-4.9925,-4.9925,-4.9925,-4.9925,-4.9925,-4.9925,-4.9925,-4.9925,-4.9925,-5.0209,-5.0931,-5.188,-5.2829,-5.3968,-5.4708,-5.4412,-5.4633,-5.4936,-5.5012,-5.5012,-5.4795,-5.4228,-5.2963,-5.0802,-4.9664,-4.9171,-4.8621,-4.8287,-4.8522,-4.8236,-4.7626,-4.7435,-4.6246,-4.5262,-4.3964,-4.2447,-4.119,-4.0149,-3.9102,-3.7765,-3.6211,-3.4395,-3.3678,-3.3559,-3.3286,-3.2922,-3.2648,-3.1954,-3.1808,-3.2664,-3.33,-3.1943,-3.0821,-3.0495,-2.9748,-2.8394,-2.8246,-2.9396,-2.9824,-2.9573,-9.3125,-9.1991,-9.1962,-9.1962,-9.1962,-9.1962,-9.1962,-9.1962,-9.1962,-9.1962,-9.1962,-9.1962,-9.1962,-9.1595,-9.0458,-8.8696,-8.6208,-8.3796,-8.1968,-8.0415,-7.8461,-7.7165,-7.7165,-7.7165,-7.7165,-7.7165,-7.7043,-7.6018,-7.409,-7.387,-7.2675,-7.1254,-7.079,-7.079,-7.079,-7.079,-7.079,-7.079,-7.079,-7.079,-7.0582,-6.9702,-6.6485,-6.3724,-6.1369,-5.8731,-5.5739,-5.3911,-5.2962,-5.2412,-5.1349,-5.057,-5.0058,-4.9925,-4.9925,-4.9925,-4.9925,-4.9925,-4.9925,-4.9925,-4.9925,-4.9925,-4.9925,-4.9925,-5.0058,-5.0456,-5.1045,-5.2051,-5.3361,-5.4317,-5.3975,-5.466,-5.4917,-5.5012,-5.5012,-5.4803,-5.4253,-5.3247,-5.1773,-5.0471,-4.9835,-4.9525,-4.9925,-4.9925,-4.9925,-4.9925,-4.9831,-4.9034,-4.8045,-4.6456,-4.4743,-4.381,-4.3102,-4.1974,-4.0725,-3.8417,-3.63,-3.6072,-3.5952,-3.5668,-3.5399,-3.5593,-3.4724,-3.3775,-3.3651,-3.4698,-3.3569,-3.2651,-3.2346,-3.1882,-3.1116,-3.0751,-3.1477,-3.1756,-3.1357,-9.2921,-9.1962,-9.1962,-9.1962,-9.1962,-9.1962,-9.1962,-9.1962,-9.1962,-9.1962,-9.1962,-9.1962,-9.1962,-9.1877,-9.1877,-9.0857,-8.852,-8.5482,-8.3356,-8.1613,-7.856,-7.7265,-7.7165,-7.7165,-7.7165,-7.7165,-7.7092,-7.5994,-7.4334,-7.3748,-7.2699,-7.1205,-7.079,-7.079,-7.079,-7.079,-7.079,-7.079,-7.079,-7.079,-7.079,-7.0189,-6.8233,-6.4328,-6.206,-5.9616,-5.6237,-5.3859,-5.2506,-5.2355,-5.0797,-5.0115,-4.9925,-4.9925,-4.9925,-4.9925,-4.9925,-4.9925,-4.9925,-4.9925,-4.9925,-4.9925,-4.9925,-4.9925,-4.9925,-5.002,-5.0608,-5.1481,-5.2544,-5.3614,-5.3823,-5.4519,-5.4917,-5.5012,-5.4936,-5.4689,-5.3873,-5.2886,-5.1741,-5.0693,-5.0206,-4.9925,-4.9925,-4.9925,-4.9925,-4.9925,-4.9925,-4.9528,-4.8941,-4.7899,-4.6723,-4.6098,-4.5537,-4.4391,-4.3328,-4.0584,-3.8599,-3.8534,-3.8413,-3.8132,-3.7439,-3.7987,-3.8393,-3.7702,-3.7414,-3.6698,-3.5597,-3.4638,-3.4234,-3.4074,-3.3773,-3.3489,-3.353,-3.3455,-3.3114,-9.2107,-9.1962,-9.1962,-9.1962,-9.1962,-9.1962,-9.1962,-9.1962,-9.1962,-9.1962,-9.1962,-9.1962,-9.1962,-9.1962,-9.1962,-9.1877,-9.0114,-8.7045,-8.4194,-8.2793,-7.9297,-7.7716,-7.7165,-7.7165,-7.7165,-7.7165,-7.7165,-7.5945,-7.4407,-7.3724,-7.2748,-7.1132,-7.079,-7.079,-7.079,-7.079,-7.079,-7.079,-7.079,-7.079,-7.079,-7.0698,-6.9424,-6.5817,-6.2868,-5.9315,-5.77,-5.4663,-5.2506,-5.2412,-5.0931,-5.0077,-4.9925,-4.9925,-4.9925,-4.9925,-4.9925,-4.9925,-4.9925,-4.9925,-4.9925,-4.9925,-4.9925,-4.9925,-4.9925,-4.9982,-5.0437,-5.1064,-5.1557,-5.2279,-5.3747,-5.4405,-5.4841,-5.4993,-5.4993,-5.4614,-5.3842,-5.2393,-5.133,-5.0399,-5.0058,-4.9925,-4.9925,-4.9925,-4.9925,-4.9925,-4.9925,-4.9774,-4.9585,-4.9001,-4.8271,-4.7731,-4.6383,-4.5169,-4.4642,-4.2566,-4.1077,-4.0886,-4.0868,-3.9891,-3.8678,-3.9585,-4.0483,-4.0572,-3.9884,-3.8678,-3.7514,-3.6809,-3.6316,-3.6109,-3.5834,-3.5458,-3.5287,-3.5196,-3.4295,-9.1962,-9.1962,-9.1962,-9.1962,-9.1962,-9.1962,-9.1962,-9.1962,-9.1962,-9.1962,-9.1962,-9.1962,-9.1962,-9.1962,-9.1962,-9.1962,-9.1028,-8.808,-8.518,-8.2416,-8.0583,-7.8362,-7.7541,-7.7165,-7.7165,-7.7165,-7.7165,-7.592,-7.4432,-7.37,-7.2797,-7.0961,-7.079,-7.079,-7.079,-7.079,-7.079,-7.079,-7.079,-7.079,-7.079,-7.079,-6.9912,-6.8256,-6.3941,-6.0197,-5.8769,-5.4827,-5.2937,-5.2403,-5.2157,-5.1465,-5.0284,-4.9925,-4.9925,-4.9925,-4.9925,-4.9925,-5.002,-4.9925,-5.0114,-4.9925,-4.9925,-4.9925,-4.9925,-4.9925,-5.0266,-5.0513,-5.0798,-5.1311,-5.2905,-5.3854,-5.4576,-5.4765,-5.4614,-5.3987,-5.3133,-5.2051,-5.0969,-5.019,-4.9906,-4.9925,-4.9925,-4.9925,-4.9925,-4.9925,-4.9925,-4.9849,-4.966,-4.9184,-4.8805,-4.8083,-4.6944,-4.6117,-4.5716,-4.4714,-4.2984,-4.2739,-4.2721,-4.1685,-4.0591,-4.1476,-4.2287,-4.1577,-4.07,-3.9751,-3.9003,-3.9027,-3.8498,-3.8061,-3.7669,-3.7421,-3.7062,-3.6595,-3.5757,-9.1962,-9.1962,-9.1962,-9.1962,-9.1962,-9.1962,-9.1962,-9.1962,-9.1962,-9.1962,-9.1962,-9.1962,-9.1962,-9.1962,-9.1962,-9.1962,-9.1595,-8.919,-8.6389,-8.2348,-8.1709,-7.9663,-7.8461,-7.7341,-7.7265,-7.7165,-7.7165,-7.5969,-7.4383,-7.37,-7.2772,-7.1059,-7.079,-7.079,-7.079,-7.079,-7.079,-7.079,-7.079,-7.079,-7.079,-7.0765,-7.0674,-7.0281,-6.6747,-6.3052,-5.9535,-5.5978,-5.4066,-5.3905,-5.4079,-5.37,-5.2264,-5.1372,-5.1372,-5.1633,-5.1446,-5.1091,-5.1446,-5.1912,-5.1465,-5.1185,-5.1111,-5.0547,-5.019,-4.9925,-4.9925,-4.9963,-5.0153,-5.0988,-5.2165,-5.3152,-5.3987,-5.4386,-5.4241,-5.3456,-5.2355,-5.1311,-5.0399,-4.9925,-4.9755,-4.9925,-4.9925,-4.9925,-4.9925,-4.9925,-4.9887,-4.983,-4.9357,-4.8862,-4.8273,-4.7718,-4.6565,-4.5605,-4.533,-4.4883,-4.4032,-4.3995,-4.4081,-4.353,-4.3063,-4.3315,-4.2176,-4.1555,-4.1193,-4.0641,-3.975,-3.9656,-3.9619,-3.9694,-3.96,-3.8974,-3.8399,-3.796,-3.7324,-9.1962,-9.1962,-9.1962,-9.1962,-9.1962,-9.1962,-9.1962,-9.1962,-9.1962,-9.1962,-9.1962,-9.1962,-9.1962,-9.1962,-9.1962,-9.1962,-9.1764,-8.9364,-8.7786,-8.6326,-8.3169,-8.0776,-7.9955,-7.8362,-7.7541,-7.7165,-7.7165,-7.5872,-7.4383,-7.387,-7.2699,-7.1254,-7.079,-7.079,-7.079,-7.079,-7.079,-7.079,-7.079,-7.079,-7.079,-7.079,-7.079,-7.0674,-6.9214,-6.6613,-6.2525,-5.9793,-5.8367,-5.7649,-5.7119,-5.6512,-5.6089,-5.4158,-5.4249,-5.5208,-5.4229,-5.4046,-5.5729,-5.5639,-5.5299,-5.3629,-5.3261,-5.247,-5.1017,-5.0472,-5.0566,-5.0829,-5.0722,-5.1199,-5.1887,-5.2891,-5.3709,-5.3994,-5.3962,-5.3062,-5.1595,-4.9982,-4.8957,-4.8992,-4.9564,-4.983,-4.9925,-4.9925,-4.9906,-4.983,-4.9906,-4.9641,-4.9146,-4.8463,-4.7761,-4.7096,-4.6204,-4.5169,-4.5141,-4.5084,-4.4942,-4.497,-4.497,-4.4977,-4.4404,-4.3335,-4.2107,-4.1445,-4.1485,-4.1096,-4.0561,-4.0392,-4.0128,-4.0144,-4.0131,-3.9917,-3.9646,-3.9191,-3.879,-9.1962,-9.1962,-9.1962,-9.1962,-9.1962,-9.1962,-9.1962,-9.1962,-9.1962,-9.1962,-9.1962,-9.1962,-9.1962,-9.1962,-9.1962,-9.1962,-9.1566,-8.9364,-8.9074,-8.9277,-8.539,-8.2442,-8.0968,-8.0052,-7.856,-7.7341,-7.7165,-7.592,-7.4212,-7.387,-7.2675,-7.1156,-7.079,-7.079,-7.079,-7.079,-7.079,-7.079,-7.079,-7.079,-7.079,-7.079,-7.079,-7.079,-7.0674,-6.9071,-6.4971,-6.1693,-5.9297,-5.8283,-5.8559,-5.8579,-5.7252,-5.611,-5.62,-5.6873,-5.6269,-5.602,-5.6963,-5.7141,-5.6627,-5.593,-5.566,-5.5027,-5.4137,-5.28,-5.2892,-5.3333,-5.159,-5.1521,-5.2228,-5.2451,-5.2895,-5.3543,-5.3674,-5.2465,-5.0132,-4.9993,-4.935,-4.8408,-4.833,-4.8672,-4.9222,-4.9241,-4.9488,-4.9905,-5.0187,-4.969,-4.9078,-4.8008,-4.7267,-4.6565,-4.5749,-4.5577,-4.5518,-4.5178,-4.497,-4.5121,-4.5233,-4.5385,-4.4579,-4.3521,-4.2647,-4.2165,-4.1826,-4.1678,-4.1826,-4.1826,-4.1405,-4.0936,-4.0488,-4.0418,-4.0575,-4.0416,-4.0039,-9.1962,-9.1962,-9.1962,-9.1962,-9.1962,-9.1962,-9.1962,-9.1962,-9.1962,-9.1962,-9.1962,-9.1962,-9.1962,-9.1962,-9.1962,-9.1962,-9.1312,-8.9364,-8.9538,-9.1028,-8.7991,-8.518,-8.3169,-8.1613,-7.959,-7.7441,-7.7092,-7.6018,-7.4017,-7.387,-7.2748,-7.0863,-7.079,-7.079,-7.079,-7.079,-7.079,-7.079,-7.079,-7.079,-7.079,-7.079,-7.079,-7.079,-7.079,-6.9558,-6.7317,-6.328,-6.0425,-5.9645,-6.0964,-6.0802,-5.9477,-5.8491,-5.8491,-5.9017,-5.8666,-5.8314,-5.893,-5.9302,-5.8754,-5.8226,-5.8138,-5.7762,-5.7252,-5.5479,-5.557,-5.5909,-5.432,-5.2562,-5.3125,-5.2732,-5.2315,-5.3139,-5.3981,-5.3434,-5.1244,-5.0789,-5.0742,-4.9216,-4.9238,-4.9781,-5.0307,-5.0505,-5.0703,-5.1029,-5.095,-5.0514,-5.0273,-4.9533,-4.8989,-4.7728,-4.6537,-4.6271,-4.6116,-4.5544,-4.5375,-4.5759,-4.6241,-4.6649,-4.587,-4.4779,-4.3876,-4.323,-4.3391,-4.3548,-4.3548,-4.3227,-4.2792,-4.2306,-4.1826,-4.1343,-4.1462,-4.1624,-4.1306,-9.1962,-9.1962,-9.1962,-9.1962,-9.1962,-9.1962,-9.1962,-9.1962,-9.1962,-9.1962,-9.1962,-9.1962,-9.1962,-9.1962,-9.1962,-9.1962,-9.151,-8.9566,-8.9913,-9.1227,-9.1227,-8.9711,-8.7135,-8.345,-8.0415,-7.7816,-7.7265,-7.5969,-7.3944,-7.3846,-7.2797,-7.0961,-7.079,-7.079,-7.079,-7.079,-7.079,-7.079,-7.079,-7.079,-7.079,-7.079,-7.079,-7.079,-7.0668,-6.9954,-6.8469,-6.5436,-6.4083,-6.4972,-6.4019,-6.3669,-6.3392,-6.1684,-6.1489,-6.3115,-6.1598,-6.1769,-6.3199,-6.3139,-6.2498,-6.0692,-6.0433,-5.9629,-5.8138,-5.7496,-5.7252,-5.7784,-5.6716,-5.566,-5.4341,-5.3772,-5.3062,-5.2256,-5.4129,-5.4999,-5.3696,-5.2857,-5.2279,-5.2155,-5.2923,-5.3418,-5.2905,-5.2969,-5.3012,-5.3054,-5.2332,-5.1867,-5.1402,-5.0646,-5.0871,-4.9986,-4.8553,-4.8409,-4.8882,-4.8306,-4.7581,-4.808,-4.8687,-4.875,-4.8243,-4.6975,-4.5909,-4.5444,-4.528,-4.5423,-4.5343,-4.4687,-4.4168,-4.3515,-4.2986,-4.2505,-4.2452,-4.2681,-4.2749,-9.1962,-9.1962,-9.1962,-9.1962,-9.1962,-9.1962,-9.1962,-9.1962,-9.1962,-9.1962,-9.1962,-9.1962,-9.1962,-9.1962,-9.1962,-9.1962,-9.1877,-9.1028,-9.1028,-9.1848,-9.1962,-9.151,-9.02,-8.6956,-8.3543,-7.9955,-7.7915,-7.6018,-7.3968,-7.3797,-7.2797,-7.1107,-7.079,-7.079,-7.079,-7.079,-7.079,-7.079,-7.079,-7.079,-7.079,-7.079,-7.079,-7.0692,-7.0015,-6.9527,-6.8949,-6.6539,-6.5078,-6.4843,-6.4548,-6.4412,-6.4304,-6.356,-6.3368,-6.4029,-6.356,-6.3308,-6.4112,-6.4388,-6.3837,-6.3199,-6.303,-6.2498,-6.1684,-6.0,-6.026,-6.0715,-5.9127,-5.7429,-5.7607,-5.6806,-5.5332,-5.4121,-5.4444,-5.4348,-5.5099,-5.4412,-5.3574,-5.2596,-5.241,-5.2599,-5.295,-5.3124,-5.3019,-5.2914,-5.2528,-5.214,-5.0781,-5.04,-5.0213,-4.9889,-4.9758,-5.0479,-5.1246,-5.0792,-4.9902,-5.0298,-5.0794,-5.0402,-5.0121,-4.8884,-4.7573,-4.7056,-4.7214,-4.7424,-4.704,-4.6363,-4.5392,-4.456,-4.3904,-4.384,-4.399,-4.407,-4.4693,-9.1962,-9.1962,-9.1962,-9.1962,-9.1962,-9.1962,-9.1962,-9.1962,-9.1962,-9.1962,-9.1962,-9.1962,-9.1962,-9.1962,-9.1962,-9.1962,-9.1962,-9.1962,-9.1962,-9.1962,-9.1962,-9.1877,-9.1397,-8.9336,-8.6416,-8.3236,-8.025,-7.7709,-7.5848,-7.4748,-7.3554,-7.1976,-7.1132,-7.079,-7.079,-7.079,-7.079,-7.079,-7.079,-7.079,-7.079,-7.079,-7.079,-7.0668,-6.9673,-6.8632,-6.7974,-6.6354,-6.5085,-6.4461,-6.4388,-6.4388,-6.4388,-6.4388,-6.4388,-6.4388,-6.4388,-6.4388,-6.4388,-6.4388,-6.4388,-6.4304,-6.4304,-6.4388,-6.4112,-6.2692,-6.2583,-6.3392,-6.1536,-5.9477,-6.0104,-5.8857,-5.753,-5.6853,-5.563,-5.5705,-5.6378,-5.6058,-5.5017,-5.3801,-5.3566,-5.3736,-5.4199,-5.446,-5.4484,-5.395,-5.3375,-5.2834,-5.1517,-5.1278,-5.0668,-5.1117,-5.0906,-5.1549,-5.2196,-5.2274,-5.1895,-5.217,-5.2005,-5.1434,-5.1281,-5.0462,-4.9156,-4.8581,-4.9088,-4.9197,-4.8727,-4.7929,-4.6826,-4.5847,-4.5445,-4.5485,-4.564,-4.6117,-4.6774,-9.1962,-9.1962,-9.1962,-9.1962,-9.1962,-9.1962,-9.1962,-9.1962,-9.1962,-9.1962,-9.1962,-9.1962,-9.1962,-9.1962,-9.1962,-9.1962,-9.1962,-9.1962,-9.1962,-9.1962,-9.1962,-9.1962,-9.1877,-8.9624,-8.814,-8.7119,-8.4107,-8.1281,-7.8618,-7.6411,-7.4908,-7.3684,-7.1811,-7.079,-7.079,-7.079,-7.079,-7.079,-7.079,-7.079,-7.079,-7.079,-7.0716,-7.057,-6.9527,-6.7998,-6.6134,-6.4987,-6.4485,-6.4388,-6.4388,-6.4388,-6.4388,-6.4388,-6.4388,-6.4388,-6.4388,-6.4388,-6.4388,-6.4388,-6.4388,-6.4388,-6.4388,-6.4388,-6.4388,-6.4112,-6.4029,-6.4304,-6.3753,-6.3043,-6.0999,-5.9652,-5.896,-5.931,-5.8641,-5.8117,-5.7948,-5.7835,-5.7735,-5.7485,-5.7182,-5.7784,-5.7808,-5.7154,-5.6446,-5.5558,-5.4744,-5.3879,-5.3304,-5.2564,-5.3244,-5.371,-5.3149,-5.2809,-5.3454,-5.3812,-5.3774,-5.3561,-5.2755,-5.211,-5.1725,-5.1555,-5.0149,-5.066,-5.1188,-5.1146,-5.0721,-4.9563,-4.8376,-4.7734,-4.7387,-4.7148,-4.7363,-4.7672,-4.8581,-9.1962,-9.1962,-9.1962,-9.1962,-9.1962,-9.1962,-9.1962,-9.1962,-9.1962,-9.1962,-9.1962,-9.1962,-9.1962,-9.1962,-9.1962,-9.1962,-9.1962,-9.1962,-9.1962,-9.1962,-9.1962,-9.1962,-9.1793,-9.1142,-8.9485,-8.7025,-8.5563,-8.2996,-7.9263,-7.6766,-7.5152,-7.395,-7.1877,-7.079,-7.079,-7.079,-7.079,-7.079,-7.079,-7.079,-7.079,-7.079,-7.0356,-6.9485,-6.8461,-6.733,-6.5988,-6.4865,-6.4388,-6.4388,-6.4388,-6.4388,-6.4388,-6.4388,-6.4388,-6.4388,-6.4388,-6.4388,-6.4388,-6.4388,-6.4388,-6.4388,-6.4388,-6.4388,-6.4388,-6.4388,-6.4388,-6.4388,-6.4388,-6.3806,-6.2081,-6.0371,-5.9442,-5.941,-5.8862,-5.8276,-5.7935,-5.7886,-5.7886,-5.7886,-5.7886,-5.7886,-5.7813,-5.7227,-5.6348,-5.5275,-5.4225,-5.3225,-5.2707,-5.2219,-5.239,-5.3277,-5.318,-5.3828,-5.4023,-5.3328,-5.2894,-5.2926,-5.2371,-5.1899,-5.1607,-5.1577,-5.1577,-5.2628,-5.3067,-5.3057,-5.2382,-5.1179,-5.0336,-4.9769,-4.9203,-4.8636,-4.8909,-4.9234,-4.9905,-9.1962,-9.1962,-9.1962,-9.1962,-9.1962,-9.1962,-9.1962,-9.1962,-9.1962,-9.1962,-9.1962,-9.1962,-9.1962,-9.1962,-9.1962,-9.1962,-9.1962,-9.1962,-9.1962,-9.1962,-9.1962,-9.1962,-9.1932,-9.1438,-8.9875,-8.7693,-8.6672,-8.4365,-8.0967,-7.8578,-7.6738,-7.5205,-7.3086,-7.1448,-7.0857,-7.079,-7.079,-7.079,-7.079,-7.079,-7.079,-7.079,-6.9966,-6.851,-6.7413,-6.6427,-6.5353,-6.4754,-6.4388,-6.4388,-6.4388,-6.4388,-6.4388,-6.4388,-6.4388,-6.4388,-6.4388,-6.4388,-6.4388,-6.4388,-6.4388,-6.4388,-6.4388,-6.4388,-6.4388,-6.4388,-6.4388,-6.429,-6.3987,-6.2962,-6.1644,-6.0326,-5.9375,-5.8935,-5.8325,-5.7935,-5.7886,-5.7886,-5.7886,-5.7886,-5.7886,-5.7715,-5.73,-5.6715,-5.5665,-5.4323,-5.3469,-5.2707,-5.1828,-5.151,-5.173,-5.239,-5.283,-5.3212,-5.3721,-5.2673,-5.2149,-5.2191,-5.2038,-5.1499,-5.1901,-5.2014,-5.2027,-5.2847,-5.298,-5.2869,-5.2579,-5.1438,-5.052,-5.019,-5.0448,-5.0039,-5.0145,-5.1114,-5.1658,-9.1962,-9.1962,-9.1962,-9.1962,-9.1962,-9.1962,-9.1962,-9.1962,-9.1962,-9.1962,-9.1962,-9.1962,-9.1962,-9.1962,-9.1962,-9.1962,-9.1962,-9.1962,-9.1962,-9.1962,-9.1845,-9.1845,-9.1787,-9.0512,-8.9785,-8.9016,-8.7104,-8.5286,-8.3906,-8.1755,-7.978,-7.7642,-7.5127,-7.2972,-7.1381,-7.0949,-7.079,-7.079,-7.079,-7.079,-7.079,-7.0692,-6.9502,-6.7574,-6.6452,-6.5475,-6.4499,-6.4388,-6.4388,-6.4388,-6.4388,-6.4388,-6.4388,-6.4388,-6.4388,-6.4388,-6.4388,-6.4388,-6.4388,-6.4388,-6.4388,-6.4388,-6.4388,-6.4388,-6.4388,-6.4241,-6.4168,-6.4265,-6.3035,-6.1668,-6.0033,-5.9497,-5.8935,-5.8154,-5.7935,-5.791,-5.7886,-5.7886,-5.7886,-5.7886,-5.7886,-5.7495,-5.6373,-5.6105,-5.4982,-5.3713,-5.2981,-5.261,-5.1706,-5.1486,-5.151,-5.1779,-5.2238,-5.2783,-5.2129,-5.1522,-5.1313,-5.15,-5.1466,-5.0829,-5.1765,-5.2548,-5.2597,-5.2735,-5.2873,-5.2797,-5.2396,-5.1818,-5.1044,-5.0659,-5.0923,-5.148,-5.1607,-5.2829,-5.3395,-9.1962,-9.1962,-9.1962,-9.1962,-9.1962,-9.1962,-9.1962,-9.1962,-9.1962,-9.1962,-9.1962,-9.1962,-9.1962,-9.1962,-9.1962,-9.1962,-9.1962,-9.1962,-9.1962,-9.1874,-9.0973,-9.0566,-9.042,-8.9228,-8.8123,-8.7221,-8.6465,-8.5476,-8.4032,-8.1938,-8.0596,-7.9424,-7.5967,-7.3747,-7.3061,-7.1448,-7.079,-7.079,-7.079,-7.079,-7.0668,-6.9917,-6.8502,-6.6549,-6.6037,-6.5402,-6.4437,-6.4388,-6.4388,-6.4388,-6.4388,-6.4388,-6.4388,-6.4388,-6.4388,-6.4388,-6.4388,-6.4388,-6.4388,-6.4388,-6.4388,-6.4388,-6.4388,-6.4388,-6.4265,-6.3548,-6.3133,-6.3019,-6.1424,-6.0253,-5.9448,-5.8813,-5.8276,-5.7984,-5.7886,-5.7886,-5.7961,-5.7886,-5.8036,-5.7886,-5.8138,-5.7495,-5.6324,-5.5076,-5.4139,-5.3329,-5.2575,-5.1754,-5.1559,-5.1619,-5.1619,-5.151,-5.1773,-5.2453,-5.333,-5.1946,-5.0953,-5.1145,-5.1232,-5.0948,-5.1175,-5.2094,-5.2525,-5.3013,-5.3013,-5.2956,-5.2767,-5.292,-5.2556,-5.1807,-5.207,-5.2979,-5.3,-5.4048,-5.4748,-9.271,-9.1962,-9.1962,-9.1962,-9.1962,-9.1962,-9.1962,-9.1962,-9.1962,-9.1962,-9.1962,-9.1962,-9.1962,-9.1962,-9.1962,-9.1962,-9.1903,-9.1409,-9.1176,-9.106,-8.9838,-8.9228,-8.9111,-8.789,-8.6901,-8.6145,-8.5514,-8.4875,-8.4081,-8.2893,-8.1778,-8.0596,-7.829,-7.5855,-7.4075,-7.2728,-7.1605,-7.079,-7.079,-7.0953,-7.1107,-6.9059,-6.7184,-6.5988,-6.5451,-6.4939,-6.4461,-6.4388,-6.4388,-6.4388,-6.4388,-6.4388,-6.4388,-6.4388,-6.4388,-6.4388,-6.4388,-6.4388,-6.4388,-6.4388,-6.4388,-6.4388,-6.4388,-6.4084,-6.3645,-6.3011,-6.2881,-6.3041,-6.0717,-5.955,-6.0749,-5.9801,-5.9351,-6.0033,-6.0179,-6.0179,-6.0179,-6.0179,-5.9877,-5.9399,-5.9348,-5.8891,-5.7628,-5.61,-5.5,-5.4364,-5.3972,-5.3734,-5.3618,-5.3489,-5.3489,-5.3438,-5.2993,-5.3411,-5.4073,-5.2553,-5.1614,-5.1723,-5.1584,-5.153,-5.1824,-5.2346,-5.2451,-5.3344,-5.2287,-5.1828,-5.2718,-5.2757,-5.3144,-5.3656,-5.388,-5.3845,-5.4348,-5.5328,-5.626,-9.3527,-9.2101,-9.1962,-9.1962,-9.1962,-9.1962,-9.1962,-9.1962,-9.1962,-9.1903,-9.1671,-9.1642,-9.1496,-9.1583,-9.1496,-9.1438,-9.138,-9.0391,-8.9785,-8.964,-8.8472,-8.7861,-8.7744,-8.6552,-8.597,-8.5796,-8.4758,-8.4235,-8.4177,-8.4071,-8.3129,-8.143,-8.0919,-7.8734,-7.5249,-7.4489,-7.3392,-7.1472,-7.1258,-7.1554,-7.1902,-6.8258,-6.5988,-6.5744,-6.4792,-6.4388,-6.4388,-6.4388,-6.4388,-6.4388,-6.4388,-6.4388,-6.4388,-6.4388,-6.4388,-6.4388,-6.4388,-6.4388,-6.4388,-6.4388,-6.4255,-6.4241,-6.4084,-6.3703,-6.2896,-6.2788,-6.3427,-6.3714,-6.0862,-6.0233,-6.2758,-6.187,-6.1515,-6.2688,-6.294,-6.3302,-6.2892,-6.3222,-6.267,-6.1409,-6.0803,-6.0754,-5.917,-5.8174,-5.7249,-5.6165,-5.5811,-5.582,-5.582,-5.5793,-5.5917,-5.6244,-5.5555,-5.5003,-5.4672,-5.2848,-5.2205,-5.3065,-5.2477,-5.2389,-5.2722,-5.2533,-5.1845,-5.2438,-5.1047,-5.0602,-5.13,-5.1882,-5.2628,-5.3449,-5.3938,-5.413,-5.5164,-5.6362,-5.7734,-9.2323,-9.1962,-9.1962,-9.1962,-9.1962,-9.1962,-9.1962,-9.1962,-9.1932,-9.1409,-9.042,-8.9373,-8.8937,-8.8937,-8.8937,-8.8937,-8.8879,-8.8617,-8.8501,-8.8355,-8.7163,-8.6581,-8.6465,-8.5272,-8.4584,-8.4526,-8.4294,-8.4177,-8.4177,-8.4177,-8.3916,-8.3314,-8.1698,-8.0352,-7.9341,-7.7615,-7.6509,-7.5967,-7.5013,-7.298,-6.9894,-6.8859,-6.7145,-6.4887,-6.4402,-6.4388,-6.4388,-6.4388,-6.4388,-6.4388,-6.4388,-6.4388,-6.4388,-6.4388,-6.4388,-6.4388,-6.4388,-6.4388,-6.4388,-6.4388,-6.3938,-6.3084,-6.2986,-6.3121,-6.3478,-6.4035,-6.4212,-6.3747,-6.276,-6.2337,-6.3218,-6.3036,-6.2897,-6.3218,-6.3356,-6.3117,-6.2107,-6.1878,-6.1356,-6.0179,-5.9939,-5.9616,-5.8562,-5.8091,-5.7638,-5.6803,-5.6349,-5.6349,-5.6349,-5.6349,-5.7067,-5.7837,-5.7626,-5.6454,-5.5486,-5.4017,-5.3309,-5.3441,-5.3326,-5.3317,-5.33,-5.2639,-5.2022,-5.2323,-5.1028,-5.0179,-5.0904,-5.1905,-5.2458,-5.2492,-5.3611,-5.4682,-5.5302,-5.6896,-5.8911,-9.2763,-9.1962,-9.1962,-9.1962,-9.1903,-9.1322,-9.1089,-9.1031,-9.0449,-8.9751,-8.9082,-8.8384,-8.8035,-8.8093,-8.8675,-8.8937,-8.8966,-8.8966,-8.8966,-8.8821,-8.6988,-8.6145,-8.6029,-8.4758,-8.4177,-8.4177,-8.4177,-8.4177,-8.4177,-8.4177,-8.4177,-8.4071,-8.2972,-8.1886,-8.0839,-7.9698,-7.8267,-7.6671,-7.4708,-7.2518,-6.9832,-6.7139,-6.4899,-6.2887,-6.2896,-6.2791,-6.2791,-6.2815,-6.2815,-6.2791,-6.2791,-6.3011,-6.3499,-6.3548,-6.3743,-6.4255,-6.3816,-6.3523,-6.3523,-6.3084,-6.2904,-6.3141,-6.3145,-6.3586,-6.4778,-6.4459,-6.468,-6.579,-6.4275,-6.4002,-6.5745,-6.5115,-6.4733,-6.5032,-6.5014,-6.4512,-6.3389,-6.3138,-6.2601,-6.1426,-6.1204,-6.0731,-5.9596,-5.9457,-5.9211,-5.8797,-5.8602,-5.8633,-5.8661,-5.8158,-5.8064,-5.889,-5.7789,-5.648,-5.5695,-5.4523,-5.3982,-5.4396,-5.401,-5.3843,-5.4137,-5.2664,-5.1893,-5.197,-5.059,-4.9841,-5.0712,-5.1608,-5.2251,-5.2291,-5.3651,-5.4824,-5.6238,-5.7188,-5.8877,-9.2905,-9.1409,-9.1409,-9.1409,-9.1351,-9.0217,-8.9751,-8.9664,-8.8559,-8.7948,-8.7774,-8.7599,-8.7512,-8.7599,-8.8704,-8.9146,-8.9228,-8.9228,-8.9175,-8.903,-8.6697,-8.5621,-8.5534,-8.4313,-8.3625,-8.3625,-8.3596,-8.3741,-8.3964,-8.3887,-8.4003,-8.4148,-8.4177,-8.3207,-8.151,-8.1181,-7.9323,-7.582,-7.3248,-7.153,-7.0598,-6.5721,-6.2479,-6.1154,-6.1724,-6.1828,-6.1054,-6.1779,-6.1729,-6.0832,-6.0782,-6.1099,-6.2012,-6.1602,-6.2363,-6.4033,-6.2872,-6.2307,-6.2727,-6.1913,-6.2176,-6.3943,-6.4017,-6.4476,-6.5787,-6.469,-6.5284,-6.842,-6.5909,-6.5268,-6.8097,-6.6922,-6.6039,-6.6585,-6.6746,-6.6223,-6.4793,-6.4648,-6.4096,-6.2792,-6.2908,-6.2299,-6.123,-6.1055,-6.0999,-6.111,-6.0685,-6.1054,-6.0738,-6.0089,-5.9272,-5.8574,-5.7072,-5.5869,-5.5264,-5.4488,-5.4646,-5.5282,-5.467,-5.4582,-5.4913,-5.3133,-5.1756,-5.1259,-5.0216,-4.9905,-5.087,-5.1219,-5.2187,-5.3367,-5.4052,-5.4727,-5.7145,-5.7864,-5.8611,-8.908,-8.8733,-8.8733,-8.8704,-8.8733,-8.8501,-8.8413,-8.8384,0.0,0.0,0.0,-8.5281,-8.4817,-8.4923,-8.5078,-8.5194,-8.5165,-8.5194,-8.5165,-8.5107,-8.3702,-8.3109,-8.3022,-8.1724,-8.1113,-8.1084,-8.1143,-8.1712,-8.2731,-8.276,-8.3207,-8.4061,-8.4177,-8.3965,-8.3539,-8.2614,-8.0268,-7.6547,-7.4891,-7.2714,-7.0047,-6.8939,-6.604,-6.0961,-6.4989,-6.5231,-6.1127,-6.4994,-6.4836,-5.9614,-5.9233,-5.9337,-5.9493,-5.7337,-5.8368,-6.3262,-6.1355,-6.0903,-6.3362,-6.3381,-6.4137,-6.5992,-6.529,-6.486,-6.5231,-6.5983,-6.7111,-6.8835,-6.7468,-6.6679,-6.7295,-6.6092,-6.5369,-6.5407,-6.5438,-6.4943,-6.3692,-6.3489,-6.3082,-6.1862,-6.1629,-6.1455,-6.1252,-6.1223,-6.1223,-6.1223,-6.1223,-6.1223,-6.1077,-6.0199,-5.8739,-5.7066,-5.6879,-5.6264,-5.49,-5.5185,-5.6124,-5.5714,-5.6048,-5.6139,-5.5157,-5.3751,-5.267,-5.2041,-5.1068,-5.0822,-5.1575,-5.2518,-5.3247,-5.2535,-5.462,-5.6749,-5.6967,-5.8562,-6.0778,-8.9995,0.0,-8.9745,-9.0024,0.0,-8.9774,-8.8675,-8.8035,-8.8035,-8.7308,-8.6116,-8.5476,-8.4758,-8.4235,-8.5592,-8.6174,-8.6203,-8.6792,-8.7083,-8.6967,-8.4516,-8.3615,-8.4196,-8.2381,-8.1724,-8.2306,-8.177,-8.1828,-8.2381,-8.1799,-8.177,-8.2306,-8.2306,-8.1666,-8.0445,-8.1026,-7.9136,-7.4715,-7.3377,-7.1818,-6.9916,-6.8599,-6.6352,-6.3324,-6.4947,0.0,0.0,0.0,0.0,0.0,0.0,0.0,0.0,0.0,0.0,-5.811,-5.3453,-5.0905,-5.1673,-5.1888,-5.3505,-5.6947,-5.8203,-5.8606,-5.833,-6.1889,-6.3867,-6.3285,-6.442,-6.535,-6.5932,-6.5496,-6.4827,-6.4216,-6.4158,-6.3634,-6.2443,-6.2181,-6.192,-6.1339,-6.1223,-6.1223,-6.1223,-6.1223,-6.1223,-6.1223,-6.1223,-6.1223,-6.1162,-6.0578,-5.9262,-5.6938,-5.6992,-5.6765,-5.5789,-5.6543,-5.703,-5.7037,-5.6527,-5.5986,-5.5736,-5.4032,-5.2528,-5.2165,-5.1638,-5.1386,-5.1884,-5.2442,-5.2904,-5.2827,-5.4605,-5.6508,-5.7613,-6.0339,-6.3028,-9.1141,-9.3302,-9.075,-9.1141,-9.3302,-9.075,-8.8937,-8.7686,-8.7686,-8.6959,-8.5796,-8.5767,-8.5107,-8.4352,-8.6407,-8.7425,-8.7744,-8.8821,-8.9315,-8.9088,-8.5717,-8.4662,-8.5214,-8.3138,-8.2393,-8.2986,-8.2102,-8.1683,-8.1653,-8.0328,-7.9834,-8.0066,-7.9834,-7.87,-7.6809,0.0,0.0,0.0,-7.1138,-7.0797,-7.0417,-6.8404,-6.68,-6.5627,-6.5531,0.0,-6.4166,-6.5026,-6.4821,-6.339,-6.2059,0.0,0.0,0.0,0.0,0.0,0.0,0.0,0.0,0.0,0.0,0.0,-4.9008,-5.0524,-5.1046,-5.5905,-5.8084,-5.6073,-6.0057,-6.2965,-6.3285,-6.3518,-6.3344,-6.2587,-6.2442,-6.2123,-6.1368,-6.1252,-6.1223,-6.1223,-6.1223,-6.1223,-6.1223,-6.1223,-6.1223,-6.1223,-6.1223,-6.1216,-6.1211,-6.0852,-5.9897,-5.8138,-5.736,-5.7136,-5.7161,-5.7551,-5.8136,-5.8046,-5.6724,-5.588,-5.5689,-5.3966,-5.2594,-5.1948,-5.2046,-5.211,-5.211,-5.2238,-5.2681,-5.3193,-5.4944,-5.6841,-5.8789,-6.2124,-6.4763,-8.8575,-8.8904,-8.8436,-8.8546,-8.8875,-8.8517,-8.757,-8.6378,-8.6407,-8.5572,-8.441,-8.441,-8.4294,-8.4177,-8.4497,-8.5301,-8.6378,-8.6552,-8.6639,-8.6552,-8.4904,-8.3731,-8.2847,-8.145,-8.0183,-7.9281,-7.9107,-7.899,-7.8961,-7.7711,-7.7682,-7.87,-7.7682,-7.6955,-7.6477,-7.4618,-7.1749,-6.7914,-6.9922,-7.1429,-7.2314,-7.2036,-7.029,-6.7217,-7.099,-7.1183,-6.6909,-7.0895,-7.0108,-6.368,-6.1981,-6.0457,-5.8474,-5.3559,-5.0317,0.0,-4.5693,0.0,0.0,0.0,0.0,0.0,0.0,0.0,0.0,-5.0094,-5.0617,-4.9164,-5.6602,-6.0176,-5.7091,-5.7818,-5.8836,-5.9679,-5.9795,-6.0232,-6.1106,-6.1223,-6.1223,-6.1223,-6.1223,-6.1223,-6.1133,-6.1223,-6.1223,-6.1216,-6.1097,-6.0809,-6.0878,-5.9944,-5.9313,-5.9019,-5.7899,-5.7422,-5.7508,-5.8917,-5.9371,-5.7585,-5.7375,-5.7177,-5.4839,-5.4013,-5.3357,-5.2344,-5.246,-5.2891,-5.2922,-5.3455,-5.3949,-5.4061,-5.6888,-5.9505,-6.0649,-6.3212,-6.5406,-9.0222,-9.1601,-8.9073,-8.8035,-8.8035,-8.8035,-8.7715,-8.7192,-8.7192,-8.6872,-8.6261,-8.4758,-8.3364,-8.2248,-8.3538,-8.4497,-8.502,-8.5746,-8.5659,-8.4962,-8.376,-8.2858,-8.2381,-8.11,-8.0503,-8.0693,-7.9194,-7.8176,-7.7449,-7.6169,-7.5442,-7.5297,-7.4744,-7.233,-6.8312,-6.9829,-7.0178,-6.9282,-7.0388,-7.1836,-7.3697,-7.3755,-7.297,-7.1341,-7.2767,-7.2505,-7.0294,-7.2359,-7.1371,-6.6717,-6.5176,-6.3314,-6.0697,-5.1249,-4.6547,0.0,0.0,0.0,0.0,0.0,0.0,0.0,0.0,0.0,0.0,0.0,-4.3236,-4.5603,-5.3281,-5.6059,-5.112,-5.2391,-5.3748,-5.4294,-5.2373,-5.2658,-5.6596,-5.6393,-5.635,-5.7463,-5.8807,-5.9711,-5.9622,-6.0283,-6.0784,-6.1033,-5.9668,-5.8084,-5.6742,-5.7871,-5.8598,-5.8,-5.8542,-5.9088,-5.9048,-5.9983,-5.9951,-5.8165,-5.7508,-5.6618,-5.4446,-5.3395,-5.2838,-5.2658,-5.283,-5.3189,-5.3663,-5.3999,-5.4358,-5.5114,-5.7934,-6.0411,-6.1029,-6.3503,-6.5715,-9.169,-9.3348,-8.6915,-8.4942,-8.6051,-8.5525,-8.6029,-8.7076,-8.6814,-8.6523,-8.6116,-8.4167,-8.123,-7.7769,-7.8787,-8.0138,-8.194,-8.3295,-8.3916,-8.4119,-8.3556,-8.2992,-8.2381,-8.1666,-8.1695,-8.2207,-7.9747,-7.7885,-7.6506,-7.4686,-7.2621,-7.0527,-7.012,-6.7005,-6.16,-6.5145,-6.8433,-7.0876,-7.1196,-7.2418,-7.4541,-7.4948,-7.5093,-7.5093,-7.4163,-7.3639,-7.3639,-7.3057,-7.172,-6.9538,-6.6165,-6.2995,-6.0002,-4.8001,0.0,0.0,0.0,0.0,0.0,0.0,0.0,0.0,0.0,-3.5269,-2.6119,0.0,-3.6858,0.0,-4.9241,-5.1771,-4.7805,-4.8305,0.0,0.0,-4.5416,-4.4875,-5.014,-5.0635,-5.1317,-5.3029,-5.5918,-5.7749,-5.7616,-5.8535,-5.9527,-6.0303,-5.8465,-5.6184,-5.3928,-5.6477,-5.8196,-5.713,-5.8263,-5.961,-5.9474,-5.961,-5.9051,-5.7703,-5.6519,-5.5372,-5.4026,-5.2869,-5.246,-5.316,-5.3455,-5.3801,-5.4358,-5.4634,-5.4949,-5.5579,-5.846,-6.1042,-6.1102,-6.3617,-6.585,-9.0838,-9.0073,-7.8164,-7.5975,-8.0094,-7.8286,-8.0183,-8.4294,-8.3371,-8.2236,-8.1026,-8.0897,-7.6722,-6.9742,-6.6336,0.0,-7.5442,-7.678,-7.9776,-8.4177,-8.5252,-8.4603,-8.2527,-8.3411,-8.3382,-8.2381,-7.9747,-7.7856,-7.639,-7.297,-6.8753,-6.4042,-6.2704,-6.1862,-6.1281,-6.1629,-6.4885,-7.0789,-7.1981,-7.3232,-7.4599,-7.582,-7.646,-7.6419,-7.6303,-7.6286,-7.6227,-7.3988,-7.2098,-7.0527,-6.1657,-5.4793,-5.0849,0.0,0.0,0.0,0.0,0.0,0.0,0.0,0.0,0.0,0.0,0.0,0.0,0.0,0.0,0.0,-4.3924,0.0,-4.9341,-4.6797,0.0,0.0,0.0,-3.8938,-4.2015,-4.5465,-4.7991,-4.8973,0.0,0.0,-5.5479,-5.6002,-5.6918,-5.8506,-5.849,-5.7807,-5.6305,-5.7316,-5.8016,-5.6678,-5.6618,-5.6752,-5.7087,-5.6854,-5.6226,-5.481,-5.4282,-5.3993,-5.3271,-5.2949,-5.3346,-5.3999,-5.4626,-5.5033,-5.5084,-5.5658,-5.621,-5.6233,-5.8842,-6.1054,-6.1269,-6.3908,-6.6199,-8.242,-7.5164,-6.9014,-6.8576,-7.182,-6.9862,-7.2424,-7.7819,-7.6203,-7.4715,-7.3465,-7.1894,-6.7822,-6.1918,-5.8807,0.0,0.0,0.0,-7.0876,-7.5151,-7.7129,-7.8758,-8.0037,-8.0532,-8.0125,-7.8816,-7.7042,-7.5122,-7.3145,-7.1661,-6.3693,-4.9936,0.0,0.0,-4.9978,-5.6625,-6.2529,-6.7299,-7.0905,-7.4104,-7.6896,-7.7507,-7.7798,-7.7769,-7.7013,-7.5849,-7.4308,-7.3261,-6.9655,-6.3169,-5.7492,-5.1245,0.0,0.0,0.0,0.0,0.0,0.0,0.0,0.0,0.0,0.0,0.0,-2.5879,-2.0971,0.0,0.0,0.0,-3.0729,-3.1626,-3.4285,-3.7746,0.0,0.0,0.0,0.0,0.0,0.0,0.0,-4.2387,-4.7424,-5.1188,-5.2674,-5.304,-5.3495,-5.4407,-5.4514,-5.3988,-5.2574,0.0,-5.6138,-5.6987,-5.6677,-5.6536,-5.6987,-5.5387,-5.3861,-5.3199,-5.3484,-5.341,-5.2413,-5.3084,-5.4027,-5.4653,-5.5042,-5.5343,-5.5836,-5.6128,-5.6471,-5.6853,-5.9356,-6.1527,-6.1934,-6.4372,-6.6561,-7.0852,0.0,0.0,0.0,0.0,-6.1558,-6.4579,-7.0558,-6.8412,-6.6497,-6.4684,-6.2495,0.0,0.0,0.0,0.0,0.0,0.0,-6.4451,-6.9422,-7.2841,-7.5849,-7.8496,-7.8147,-7.7507,-7.6448,-7.4163,-7.1341,-6.8142,-6.5384,-5.576,-4.0077,0.0,0.0,0.0,0.0,-6.005,-6.5822,-7.1116,-7.5529,-7.899,-7.9078,-7.8903,-7.8525,-7.6576,-7.4453,-7.2243,-6.9713,-6.4623,-5.6764,-5.0797,0.0,0.0,0.0,0.0,0.0,0.0,0.0,0.0,0.0,0.0,0.0,0.0,0.0,0.0,0.0,0.0,0.0,0.0,0.0,-2.5384,-3.1255,-3.3712,0.0,0.0,0.0,0.0,0.0,0.0,0.0,0.0,0.0,-4.7705,-4.9297,-5.09,0.0,0.0,-5.2801,-5.0917,-5.2995,-5.4815,-5.5081,-5.4583,0.0,-5.4322,-5.2665,-5.1385,-5.1496,-5.2457,-5.2428,-5.0254,-5.1673,-5.2936,-5.2216,-5.3658,-5.4928,-5.5113,-5.412,-5.313,-5.3707,-5.5833,-5.784,-5.8482,-6.1513,-6.415,0.0,0.0,0.0,0.0,0.0,0.0,0.0,0.0,-6.0316,-5.7562,0.0,-5.3262,0.0,0.0,0.0,0.0,0.0,-5.5311,0.0,0.0,-7.5212,-7.8351,-7.8205,-7.7013,-7.6547,-7.6245,-7.1312,-6.6278,-6.0961,-5.1975,0.0,0.0,0.0,0.0,0.0,0.0,-5.7169,-6.7387,-7.3412,-7.774,-8.027,-8.0386,-7.9805,-7.8525,-7.489,-7.2272,-7.0673,-6.2646,-5.6735,-5.3708,-4.065,0.0,0.0,0.0,0.0,0.0,0.0,0.0,0.0,0.0,0.0,0.0,0.0,0.0,0.0,0.0,0.0,0.0,0.0,0.0,0.0,-2.9847,0.0,0.0,0.0,0.0,0.0,0.0,0.0,0.0,0.0,0.0,-4.0007,-4.4676,-4.9709,-5.3397,0.0,0.0,0.0,0.0,-5.4662,-5.0319,-4.9164,-4.8478,-4.72,-4.7927,-4.8846,-4.915,0.0,0.0,-4.6699,-4.8476,-4.9357,-4.5837,-5.0192,-5.3733,-5.2336,-4.8084,-4.5234,-4.5298,-4.693,-4.8102,-4.8665,-5.3536,-5.7887,0.0,0.0,0.0,0.0,0.0,0.0,0.0,0.0,0.0,-4.6969,0.0,-4.284,0.0,0.0,0.0,0.0,0.0,0.0,0.0,0.0,-6.0698,-6.3883,-6.5649,-6.7107,-6.5699,0.0,-5.8952,-5.2932,0.0,0.0,0.0,0.0,0.0,0.0,0.0,0.0,-5.6054,-6.3177,-7.3096,-7.932,-8.1641,-8.177,-8.1159,-7.9849,-7.6867,-7.076,-6.125,-5.7114,-5.2281,0.0,0.0,0.0,0.0,0.0,0.0,0.0,0.0,0.0,0.0,0.0,0.0,0.0,0.0,0.0,0.0,0.0,0.0,0.0,0.0,0.0,0.0,0.0,-2.9177,0.0,0.0,0.0,0.0,0.0,0.0,0.0,0.0,0.0,-3.542,-4.0577,-4.5956,-5.0408,-5.253,-5.3678,-5.3716,0.0,0.0,0.0,0.0,0.0,0.0,0.0,-4.4846,-4.4007,-4.1227,-3.9345,-4.0146,-4.3932,-4.654,-4.5312,0.0,0.0,-3.9985,-3.7618,-3.7246,-3.7591,-3.9986,-4.2007,-4.2302,-4.4931,-4.7413,0.0,0.0,0.0,0.0,0.0,0.0,0.0,0.0,0.0,-3.7338,-3.586,0.0,0.0,0.0,0.0,0.0,0.0,0.0,0.0,0.0,0.0,0.0,-5.7414,-5.8117,0.0,0.0,0.0,0.0,0.0,0.0,0.0,0.0,0.0,0.0,0.0,0.0,-5.6183,-6.2706,-7.4925,-8.248,-8.4764,-8.4311,-8.2939,-8.0759,-7.7627,-6.9771,-5.6683,0.0,0.0,0.0,0.0,0.0,0.0,0.0,0.0,0.0,0.0,0.0,0.0,0.0,0.0,0.0,0.0,0.0,0.0,0.0,0.0,0.0,0.0,0.0,0.0,0.0,-2.7202,0.0,0.0,0.0,0.0,0.0,0.0,0.0,0.0,0.0,0.0,0.0,-4.0782,-4.6305,-4.9405,-5.1829,-5.3498,-5.3976,-5.4483,0.0,0.0,0.0,0.0,0.0,0.0,0.0,0.0,0.0,0.0,0.0,0.0,0.0,0.0,-4.1278,-3.186,-2.9592,-2.9292,-2.9667,0.0,0.0,0.0,0.0,0.0,0.0,0.0,0.0,0.0,0.0,0.0,0.0,0.0,0.0,0.0,0.0,0.0,0.0,-2.4883,0.0,0.0,0.0,0.0,0.0,0.0,0.0,0.0,0.0,0.0,0.0,0.0,0.0,0.0,0.0,0.0,0.0,0.0,0.0,0.0,0.0,0.0,-5.7403,-6.6063,-7.8953,-8.6986,-8.9561,-8.8027,-8.5251,-8.1332,-7.6949,-6.9282,-5.7841,0.0,0.0,0.0,0.0,0.0,0.0,0.0,0.0,0.0,0.0,0.0,0.0,0.0,0.0,0.0,0.0,0.0,0.0,0.0,0.0,0.0,0.0,0.0,0.0,0.0,0.0,-2.5474,-2.925,-3.0882,0.0,0.0,0.0,0.0,0.0,0.0,0.0,0.0,0.0,0.0,-4.7031,-5.1047,-5.2529,-5.3501,-5.3478,-5.1791,-4.9932,-4.8737,-4.898,-4.9845,-4.8761,0.0,0.0,0.0,0.0,0.0,0.0,0.0,0.0,0.0,0.0,0.0,0.0,0.0,0.0,0.0,0.0,0.0,0.0,0.0,0.0,0.0,0.0,0.0,0.0,0.0,0.0,0.0,0.0,0.0,0.0,0.0,0.0,0.0,0.0,0.0,0.0,0.0,0.0,0.0,0.0,0.0,0.0,0.0,0.0,0.0,0.0,0.0,0.0,0.0,0.0,0.0,0.0,0.0,0.0,-5.9016,-6.6325,-8.034,-8.8228,-8.976,-8.9302,-8.6563,-8.1377,-7.7389,-6.9826,0.0,0.0,0.0,0.0,0.0,0.0,0.0,0.0,0.0,0.0,0.0,0.0,0.0,0.0,0.0,0.0,0.0,0.0,0.0,0.0,0.0,0.0,0.0,0.0,0.0,0.0,0.0,0.0,-3.5854,-3.5253,-3.0022,0.0,0.0,0.0,0.0,0.0,0.0,0.0,0.0,0.0,0.0,-5.0767,-5.3631,-5.4013,-5.3871,-5.3286,-5.2702,-5.1998,-5.0974,-5.0243,-4.845,-4.4577,0.0,0.0,0.0,0.0,0.0,0.0,0.0,0.0,0.0,0.0,0.0,0.0,0.0,0.0,0.0,0.0,0.0,0.0,0.0,0.0,0.0,0.0,0.0,0.0,0.0,0.0,0.0,0.0,0.0,0.0,0.0,0.0,0.0,0.0,0.0,0.0,0.0,0.0,0.0,0.0,0.0,0.0,0.0,0.0,0.0,0.0,0.0,0.0,0.0,0.0,0.0,0.0,0.0,-6.0068,-6.7553,-8.184,-9.0154,-9.1797,-9.1201,-8.8174,-8.2559,-7.7976,-6.8909,0.0,0.0,0.0,0.0,0.0,0.0,0.0,0.0,0.0,0.0,0.0,0.0,0.0,0.0,0.0,0.0,0.0,0.0,0.0,0.0,0.0,0.0,0.0,0.0,0.0,0.0,0.0,0.0,-3.3655,-3.3961,-3.0784,0.0,0.0,0.0,0.0,0.0,0.0,0.0,0.0,0.0,0.0,-4.776,-5.0496,-5.1669,0.0,0.0,-5.3125,-5.2429,-5.2947,-5.2478,-4.985,-4.34,-3.9842,0.0,0.0,0.0,0.0,0.0,0.0,0.0,0.0,0.0,0.0,0.0,0.0,0.0,0.0,0.0,0.0,0.0,0.0,0.0,0.0,0.0,0.0,0.0,0.0,0.0,0.0,0.0,0.0,0.0,0.0,0.0,0.0,0.0,0.0,0.0,0.0,0.0,0.0,0.0,0.0,0.0,0.0,0.0,0.0,0.0,0.0,0.0,0.0,0.0,0.0,0.0,0.0,0.0,-6.9167,-8.3415,-9.2193,-9.4928,-9.3585,-9.0003,-8.4484,-7.8872,-6.7471,0.0,0.0,0.0,0.0,0.0,0.0,0.0,0.0,0.0,0.0,0.0,0.0,0.0,0.0,0.0,0.0,0.0,0.0,0.0,0.0,0.0,0.0,0.0,0.0,0.0,0.0,0.0,0.0,0.0,0.0,0.0,0.0,0.0,0.0,0.0,0.0,0.0,0.0,0.0,0.0,0.0,-4.3427,-4.5204,-4.7653,-5.0505,0.0,0.0,-5.0459,-5.3966,-5.5139,-5.1924,-4.0475,0.0,0.0,0.0,0.0,0.0,0.0,0.0,0.0,0.0,0.0,0.0,0.0,0.0,0.0,0.0,0.0,0.0,0.0,0.0,0.0,0.0,0.0,0.0,0.0,0.0,0.0,0.0,0.0,0.0,0.0,0.0,0.0,0.0,0.0,0.0,0.0,0.0,0.0,0.0,0.0,0.0,0.0,0.0,0.0,0.0,0.0,0.0,0.0,0.0,0.0,0.0,0.0,0.0,0.0,-6.7665,-8.1968,-9.0779,-9.3515,-9.4239,-9.1293,-8.4632,-8.0964,0.0,0.0,0.0,0.0,0.0,0.0,0.0,0.0,0.0,0.0,0.0,0.0,0.0,0.0,0.0,0.0,0.0,0.0,0.0,0.0,0.0,0.0,0.0,0.0,0.0,0.0,0.0,-2.0854,0.0,0.0,0.0,0.0,0.0,0.0,0.0,0.0,0.0,0.0,0.0,0.0,0.0,0.0,-4.6577,-5.0347,-4.9466,-4.8958,0.0,0.0,-4.8279,-4.7992,-4.9075,-4.7711,0.0,0.0,0.0,0.0,0.0,0.0,0.0,0.0,0.0,0.0,0.0,0.0,0.0,0.0,0.0,0.0,0.0,0.0,0.0,0.0,0.0,0.0,0.0,0.0,0.0,0.0,0.0,0.0,0.0,0.0,0.0,0.0,0.0,0.0,0.0,0.0,0.0,0.0,0.0,0.0,0.0,0.0,0.0,0.0,0.0,0.0,0.0,0.0,0.0,0.0,0.0,0.0,0.0,0.0,-5.5895,-6.7008,-7.891,-8.7689,-9.2891,-9.4528,-9.2105,-8.5525,-8.2043,-7.1555,0.0,0.0,0.0,0.0,0.0,0.0,0.0,0.0,0.0,0.0,0.0,0.0,0.0,0.0,0.0,0.0,0.0,0.0,0.0,0.0,0.0,0.0,0.0,0.0,0.0,0.0,0.0,0.0,0.0,0.0,0.0,0.0,0.0,0.0,0.0,0.0,0.0,0.0,0.0,0.0,0.0,0.0,-4.8665,-4.6601,0.0,0.0,0.0,-4.622,-4.697,0.0,0.0,0.0,0.0,0.0,0.0,0.0,0.0,0.0,0.0,0.0,0.0,0.0,0.0,0.0,0.0,0.0,0.0,0.0,0.0,0.0,0.0,0.0,0.0,0.0,0.0,0.0,0.0,0.0,0.0,0.0,0.0,0.0,0.0,0.0,0.0,0.0,0.0,0.0,0.0,0.0,0.0,0.0,0.0,0.0,0.0,0.0,0.0,0.0,0.0,0.0,0.0,0.0,0.0,0.0,0.0,0.0,-6.6409,-7.6046,-8.475,-9.2259,-9.414,-9.2358,-8.6889,-8.2496,-7.2058,0.0,0.0,0.0,0.0,0.0,0.0,0.0,0.0,0.0,0.0,0.0,0.0,0.0,0.0,0.0,0.0,0.0,0.0,0.0,0.0,0.0,0.0,0.0,0.0,0.0,0.0,0.0,0.0,0.0,0.0,0.0,0.0,0.0,0.0,0.0,0.0,0.0,0.0,0.0,0.0,0.0,-4.5137,-4.4383,-4.2148,-4.1036,0.0,0.0,-4.3467,-4.7175,-4.676,0.0,0.0,0.0,0.0,0.0,0.0,0.0,0.0,0.0,0.0,0.0,0.0,0.0,0.0,0.0,0.0,0.0,0.0,0.0,0.0,0.0,0.0,0.0,0.0,0.0,0.0,0.0,0.0,0.0,0.0,0.0,0.0,0.0,0.0,0.0,0.0,0.0,0.0,0.0,0.0,0.0,0.0,0.0,0.0,0.0,0.0,0.0,0.0,0.0,0.0,0.0,0.0,0.0,0.0,0.0,0.0,-6.4313,-7.8645,-8.7317,-8.9629,-9.2226,-9.1371,-8.6823,-8.2416,-7.2485,0.0,0.0,0.0,0.0,0.0,0.0,0.0,0.0,0.0,0.0,0.0,0.0,0.0,0.0,0.0,0.0,0.0,0.0,0.0,0.0,0.0,0.0,0.0,0.0,0.0,0.0,0.0,0.0,0.0,0.0,0.0,0.0,0.0,0.0,0.0,0.0,0.0,0.0,0.0,0.0,0.0,-4.392,-4.7115,-4.3074,0.0,0.0,0.0,0.0,-3.9078,-3.6975,0.0,0.0,0.0,0.0,0.0,0.0,0.0,0.0,0.0,0.0,0.0,0.0,0.0,0.0,0.0,0.0,0.0,0.0,0.0,0.0,0.0,0.0,0.0,0.0,0.0,0.0,0.0,0.0,0.0,0.0,0.0,0.0,0.0,0.0,0.0,0.0,0.0,0.0,0.0,0.0,0.0,0.0,0.0,0.0,0.0,0.0,0.0,0.0,0.0,0.0,0.0,0.0,0.0,0.0,0.0,0.0,-6.6252,-7.7025,-8.4815,-8.9431,-9.1016,-9.0144,-8.6724,-8.2395,-7.263,0.0,0.0,0.0,0.0,0.0,0.0,0.0,0.0,0.0,0.0,0.0,0.0,0.0,0.0,0.0,0.0,0.0,0.0,0.0,0.0,0.0,0.0,0.0,0.0,0.0,0.0,0.0,0.0,0.0,0.0,0.0,0.0,0.0,0.0,0.0,0.0,0.0,0.0,0.0,0.0,-4.0654,-4.1832,-4.4867,0.0,0.0,0.0,0.0,0.0,0.0,-3.4037,-3.1627,0.0,0.0,0.0,0.0,0.0,0.0,0.0,0.0,0.0,0.0,0.0,0.0,0.0,0.0,0.0,0.0,0.0,0.0,0.0,0.0,0.0,0.0,0.0,0.0,0.0,0.0,0.0,0.0,0.0,0.0,0.0,0.0,0.0,0.0,0.0,0.0,0.0,0.0,0.0,0.0,0.0,0.0,0.0,0.0,0.0,0.0,0.0,0.0,0.0,0.0,0.0,0.0,0.0,0.0,0.0,-6.7981,-7.3978,-8.1291,-8.9966,-9.059,-8.9674,-8.7278,-8.2912,-7.3107,-5.7643,0.0,0.0,0.0,0.0,0.0,0.0,0.0,0.0,0.0,0.0,0.0,0.0,0.0,0.0,0.0,0.0,0.0,0.0,0.0,0.0,0.0,0.0,0.0,0.0,0.0,0.0,0.0,0.0,0.0,0.0,0.0,0.0,0.0,0.0,0.0,0.0,0.0,0.0,0.0,-3.8785,-3.9104,0.0,0.0,0.0,0.0,0.0,0.0,0.0,0.0,-3.0724,0.0,0.0,0.0,0.0,0.0,0.0,0.0,0.0,0.0,0.0,0.0,0.0,0.0,0.0,0.0,0.0,0.0,0.0,0.0,0.0,0.0,0.0,0.0,0.0,0.0,0.0,0.0,0.0,0.0,0.0,0.0,0.0,0.0,0.0,0.0,0.0,0.0,0.0,0.0,0.0,0.0,0.0,0.0,0.0,0.0,0.0,0.0,0.0,0.0,0.0,0.0,0.0,0.0,0.0,0.0,0.0,-7.2061,-8.1239,-8.9342,-9.1336,-9.1446,-8.9648,-8.5035,-7.4911,-5.9025,0.0,0.0,0.0,0.0,0.0,0.0,0.0,0.0,0.0,0.0,0.0,0.0,0.0,0.0,0.0,0.0,0.0,0.0,0.0,0.0,0.0,0.0,0.0,0.0,0.0,0.0,0.0,0.0,0.0,0.0,0.0,0.0,0.0,0.0,0.0,0.0,0.0,0.0,-2.7326,-3.2033,0.0,0.0,0.0,0.0,0.0,0.0,0.0,0.0,-2.8274,0.0,0.0,0.0,0.0,0.0,0.0,0.0,0.0,0.0,0.0,0.0,0.0,0.0,0.0,0.0,0.0,0.0,0.0,0.0,0.0,0.0,0.0,0.0,0.0,0.0,0.0,0.0,0.0,0.0,0.0,0.0,0.0,0.0,0.0,0.0,0.0,0.0,0.0,0.0,0.0,0.0,0.0,0.0,0.0,0.0,0.0,0.0,0.0,0.0,0.0,0.0,0.0,0.0,0.0,0.0,0.0,0.0,0.0,-8.175,-9.0539,-9.1826,-9.1683,-9.0093,-8.4287,-7.4369,0.0,0.0,0.0,0.0,0.0,0.0,0.0,0.0,0.0,0.0,0.0,0.0,0.0,0.0,0.0,0.0,0.0,0.0,0.0,0.0,0.0,0.0,0.0,0.0,0.0,0.0,0.0,0.0,0.0,0.0,0.0,0.0,0.0,0.0,0.0,0.0,0.0,0.0,0.0,0.0,0.0,0.0,0.0,0.0,0.0,0.0,0.0,0.0,0.0,0.0,0.0,0.0,0.0,0.0,0.0,0.0,0.0,0.0,0.0,0.0,0.0,0.0,0.0,0.0,0.0,0.0,0.0,0.0,0.0,0.0,0.0,0.0,0.0,0.0,0.0,0.0,0.0,0.0,0.0,0.0,0.0,0.0,0.0,0.0,0.0,0.0,0.0,0.0,0.0,0.0,0.0,0.0,0.0,0.0,0.0,0.0,0.0,0.0,0.0,0.0,0.0,0.0,0.0,0.0,0.0,0.0,0.0,0.0,-8.0631,-9.0898,-9.2081,-9.171,-9.0003,-8.272,-7.2863,0.0,0.0,0.0,0.0,0.0,0.0,0.0,0.0,0.0,0.0,0.0,0.0,0.0,0.0,0.0,0.0,0.0,0.0,0.0,0.0,0.0,0.0,0.0,0.0,0.0,0.0,0.0,0.0,0.0,0.0,0.0,0.0,0.0,0.0,0.0,0.0,0.0,0.0,0.0,0.0,0.0,0.0,0.0,0.0,0.0,0.0,0.0,0.0,-2.6032,0.0,0.0,0.0,0.0,0.0,0.0,0.0,0.0,0.0,0.0,0.0,0.0,0.0,0.0,0.0,0.0,0.0,0.0,0.0,0.0,0.0,0.0,0.0,0.0,0.0,0.0,0.0,0.0,0.0,0.0,0.0,0.0,0.0,0.0,0.0,0.0,0.0,0.0,0.0,0.0,0.0,0.0,0.0,0.0,0.0,0.0,0.0,0.0,0.0,0.0,0.0,0.0,0.0,0.0,0.0,0.0,0.0,0.0,0.0,-7.5532,-8.864,-9.2066,-9.2286,-8.9258,-8.1446,-7.0799,0.0,0.0,0.0,0.0,0.0,0.0,0.0,0.0,0.0,0.0,0.0,0.0,0.0,0.0,0.0,0.0,0.0,0.0,0.0,0.0,0.0,0.0,0.0,0.0,0.0,0.0,0.0,0.0,0.0,0.0,0.0,0.0,0.0,0.0,0.0,0.0,0.0,0.0,0.0,0.0,0.0,0.0,0.0,0.0,0.0,0.0,0.0,0.0,0.0,0.0,0.0,0.0,0.0,0.0,0.0,0.0,0.0,0.0,0.0,0.0,0.0,0.0,0.0,0.0,0.0,0.0,0.0,0.0,0.0,0.0,0.0,0.0,0.0,0.0,0.0,0.0,0.0,0.0,0.0,0.0,0.0,0.0,0.0,0.0,0.0,0.0,0.0,0.0,0.0,0.0,0.0,0.0,0.0,0.0,0.0,0.0,0.0,0.0,0.0,0.0,0.0,0.0,0.0,0.0,0.0,0.0,0.0,0.0,-7.2621,-8.467,-9.083,-9.0367,-8.2941,-7.3921,-6.4292,0.0,0.0,0.0,0.0,0.0,0.0,0.0,0.0,0.0,0.0,0.0,0.0,0.0,0.0,0.0,0.0,0.0,0.0,0.0,0.0,0.0,0.0,0.0,0.0,0.0,0.0,0.0,0.0,0.0,0.0,0.0,0.0,0.0,0.0,0.0,0.0,0.0,0.0,0.0,0.0,0.0,0.0,0.0,0.0,0.0,0.0,0.0,0.0,0.0,0.0,0.0,0.0,0.0,0.0,0.0,0.0,0.0,0.0,0.0,0.0,0.0,0.0,0.0,0.0,0.0,0.0,0.0,0.0,0.0,0.0,0.0,0.0,0.0,0.0,0.0,0.0,0.0,0.0,0.0,0.0,0.0,0.0,0.0,0.0,0.0,0.0,0.0,0.0,0.0,0.0,0.0,0.0,0.0,0.0,0.0,0.0,0.0,0.0,0.0,0.0,0.0,0.0,0.0,0.0,0.0,0.0,0.0,0.0,0.0,-7.9766,-8.6924,-8.5981,-7.66,-6.6841,-5.7864,0.0,0.0,0.0,0.0,0.0,0.0,0.0,0.0,0.0,0.0,0.0,0.0,0.0,0.0,0.0,0.0,0.0,0.0,0.0,0.0,0.0,0.0,0.0,0.0,0.0,0.0,0.0,0.0,0.0,0.0,0.0,0.0,0.0,0.0,0.0,0.0,0.0,0.0,0.0,0.0,0.0,0.0,0.0,0.0,0.0,0.0,0.0,0.0,0.0,0.0,0.0,0.0,0.0,0.0,0.0,0.0,0.0,0.0,0.0,0.0,0.0,0.0,0.0,0.0,0.0,0.0,0.0,0.0,0.0,0.0,0.0,0.0,0.0,0.0,0.0,0.0,0.0,0.0,0.0,0.0,0.0,0.0,0.0,0.0,0.0,0.0,0.0,0.0,0.0,0.0,0.0,0.0,0.0,0.0,0.0,0.0,0.0,0.0,0.0,0.0,0.0,0.0,0.0,0.0,0.0,0.0,0.0,0.0,0.0,-7.4187,-7.9197,-7.8473,-7.1763,-6.2409,-5.299,0.0,0.0,0.0,0.0,0.0,0.0,0.0,0.0,0.0,0.0,0.0,0.0,0.0,0.0,0.0,0.0,0.0,0.0,0.0,0.0,0.0,0.0,0.0,0.0,0.0,0.0,0.0,0.0,0.0,0.0,0.0,0.0,0.0,0.0,0.0,0.0,0.0,0.0,0.0,0.0,0.0,0.0,0.0,0.0,0.0,0.0,0.0,0.0,0.0,0.0,0.0,0.0,0.0,0.0,0.0,0.0,0.0,0.0,0.0,0.0,0.0,0.0,0.0,0.0,0.0,0.0,0.0,0.0,0.0,0.0,0.0,0.0,0.0,0.0,0.0,0.0,0.0,0.0,0.0,0.0,0.0,0.0,0.0,0.0,0.0,0.0,0.0,0.0,0.0,0.0,0.0,0.0,0.0,0.0,0.0,0.0,0.0,0.0,0.0,0.0,0.0,0.0,0.0,0.0,0.0,0.0,0.0,0.0,0.0,-5.9816,-6.3824,-6.5018,-6.2826,-5.4187,-4.7505,-4.3052,0.0,0.0,0.0,0.0,0.0,0.0,0.0,0.0,0.0,0.0,0.0,0.0,0.0,0.0,0.0,0.0,0.0,0.0,0.0,0.0,0.0,0.0,0.0,0.0,0.0,0.0,0.0,0.0,0.0,0.0,0.0,0.0,0.0,0.0,0.0,0.0,0.0,0.0,0.0,0.0,0.0,0.0,0.0,0.0,0.0,0.0,0.0,0.0,0.0,0.0,0.0,0.0,0.0,0.0,0.0,0.0,0.0,0.0,0.0,0.0,0.0,0.0,0.0,0.0,0.0,0.0,0.0,0.0,0.0,0.0,0.0,0.0,0.0,0.0,0.0,0.0,0.0,0.0,0.0,0.0,0.0,0.0,0.0,0.0,0.0,0.0,0.0,0.0,0.0,0.0,0.0,0.0,0.0,0.0,0.0,0.0,0.0,0.0,0.0,0.0,0.0,0.0,0.0,0.0,0.0,0.0,0.0,0.0,-5.2751,-5.6854,-5.848,-5.7005,-5.0069,-4.4355,0.0,0.0,0.0,0.0,0.0,0.0,0.0,0.0,0.0,0.0,0.0,0.0,0.0,0.0,0.0,0.0,0.0,0.0,0.0,0.0,0.0,0.0,0.0,0.0,0.0,0.0,0.0,0.0,0.0,0.0,0.0,0.0,0.0,0.0,0.0,0.0,0.0,0.0,0.0,0.0,0.0,0.0,0.0,0.0,0.0,0.0,0.0,0.0,0.0,0.0,0.0,0.0,0.0,0.0,0.0,0.0,0.0,0.0,0.0,0.0,0.0,0.0,0.0,0.0,0.0,0.0,0.0,0.0,0.0,0.0,0.0,0.0,0.0,0.0,0.0,0.0,0.0,0.0,0.0,0.0,0.0,0.0,0.0,0.0,0.0,0.0,0.0,0.0,0.0,0.0,0.0,0.0,0.0,0.0,0.0,0.0,0.0,0.0,0.0,0.0,0.0,0.0,0.0,0.0,0.0,0.0,0.0,0.0,-4.4942,-5.5505,-6.0275,-6.0165,-5.61,-5.0941,-4.4023,0.0,0.0,0.0,0.0,0.0,0.0,0.0,0.0,0.0,0.0,0.0,0.0,0.0,0.0,0.0,0.0,0.0,0.0,0.0,0.0,0.0,0.0,0.0,0.0,0.0,0.0,0.0,0.0,0.0,0.0,0.0,0.0,0.0,0.0,0.0,0.0,0.0,0.0,0.0,0.0,0.0,0.0,0.0,0.0,0.0,0.0,0.0,0.0,0.0,0.0,0.0,0.0,0.0,0.0,0.0,0.0,0.0,0.0,0.0,0.0,0.0,0.0,0.0,0.0,0.0,0.0,0.0,0.0,0.0,0.0,0.0,0.0,0.0,0.0,0.0,0.0,0.0,0.0,0.0,0.0,0.0,0.0,0.0,0.0,0.0,0.0,0.0,0.0,0.0,0.0,0.0,0.0,0.0,0.0,0.0,0.0,0.0,0.0,0.0,0.0,0.0,0.0,0.0,0.0,0.0,0.0,0.0,0.0,0.0,-4.4741,0.0,-5.0686,0.0,-4.5539,-4.02,0.0,0.0,0.0,0.0,0.0,0.0,0.0,0.0,0.0,0.0,0.0,0.0,0.0,0.0,0.0,0.0,0.0,0.0,0.0,0.0,0.0,0.0,0.0,0.0,0.0,0.0,0.0,0.0,0.0,0.0,0.0,0.0,0.0,0.0,0.0,0.0,0.0,0.0,0.0,0.0,0.0,0.0,0.0,0.0,0.0,0.0,0.0,0.0,0.0,0.0,0.0,0.0,0.0,0.0,0.0,0.0,0.0,0.0,0.0,0.0,0.0,0.0,0.0,0.0,0.0,0.0,0.0,0.0,0.0,0.0,0.0,0.0,0.0,0.0,0.0,0.0,0.0,0.0,0.0,0.0,0.0,0.0,0.0,0.0,0.0,0.0,0.0,0.0,0.0,0.0,0.0,0.0,0.0,0.0,0.0,0.0,0.0,0.0,0.0,0.0,0.0,0.0,0.0,0.0,0.0,0.0,0.0,0.0,0.0,-4.2905,-4.34,-4.64,-5.1635,-4.5093,-4.0756,0.0,0.0,0.0,0.0,0.0,0.0,0.0,0.0,0.0,0.0,0.0,0.0,0.0,0.0,0.0,0.0,0.0,0.0,0.0,0.0,0.0,0.0,0.0,0.0,0.0,0.0,0.0,0.0,0.0,0.0,0.0,0.0,0.0,0.0,0.0,0.0,0.0,0.0,0.0,0.0,0.0,0.0,0.0,0.0,0.0,0.0,0.0,0.0,0.0,0.0,0.0,0.0,0.0,0.0,0.0,0.0,0.0,0.0,0.0,0.0,0.0,0.0,0.0,0.0,0.0,0.0,0.0,0.0,0.0,0.0,0.0,0.0,0.0,0.0,0.0,0.0,0.0,0.0,0.0,0.0,0.0,0.0,0.0,0.0,0.0,0.0,0.0,0.0,0.0,0.0,0.0,0.0,0.0,0.0,0.0,0.0,0.0,0.0,0.0,0.0,0.0,0.0,0.0,0.0,0.0,0.0,0.0,0.0,0.0,0.0,-4.7681,-4.7662,-4.892,-4.8707,-4.4945,0.0,0.0,0.0,0.0,0.0,0.0,0.0,0.0,0.0,0.0,0.0,0.0,0.0,0.0,0.0,0.0,0.0,0.0,0.0,0.0,0.0,0.0,0.0,0.0,0.0,0.0,0.0,0.0,0.0,0.0,0.0,0.0,0.0,0.0,0.0,0.0,0.0,0.0,0.0,0.0,0.0,0.0,0.0,0.0,0.0,0.0,0.0,0.0,0.0,0.0,0.0,0.0,0.0,0.0,0.0,0.0,0.0,0.0,0.0,0.0,0.0,0.0,0.0,0.0,0.0,0.0,0.0,0.0,0.0,0.0,0.0,0.0,0.0,0.0,0.0,0.0,0.0,0.0,0.0,0.0,0.0,0.0,0.0,0.0,0.0,0.0,0.0,0.0,0.0,0.0,0.0,0.0,0.0,0.0,0.0,0.0,0.0,0.0,0.0,0.0,0.0,0.0,0.0,0.0,0.0,0.0,0.0,0.0,0.0,0.0,-4.831,0.0,-4.5844,-4.2244,-3.9825,-3.8748,0.0,0.0,0.0,0.0,0.0,0.0,0.0,0.0,0.0,0.0,0.0,0.0,0.0,0.0,0.0,0.0,0.0,0.0,0.0,0.0,0.0,0.0,0.0,0.0,0.0,0.0,0.0,0.0,0.0,0.0,0.0,0.0,0.0,0.0,0.0,0.0,0.0,0.0,0.0,0.0,0.0,0.0,0.0,0.0,0.0,0.0,0.0,0.0,0.0,0.0,0.0,0.0,0.0,0.0,0.0,0.0,0.0,0.0,0.0,0.0,0.0,0.0,0.0,0.0,0.0,0.0,0.0,0.0,0.0,0.0,0.0,0.0,0.0,0.0,0.0,0.0,0.0,0.0,0.0,0.0,0.0,0.0,0.0,0.0,0.0,0.0,0.0,0.0,0.0,0.0,0.0,0.0,0.0,0.0,0.0,0.0,0.0,0.0,0.0,0.0,0.0,0.0,0.0,0.0,0.0,0.0,0.0,0.0,0.0,0.0,0.0,-4.4648,-4.17,-3.9601,0.0,0.0,0.0,0.0,0.0,0.0,0.0,0.0,0.0,0.0,0.0,0.0,0.0,0.0,0.0,0.0,0.0,0.0,0.0,0.0,0.0,0.0,0.0,0.0,0.0,0.0,0.0,0.0,0.0,0.0,0.0,0.0,0.0,0.0,0.0,0.0,0.0,0.0,0.0,0.0,0.0,0.0,0.0,0.0,0.0,0.0,0.0,0.0,0.0,0.0,0.0,0.0,0.0,0.0,0.0,0.0,0.0,0.0,0.0,0.0,0.0,0.0,0.0,0.0,0.0,0.0,0.0,0.0,0.0,0.0,0.0,0.0,0.0,0.0,0.0,0.0,0.0,0.0,0.0,0.0,0.0,0.0,0.0,0.0,0.0,0.0,0.0,0.0,0.0,0.0,0.0,0.0,0.0,0.0,0.0,0.0,0.0,0.0,0.0,0.0,0.0,0.0,0.0,0.0,0.0,0.0,0.0,0.0,0.0,0.0,0.0,-4.5024,-4.473,-4.4834,0.0,-3.7333,0.0,0.0,0.0,0.0,0.0,0.0,0.0,0.0,0.0,0.0,0.0,0.0,0.0,0.0,0.0,0.0,0.0,0.0,0.0,0.0,0.0,0.0,0.0,0.0,0.0,0.0,0.0,0.0,0.0,0.0,0.0,0.0,0.0,0.0,0.0,0.0,0.0,0.0,0.0,0.0,0.0,0.0,0.0,0.0,0.0,0.0,0.0,0.0,0.0,0.0,0.0,0.0,0.0,0.0,0.0,0.0,0.0,0.0,0.0,0.0,0.0,0.0,0.0,0.0,0.0,0.0,0.0,0.0,0.0,0.0,0.0,0.0,0.0,0.0,0.0,0.0,0.0,0.0,0.0,0.0,0.0,0.0,0.0,0.0,0.0,0.0,0.0,0.0,0.0,0.0,0.0,0.0,0.0,0.0,0.0,0.0,0.0,0.0,0.0,0.0,0.0,0.0,0.0,0.0,0.0,0.0,0.0,0.0,0.0,0.0,0.0,0.0,-4.602,-4.3091,-3.566,0.0,0.0,0.0,0.0,0.0,0.0,0.0,0.0,0.0,0.0,0.0,0.0,0.0,0.0,0.0,0.0,0.0,0.0,0.0,0.0,0.0,0.0,0.0,0.0,0.0,0.0,0.0,0.0,0.0,0.0,0.0,0.0,0.0,0.0,0.0,0.0,0.0,0.0,0.0,0.0,0.0,0.0,0.0,0.0,0.0,0.0,0.0,0.0,0.0,0.0,0.0,0.0,0.0,0.0,0.0,0.0,0.0,0.0,0.0,0.0,0.0,0.0,0.0,0.0,0.0,0.0,0.0,0.0,0.0,0.0,0.0,0.0,0.0,0.0,0.0,0.0,0.0,0.0,0.0,0.0,0.0,0.0,0.0,0.0,0.0,0.0,0.0,0.0,0.0,0.0,0.0,0.0,0.0,0.0,0.0,0.0,0.0,0.0,0.0,0.0,0.0,0.0,0.0,0.0,0.0,0.0,0.0,0.0,0.0,0.0,-4.8274,-4.5032,-4.5734,-4.264,-3.5263,0.0,0.0,0.0,0.0,0.0,0.0,0.0,0.0,0.0,0.0,0.0,0.0,0.0,0.0,0.0,0.0,0.0,0.0,0.0,0.0,0.0,0.0,0.0,0.0,0.0,0.0,0.0,0.0,0.0,0.0,0.0,0.0,0.0,0.0,0.0,0.0,0.0,0.0,0.0,0.0,0.0,0.0,0.0,0.0,0.0,0.0,0.0,0.0,0.0,0.0,0.0,0.0,0.0,0.0,0.0,0.0,0.0,0.0,0.0,0.0,0.0,0.0,0.0,0.0,0.0,0.0,0.0,0.0,0.0,0.0,0.0,0.0,0.0,0.0,0.0,0.0,0.0,0.0,0.0,0.0,0.0,0.0,0.0,0.0,0.0,0.0,0.0,0.0,0.0,0.0,0.0,0.0,0.0,0.0,0.0,0.0,0.0,0.0,0.0,0.0,0.0,0.0,0.0,0.0,0.0,0.0,0.0,0.0,0.0,0.0,0.0,0.0,0.0,0.0,-3.6014,0.0,0.0,0.0,0.0,0.0,0.0,0.0,0.0,0.0,0.0,0.0,0.0,0.0,0.0,0.0,0.0,0.0,0.0,0.0,0.0,0.0,0.0,0.0,0.0,0.0,0.0,0.0,0.0,0.0,0.0,0.0,0.0,0.0,0.0,0.0,0.0,0.0,0.0,0.0,0.0,0.0,0.0,0.0,0.0,0.0,0.0,0.0,0.0,0.0,0.0,0.0,0.0,0.0,0.0,0.0,0.0,0.0,0.0,0.0,0.0,0.0,0.0,0.0,0.0,0.0,0.0,0.0,0.0,0.0,0.0,0.0,0.0,0.0,0.0,0.0,0.0,0.0,0.0,0.0,0.0,0.0,0.0,0.0,0.0,0.0,0.0,0.0,0.0,0.0,0.0,0.0,0.0,0.0,0.0,0.0,0.0,0.0,0.0,0.0,0.0,0.0,0.0,0.0,0.0,0.0,0.0,0.0,0.0,0.0,0.0,0.0,0.0,0.0,0.0,0.0,0.0,0.0,0.0,0.0,0.0,0.0,0.0,0.0,0.0,0.0,0.0,0.0,0.0,0.0,0.0,0.0,0.0,0.0,0.0,0.0,0.0,0.0,0.0,0.0,0.0,0.0,0.0,0.0,0.0,0.0,0.0,0.0,0.0,0.0,0.0,0.0,0.0,0.0,0.0,0.0,0.0,0.0,0.0,0.0,0.0,0.0,0.0,0.0,0.0,0.0,0.0,0.0,0.0,0.0,0.0,0.0,0.0,0.0,0.0,0.0,0.0,0.0,0.0,0.0,0.0,0.0,0.0,0.0,0.0,0.0,0.0,0.0,0.0,0.0,0.0,0.0,0.0,0.0,0.0,0.0,0.0,0.0,0.0,0.0,0.0,0.0,0.0,0.0,0.0,0.0,0.0,0.0,0.0,0.0,0.0,0.0,0.0,0.0,0.0,0.0,0.0,0.0,0.0,0.0,0.0,0.0,0.0,0.0,0.0,0.0,0.0,0.0,0.0,0.0,0.0,0.0,0.0,0.0,0.0,0.0,0.0,0.0,0.0,0.0,0.0,0.0,0.0,0.0,0.0,0.0,0.0,0.0,0.0,0.0,0.0,0.0,0.0,0.0,0.0,0.0,0.0,0.0,0.0,0.0,0.0,0.0,0.0,0.0,0.0,0.0,0.0,0.0,0.0,0.0,0.0,0.0,0.0,0.0,0.0,0.0,0.0,0.0,0.0,0.0,0.0,0.0,0.0,0.0,0.0,0.0,0.0,0.0,0.0,0.0,0.0,0.0,0.0,0.0,0.0,0.0,0.0,0.0,0.0,0.0,0.0,0.0,0.0,0.0,0.0,0.0,0.0,0.0,0.0,0.0,0.0,0.0,0.0,0.0,0.0,0.0,0.0,0.0,0.0,0.0,0.0,0.0,0.0,0.0,0.0,0.0,0.0,0.0,0.0,0.0,0.0,0.0,0.0,0.0,0.0,0.0,0.0,0.0,0.0,0.0,0.0,0.0,0.0,0.0,0.0,0.0,0.0,0.0,0.0,0.0,0.0,0.0,0.0,0.0,0.0,0.0,0.0,0.0,0.0,0.0,0.0,0.0,0.0,0.0,0.0,0.0,0.0,0.0,0.0,0.0,0.0,0.0,0.0,0.0,0.0,0.0,0.0,0.0,0.0,0.0,0.0,0.0,0.0,0.0,0.0,0.0,0.0,0.0,0.0,0.0,0.0,0.0,0.0,0.0,0.0,0.0,0.0,0.0,0.0,0.0,0.0,0.0,0.0,0.0,0.0,0.0,0.0,0.0,0.0,0.0,0.0,0.0,0.0,0.0,0.0,0.0,0.0,0.0,0.0,0.0,0.0,0.0,0.0,0.0,0.0,0.0,0.0,0.0,0.0,0.0,0.0,0.0,0.0,0.0,0.0,0.0,0.0,0.0,0.0,0.0,0.0,0.0,0.0,0.0,0.0,0.0,0.0,0.0,0.0,0.0,0.0,0.0,0.0,0.0,0.0,0.0,0.0,0.0,0.0,0.0,0.0,0.0,0.0,0.0,0.0,0.0,0.0,0.0,0.0,0.0,0.0,0.0,0.0,0.0,0.0,0.0,0.0,0.0,0.0,0.0,0.0,0.0,0.0,0.0,0.0,0.0,0.0,0.0,0.0,0.0,0.0,0.0,0.0,0.0,0.0,0.0,0.0,0.0,0.0,0.0,0.0,0.0,0.0,0.0,0.0,0.0,0.0,0.0,0.0,0.0,0.0,0.0,0.0,0.0,0.0,0.0,0.0,0.0,0.0,0.0,0.0,0.0,0.0,0.0,0.0,0.0,0.0,0.0,0.0,0.0,0.0,0.0,0.0,0.0,0.0,0.0,0.0,0.0,0.0,0.0,0.0,0.0,0.0,0.0,0.0,0.0,0.0,0.0,0.0,0.0,0.0,0.0,0.0,0.0,0.0,0.0,0.0,0.0,0.0,0.0,0.0,0.0,0.0,0.0,0.0,0.0,0.0,0.0,0.0,0.0,0.0,0.0,0.0,0.0,0.0,0.0,0.0,0.0,0.0,0.0,0.0,0.0,0.0,0.0,0.0,0.0,0.0,0.0,0.0,0.0,0.0,0.0,0.0,0.0,0.0,0.0,0.0,0.0,0.0,0.0,0.0,0.0,0.0,0.0,0.0,0.0,0.0,0.0,0.0,0.0,0.0,0.0,0.0,0.0,0.0,0.0,0.0,0.0,0.0,0.0,0.0,0.0,0.0,0.0,0.0,0.0,0.0,0.0,0.0,0.0,0.0,0.0,0.0,0.0,0.0,0.0,0.0,0.0,0.0,0.0,0.0,0.0,0.0,0.0,0.0,0.0,0.0,0.0,0.0,0.0,0.0,0.0,0.0,0.0,0.0,0.0,0.0,0.0,0.0,0.0,0.0,0.0,0.0,0.0,0.0,0.0,0.0,0.0,0.0,0.0,0.0,0.0,0.0,0.0,0.0,0.0,0.0,0.0,0.0,0.0,0.0,0.0,0.0,0.0,0.0,0.0,0.0,0.0,0.0,0.0,0.0,0.0,0.0,0.0,0.0,0.0,0.0,0.0,0.0,0.0,0.0,0.0,0.0,0.0,0.0,0.0,0.0,0.0,0.0,0.0,0.0,0.0,0.0,0.0,0.0,0.0,0.0,0.0,0.0,0.0,0.0,0.0,0.0,0.0,0.0,0.0,0.0,0.0,0.0,0.0,0.0,0.0,0.0,0.0,0.0,0.0,0.0,0.0,0.0,0.0,0.0,0.0,0.0,0.0,0.0,0.0,0.0,0.0,0.0,0.0,0.0,0.0,0.0,0.0,0.0,0.0,0.0,0.0,0.0,0.0,0.0,0.0,0.0,0.0,0.0,0.0,0.0,0.0,0.0,0.0,0.0,0.0,0.0,0.0,0.0,0.0,0.0,0.0,0.0,0.0,0.0,0.0,0.0,0.0,0.0,0.0,0.0,0.0,0.0,0.0,0.0,0.0,0.0,0.0,0.0,0.0,0.0,0.0,0.0,0.0,0.0,0.0,0.0,0.0,0.0,0.0,0.0,0.0,0.0,0.0,0.0,0.0,0.0,0.0,0.0,0.0,0.0,0.0,0.0,0.0,0.0,0.0,0.0,0.0,0.0,0.0,0.0,0.0,0.0,0.0,0.0,0.0,0.0,0.0,0.0,0.0,0.0,0.0,0.0,0.0,0.0,0.0,0.0,0.0,0.0,0.0,0.0,0.0,0.0,0.0,0.0,0.0,0.0,0.0,0.0,0.0,0.0,0.0,0.0,0.0,0.0,0.0,0.0,0.0,0.0,0.0,0.0,0.0,0.0,0.0,0.0,0.0,0.0,0.0,0.0,0.0,0.0,0.0,0.0,0.0,0.0,0.0,0.0,0.0,0.0,0.0,0.0,0.0,0.0,0.0,0.0,0.0,0.0,0.0,0.0,0.0,0.0,0.0,0.0,0.0,0.0,0.0,0.0,0.0,0.0,0.0,0.0,0.0,0.0,0.0,0.0,0.0,0.0,0.0,0.0,0.0,0.0,0.0,0.0,0.0,0.0,0.0,0.0,0.0,0.0,0.0,0.0,0.0,0.0,0.0,0.0,0.0,0.0,0.0,0.0,0.0,0.0,0.0,0.0,0.0,0.0,0.0,0.0,0.0,0.0,0.0,0.0,0.0,0.0,0.0,0.0,0.0,0.0,0.0,0.0,0.0,0.0,0.0,0.0,0.0,0.0,0.0,0.0,0.0,0.0,0.0,0.0,0.0,0.0,0.0,0.0,0.0,0.0,0.0,0.0,0.0,0.0,0.0,0.0,0.0,0.0,0.0,0.0,0.0,0.0,0.0,0.0,0.0,0.0]}],[{"header":{"parameterUnit":"kt","parameterCategory":2,"dx":1,"dy":1,"la1":29.587661999999998,"la2":31.0,"lo1":-88.76705300000003,"lo2":-86.6583820000003,"nx":115,"ny":88,"refTime":"2022-10-22T12:00:00:Z","depth":0,"parameterNumber":2,"parameterNumberName":"V-component_of_WINDS"},"data":[8.2982,8.6208,8.7224,8.8899,9.1113,9.1764,9.1962,9.1962,9.1962,9.1962,9.1962,9.1962,9.1962,9.1962,9.1962,9.1962,9.2049,9.2543,9.1583,9.0217,9.0129,8.9897,8.9402,8.8675,8.7425,8.7163,8.7128,8.6023,8.5236,8.6032,8.7452,8.9685,8.989,9.1597,9.4641,9.5284,9.5284,9.5284,9.5284,9.5284,9.5284,9.5284,9.5284,9.5284,9.5284,9.5284,9.5284,9.5284,9.4396,9.364,9.3479,9.3167,9.2927,9.2828,9.179,9.0618,9.0618,9.0741,9.1708,9.3701,9.5633,9.6919,9.7327,9.7752,9.8573,9.8005,9.8219,9.9286,10.0963,10.2176,10.2533,10.317,10.3384,10.3384,10.3384,10.3384,10.3384,10.3384,10.3384,10.3384,10.3384,10.3471,10.3557,10.3844,10.4387,10.4638,10.5082,10.4596,10.4101,10.3321,10.2507,10.1733,10.0888,9.961,9.8856,9.8575,9.852,9.852,9.852,9.852,9.852,9.852,9.7959,9.7361,9.6575,9.5304,9.3809,9.2216,9.1464,9.0732,8.9604,8.9296,8.9514,8.9599,8.9751,8.0027,7.9297,8.3263,8.6506,8.8812,9.1028,9.1962,9.1962,9.1962,9.1962,9.1962,9.1962,9.1962,9.1962,9.1962,9.1962,9.2136,9.2601,9.1002,8.9868,9.0275,9.0129,8.9809,8.9437,8.946,8.9006,8.764,8.5865,8.4235,8.4857,8.6461,8.9202,9.0568,9.1597,9.4147,9.5284,9.5284,9.5284,9.5284,9.5284,9.5284,9.5284,9.5284,9.5284,9.5284,9.5284,9.5284,9.5054,9.4462,9.3712,9.3055,9.193,9.124,9.147,9.0385,8.9635,8.9604,8.9998,9.0675,9.2559,9.4463,9.5834,9.632,9.7398,9.9251,9.9361,9.9005,10.0071,10.2069,10.3175,10.317,10.3384,10.3384,10.3384,10.3384,10.3384,10.3384,10.3384,10.3384,10.3384,10.3384,10.3384,10.3466,10.3425,10.3661,10.3877,10.3773,10.3248,10.245,10.1138,10.0188,9.9379,9.8894,9.8946,9.8667,9.8501,9.852,9.852,9.852,9.852,9.8445,9.8071,9.751,9.6688,9.5155,9.3659,9.2126,9.0967,8.9958,8.9199,8.8928,8.9158,8.9316,8.9425,8.9572,7.9395,7.7915,8.2537,8.5936,8.8432,9.0943,9.1962,9.1962,9.1962,9.1962,9.1962,9.1962,9.1962,9.1962,9.1962,9.1962,9.2078,9.2601,9.1031,8.9606,8.9606,8.9955,8.9693,8.914,8.9868,8.9431,8.7599,8.6145,8.4439,8.4504,8.5943,8.9202,9.0027,9.1531,9.4702,9.5284,9.5284,9.5284,9.5284,9.5284,9.5284,9.5284,9.5284,9.5284,9.5284,9.5284,9.5284,9.5185,9.4396,9.3482,9.2957,9.1371,9.0056,9.0253,8.9596,8.8667,8.8612,8.9358,8.9997,9.1316,9.3194,9.3865,9.4399,9.6111,9.8038,9.9358,9.9001,10.1106,10.3068,10.3348,10.3384,10.3384,10.3384,10.3384,10.3384,10.3384,10.3384,10.3384,10.3384,10.3384,10.3384,10.3384,10.3348,10.3312,10.2793,10.2956,10.2304,10.1782,9.9909,9.8344,9.7717,9.7124,9.7165,9.7203,9.7823,9.8172,9.8366,9.8501,9.852,9.852,9.8445,9.7809,9.6912,9.5715,9.4295,9.2463,9.1079,9.0032,8.9077,8.8683,8.8841,8.9019,8.9114,8.9233,8.9278,7.8806,7.7616,8.123,8.4629,8.7519,8.9999,9.1312,9.1962,9.1962,9.1962,9.1962,9.1962,9.1962,9.1962,9.1962,9.1962,9.1962,9.2107,9.1176,9.0042,8.9286,8.9664,8.9693,8.9373,8.9199,8.8704,8.8064,8.7046,8.5572,8.5066,8.5972,8.9409,8.989,9.1663,9.4977,9.5284,9.5284,9.5284,9.5284,9.5284,9.5284,9.5284,9.5284,9.5284,9.5152,9.5152,9.4593,9.4561,9.3673,9.2398,9.2168,9.0985,8.9037,8.8938,8.8116,8.7129,8.7583,8.845,8.932,9.07,9.2264,9.2771,9.3725,9.5103,9.6539,9.7931,9.975,10.1993,10.3384,10.3384,10.3384,10.3384,10.3384,10.3384,10.3384,10.3384,10.3384,10.3384,10.3384,10.3384,10.3384,10.3348,10.3277,10.292,10.2247,10.157,10.0927,9.9583,9.7673,9.6492,9.6005,9.5986,9.5902,9.6339,9.7142,9.7676,9.7947,9.811,9.8151,9.8366,9.852,9.7884,9.7061,9.5379,9.3435,9.1715,9.0219,8.9285,8.8928,8.8774,8.878,8.8819,8.8918,8.8971,8.8945,7.7341,7.7265,7.7641,8.0776,8.4932,8.7786,8.9913,9.1793,9.168,9.1877,9.1793,9.1877,9.1962,9.1962,9.1962,9.1962,9.1962,9.1932,9.1293,9.0071,8.9722,8.9868,9.0047,8.9872,8.9897,9.0129,8.946,8.757,8.6901,8.5837,8.6047,8.9616,8.9822,9.1663,9.4702,9.5191,9.5284,9.5284,9.5284,9.5284,9.5284,9.5284,9.5284,9.5284,9.512,9.4824,9.3837,9.2982,9.2095,9.0286,8.9399,8.9563,8.8872,8.8675,8.7919,8.7316,8.6962,8.782,8.8994,9.0115,9.1446,9.2676,9.3931,9.539,9.7065,9.8593,10.0495,10.267,10.3312,10.3384,10.3384,10.3384,10.3384,10.3384,10.3384,10.3384,10.3384,10.3384,10.3384,10.3384,10.3312,10.3104,10.2997,10.2283,10.157,10.0357,9.9251,9.7541,9.6086,9.5192,9.4983,9.5096,9.5301,9.5756,9.6503,9.6982,9.7348,9.7631,9.7676,9.7845,9.804,9.7694,9.7117,9.4781,9.2388,9.078,8.9658,8.9189,8.8741,8.8662,8.8679,8.8674,8.8674,8.8718,8.8562,7.7165,7.7165,7.7165,8.0002,8.4748,8.8724,8.9074,8.7875,8.9074,8.974,8.9913,9.1227,9.1962,9.1962,9.1962,9.1962,9.1962,9.1932,9.1729,9.0856,9.0391,9.0653,9.0653,9.0536,9.0624,8.9955,8.9053,8.7774,8.6436,8.5428,8.6047,8.9409,8.9822,9.2021,9.4085,9.4917,9.5071,9.5191,9.5191,9.5284,9.5284,9.5284,9.5284,9.5284,9.5284,9.5054,9.4593,9.4561,9.3508,9.1897,9.0385,8.9793,8.8774,8.7919,8.6998,8.6987,8.6691,8.7416,8.8315,8.9348,9.0527,9.166,9.3021,9.5065,9.7025,9.8941,10.0923,10.2583,10.3016,10.3342,10.3384,10.3384,10.3384,10.3384,10.3384,10.3384,10.3384,10.3384,10.3384,10.3384,10.3205,10.2961,10.2283,10.157,10.0682,9.904,9.7363,9.5971,9.5077,9.4399,9.441,9.4512,9.4816,9.5173,9.5605,9.6134,9.6503,9.6804,9.6859,9.7048,9.7541,9.7083,9.5847,9.3771,9.1528,9.0219,8.9115,8.8741,8.8629,8.8629,8.8645,8.8513,8.8421,8.8329,8.7843,7.7165,7.7165,7.7165,7.9199,8.2793,8.6956,8.7313,8.5024,8.6298,8.7786,8.8344,9.0114,9.1113,9.1932,9.1962,9.1962,9.1962,9.1962,9.1962,9.17,9.1118,9.1351,9.1351,9.1118,9.074,9.0129,8.9053,8.7657,8.661,8.4817,8.6047,8.8744,8.9409,9.1465,9.3112,9.3866,9.4425,9.4702,9.4425,9.4702,9.5071,9.581,9.604,9.6073,9.6073,9.558,9.5021,9.4659,9.3081,9.193,9.0714,8.9629,8.8346,8.7349,8.6691,8.6691,8.6691,8.6875,8.7416,8.8782,8.993,9.0707,9.2262,9.4474,9.6944,9.8888,10.0347,10.1616,10.2418,10.241,10.2367,10.2944,10.3384,10.3384,10.3384,10.3384,10.3384,10.3384,10.3384,10.3384,10.3384,10.2925,10.1534,10.0678,9.9254,9.7327,9.5899,9.5077,9.4399,9.4149,9.4085,9.4122,9.4409,9.4751,9.5145,9.5269,9.5672,9.5931,9.5821,9.5873,9.6046,9.5543,9.4501,9.3136,9.164,9.0219,8.8853,8.8629,8.8629,8.8629,8.8629,8.8367,8.8068,8.7656,8.7245,7.7165,7.7165,7.7165,7.7341,7.799,8.0679,8.2699,8.4353,8.4537,8.5936,8.8168,8.8344,8.9913,9.1595,9.1962,9.1962,9.1962,9.1962,9.1962,9.1845,9.17,9.1787,9.1816,9.1787,9.1554,9.0856,8.9489,8.7861,8.7686,8.5398,8.5143,8.7047,8.8564,9.0262,9.1135,9.1694,9.228,9.3396,9.3522,9.3804,9.4935,9.6121,9.6698,9.6632,9.6731,9.6303,9.5317,9.4298,9.2325,9.0549,8.9234,8.8182,8.7349,8.6757,8.6691,8.6691,8.6691,8.7238,8.782,8.8146,8.9043,8.9989,9.1686,9.4755,9.7012,9.8135,9.9485,10.0694,10.1731,10.1561,10.1561,10.2323,10.3105,10.3342,10.3342,10.3265,10.3265,10.3384,10.3384,10.3384,10.3384,10.2314,10.0927,9.9393,9.8005,9.629,9.5041,9.4363,9.4185,9.3935,9.3935,9.3937,9.4122,9.4409,9.4409,9.4514,9.4707,9.4533,9.4522,9.4337,9.417,9.387,9.2924,9.2036,9.1252,9.0369,8.9115,8.8629,8.8612,8.8629,8.8629,8.8255,8.7153,8.6817,8.6144,7.7165,7.7165,7.7165,7.8089,7.9395,7.8732,7.8831,7.9858,8.1518,8.3517,8.5846,8.7608,8.9624,9.1312,9.1962,9.1962,9.1962,9.1962,9.1962,9.1962,9.1962,9.1962,9.1962,9.1932,9.1962,9.1205,8.9548,8.8035,8.7919,8.5398,8.4803,8.5658,8.7077,8.8382,8.8915,8.9716,9.0501,9.1563,9.2666,9.2794,9.4135,9.572,9.6961,9.6731,9.6698,9.6796,9.5547,9.4462,9.3311,9.124,8.9925,8.9135,8.7481,8.6691,8.6691,8.6691,8.6691,8.6875,8.7469,8.782,8.8698,8.9557,9.1571,9.3878,9.5733,9.7541,9.8868,9.9721,10.0824,10.1079,10.1299,10.139,10.2201,10.3021,10.2944,10.2824,10.2901,10.3342,10.3384,10.3384,10.317,10.157,10.0,9.8501,9.6967,9.5576,9.4327,9.4149,9.3971,9.3935,9.3935,9.3935,9.4048,9.4158,9.4122,9.4012,9.3729,9.3248,9.2987,9.2765,9.2514,9.1755,9.1195,9.0533,8.9947,8.9366,8.8747,8.8594,8.8505,8.8505,8.8228,8.7295,8.6406,8.577,8.5209,7.7165,7.7165,7.7165,7.8089,7.9297,7.7791,7.7165,7.7441,7.9002,8.1492,8.4445,8.6145,8.8608,9.1113,9.1962,9.1962,9.1962,9.1962,9.1962,9.1962,9.1962,9.1962,9.1962,9.1962,9.1962,9.1234,8.9489,8.8035,8.8006,8.5398,8.4352,8.4302,8.5508,8.6032,8.6521,8.712,8.9409,9.06,9.11,9.2276,9.35,9.5834,9.7224,9.7027,9.7191,9.6994,9.6172,9.5383,9.3614,9.1223,9.0747,8.9399,8.7283,8.6691,8.6691,8.6691,8.6691,8.6691,8.6929,8.735,8.828,8.9745,9.138,9.317,9.5396,9.7402,9.7993,9.8602,9.9167,9.942,10.0158,10.029,10.0847,10.1722,10.2323,10.2157,10.2453,10.2901,10.3224,10.3224,10.267,10.1106,9.9857,9.8644,9.6504,9.4827,9.422,9.3971,9.3935,9.3935,9.3935,9.3935,9.3935,9.3935,9.3935,9.3937,9.3729,9.2615,9.1881,9.12,9.0175,8.9363,8.8901,8.8789,8.8474,8.827,8.8195,8.8157,8.827,8.7728,8.6767,8.5848,8.4153,8.3223,8.3088,7.7165,7.7165,7.7165,7.7265,7.7441,7.7165,7.7165,7.7265,7.7541,8.0124,8.4379,8.4748,8.7403,9.1142,9.1962,9.1962,9.1962,9.1962,9.1962,9.1962,9.1962,9.1962,9.1962,9.1962,9.1932,9.1322,8.9751,8.8326,8.7977,8.5659,8.4468,8.4438,8.4456,8.461,8.4302,8.4302,8.706,9.1037,9.0095,9.1363,9.3161,9.5493,9.703,9.728,9.7401,9.7125,9.6402,9.5646,9.3811,9.1552,9.0952,8.9464,8.7185,8.6757,8.6691,8.6691,8.6691,8.6691,8.6691,8.6691,8.8216,9.0325,9.0414,9.2521,9.5436,9.611,9.5789,9.6607,9.7525,9.7606,9.7843,9.8427,9.9151,9.9984,10.0882,10.1242,10.1766,10.2236,10.2653,10.2817,10.1931,10.0892,9.9821,9.8398,9.5933,9.4575,9.4076,9.3935,9.3935,9.3935,9.3935,9.3935,9.3935,9.3935,9.3935,9.3935,9.3151,9.1832,9.0608,8.9257,8.8162,8.7578,8.7245,8.6949,8.7072,8.7494,8.7639,8.7665,8.6926,8.6197,8.5273,8.405,8.1697,8.0254,8.0072,7.7165,7.7165,7.7165,7.7165,7.7165,7.7165,7.7165,7.7165,7.7165,7.9955,8.4445,8.4722,8.7341,9.0857,9.1877,9.1877,9.1962,9.1962,9.1962,9.1962,9.1962,9.1962,9.1962,9.1962,9.1932,9.1583,9.0187,8.8762,8.8006,8.6407,8.5078,8.4381,8.4177,8.4177,8.4177,8.4225,8.4857,8.6682,8.7193,8.8719,8.9834,9.3088,9.5593,9.4913,9.6508,9.6613,9.604,9.5481,9.3712,9.2037,9.0657,8.9366,8.7777,8.6691,8.6691,8.6691,8.6691,8.6691,8.6691,8.6921,8.7985,8.9957,9.0056,9.1403,9.3282,9.4058,9.4186,9.4777,9.624,9.7222,9.7333,9.7442,9.7896,9.8671,9.9504,9.995,10.0551,10.1766,10.2113,10.1977,10.1385,10.0428,9.9179,9.7467,9.5357,9.4101,9.3821,9.3935,9.3935,9.3935,9.3935,9.3935,9.3935,9.3935,9.3792,9.2899,9.1973,9.0617,8.9078,8.7628,8.6737,8.6334,8.5951,8.601,8.6345,8.6706,8.672,8.65,8.5697,8.4707,8.3864,8.3,8.0708,7.8932,7.8281,7.7165,7.7165,7.7165,7.7165,7.7165,7.7165,7.7165,7.7165,7.7165,7.9101,8.1613,8.3008,8.6389,9.0257,9.1283,9.0943,9.1877,9.1962,9.1962,9.1962,9.1962,9.1962,9.1962,9.1962,9.1932,9.1671,9.0653,8.9344,8.8035,8.6639,8.5447,8.4526,8.4177,8.4177,8.461,8.5038,8.5462,8.6032,8.6595,8.7542,8.8348,9.1368,9.297,9.2984,9.552,9.511,9.5355,9.5284,9.3771,9.216,9.124,8.9323,8.725,8.679,8.6691,8.6691,8.6691,8.6691,8.6691,8.6856,8.7415,8.8971,8.9333,9.0122,9.2975,9.318,9.3311,9.4113,9.5516,9.6228,9.6401,9.6481,9.6788,9.7531,9.8125,9.8409,9.9354,10.1068,10.16,10.0526,10.0016,9.9368,9.792,9.6388,9.4842,9.3583,9.378,9.3935,9.3935,9.3935,9.3935,9.3935,9.3935,9.3935,9.2792,9.1794,9.0795,8.9261,8.7656,8.6542,8.553,8.5194,8.5297,8.5382,8.5648,8.5793,8.5704,8.5369,8.4502,8.3273,8.2342,8.1463,7.9929,7.8132,7.7388,7.7165,7.7165,7.7165,7.7165,7.7165,7.7165,7.7165,7.7165,7.7165,7.7341,7.8288,8.0124,8.5116,8.9538,8.9711,8.9913,9.1962,9.1962,9.1962,9.1962,9.1962,9.1962,9.1962,9.1962,9.1932,9.1758,9.1031,8.9606,8.8064,8.6959,8.563,8.4352,8.4177,8.4177,8.4533,8.5236,8.5883,8.6106,8.6255,8.7134,8.8068,8.9463,9.1092,9.2999,9.3178,9.3396,9.5131,9.5284,9.4199,9.2029,9.1306,8.9596,8.7316,8.6757,8.6691,8.6691,8.6691,8.6691,8.6691,8.6691,8.679,8.7152,8.8116,8.999,9.2292,9.2792,9.3673,9.4521,9.5095,9.5451,9.5457,9.5311,9.5602,9.6377,9.7157,9.729,9.8037,9.9782,9.9948,9.9063,9.8149,9.7301,9.5977,9.4375,9.2825,9.2214,9.2315,9.2756,9.295,9.3711,9.3749,9.3825,9.3825,9.322,9.2008,9.0759,8.9725,8.8298,8.6764,8.5551,8.4764,8.4657,8.4743,8.4901,8.5091,8.4937,8.4765,8.3976,8.3066,8.1829,8.0508,7.9237,7.7825,7.6904,7.6385,7.7165,7.7165,7.7165,7.7165,7.7165,7.7165,7.7165,7.7165,7.7165,7.7165,7.7816,7.993,8.3916,8.7875,8.8432,8.9161,9.1764,9.1962,9.1962,9.1962,9.1962,9.1962,9.1962,9.1962,9.1962,9.1932,9.1409,9.0129,8.8646,8.7483,8.629,8.4264,8.4177,8.4177,8.4302,8.478,8.516,8.516,8.516,8.5366,8.5876,8.7112,8.891,9.0711,9.2113,9.3396,9.4917,9.5218,9.3837,9.193,9.1067,8.9497,8.7283,8.6691,8.6691,8.6691,8.6691,8.6691,8.6691,8.6691,8.6691,8.7152,8.8083,8.9333,9.1141,9.1536,9.2128,9.3706,9.4561,9.5185,9.5284,9.5284,9.5284,9.5661,9.6262,9.6122,9.6324,9.749,9.7879,9.6927,9.6049,9.5197,9.3789,9.2264,9.1403,9.0911,9.1063,9.1497,9.2315,9.3299,9.3488,9.3638,9.3462,9.2898,9.1579,9.0153,8.8762,8.7442,8.5908,8.4873,8.4659,8.4552,8.4516,8.455,8.4683,8.4471,8.4004,8.2831,8.1555,8.0156,7.8718,7.7284,7.6426,7.5824,7.5334,7.758,7.7165,7.7165,7.7165,7.7165,7.7165,7.7165,7.7165,7.7165,7.7165,7.7641,7.9735,8.1613,8.3102,8.4748,8.6928,8.9826,9.0286,9.0857,9.168,9.1962,9.1962,9.1962,9.1962,9.1962,9.1962,9.17,9.0507,8.8821,8.7774,8.6756,8.4526,8.4177,8.4177,8.4225,8.4177,8.4177,8.4177,8.4177,8.4177,8.4427,8.5357,8.712,8.9716,9.0766,9.2698,9.4323,9.4791,9.3245,9.198,9.0376,8.8938,8.7316,8.6691,8.6691,8.6691,8.6691,8.6691,8.6691,8.6691,8.6691,8.6987,8.736,8.8281,8.907,9.0188,9.1634,9.2982,9.4396,9.5152,9.5284,9.5284,9.5284,9.5371,9.5779,9.5661,9.574,9.6186,9.5852,9.484,9.3838,9.2555,9.1274,9.0307,8.975,8.9635,9.0023,9.0482,9.1359,9.2274,9.2676,9.2994,9.2692,9.1993,9.0355,8.9045,8.7516,8.6128,8.4632,8.4629,8.4485,8.4516,8.4516,8.455,8.4134,8.3705,8.3301,8.1844,7.9783,7.8349,7.6989,7.6377,7.58,7.5175,7.4942,7.8141,7.7165,7.7165,7.7165,7.7165,7.7165,7.7165,7.7165,7.7165,7.7165,7.7365,7.9297,7.9101,7.8929,8.0221,8.3637,8.6776,8.8316,8.9566,9.1028,9.168,9.1962,9.1962,9.1962,9.1962,9.1962,9.1962,9.0449,8.8617,8.8035,8.6697,8.4671,8.4177,8.4177,8.4177,8.4177,8.4177,8.4177,8.4177,8.4177,8.4225,8.4657,8.6725,8.8993,9.0532,9.2021,9.4632,9.4067,9.2876,9.1897,8.9948,8.8215,8.6987,8.6691,8.6691,8.6691,8.6691,8.6691,8.6691,8.6691,8.6691,8.6724,8.6823,8.6724,8.7678,8.9168,9.1075,9.2752,9.4363,9.5087,9.4856,9.5087,9.5284,9.5371,9.5457,9.5371,9.5068,9.5203,9.4211,9.3141,9.1452,9.0118,8.9239,8.8669,8.8315,8.8633,8.896,8.9539,9.0115,9.0797,9.1272,9.1465,9.1302,8.9634,8.8018,8.725,8.5949,8.4745,8.4247,8.428,8.4245,8.4209,8.4312,8.403,8.3329,8.2834,8.1167,7.9456,7.7911,7.6799,7.6184,7.5644,7.5115,7.4918,7.4658,7.8141,7.7165,7.7165,7.7165,7.7165,7.7165,7.7165,7.7165,7.7165,7.7165,7.7265,7.7691,7.7716,7.7915,7.9858,8.2322,8.5207,8.743,8.8344,8.9538,9.0943,9.1962,9.1962,9.1962,9.1962,9.1962,9.1932,9.0566,8.8472,8.8035,8.6552,8.4846,8.4177,8.4177,8.4177,8.4177,8.4177,8.4177,8.4177,8.4177,8.458,8.5733,8.7627,8.9647,9.1267,9.2858,9.4813,9.3771,9.2482,9.1198,8.9685,8.8149,8.6987,8.6691,8.6691,8.6691,8.6691,8.6691,8.6691,8.6691,8.6691,8.6691,8.6691,8.6691,8.7185,8.8215,8.9859,9.1503,9.3476,9.4758,9.4008,9.4626,9.5152,9.5284,9.5284,9.5146,9.464,9.3613,9.26,9.1232,8.9165,8.8167,8.7788,8.7311,8.7469,8.7716,8.782,8.8366,8.8831,8.9396,9.0,9.0123,8.9387,8.7567,8.6083,8.5307,8.4335,8.3356,8.3322,8.3432,8.3576,8.3684,8.3789,8.3681,8.2658,8.0393,7.8324,7.6526,7.5716,7.5278,7.5191,7.48,7.4152,7.3817,7.3427,7.8141,7.7189,7.7165,7.7165,7.7165,7.7165,7.7165,7.7165,7.7165,7.7165,7.7165,7.7165,7.7165,7.7541,7.8634,8.0389,8.2888,8.5272,8.7135,8.8724,9.0658,9.1962,9.1962,9.1962,9.1962,9.1962,9.1816,9.0595,8.8297,8.8035,8.661,8.4729,8.4177,8.4177,8.4177,8.4177,8.4177,8.4177,8.4177,8.4177,8.4302,8.4933,8.7235,8.9132,9.077,9.2634,9.4155,9.3377,9.1733,9.0779,8.8938,8.759,8.6921,8.6691,8.6691,8.6691,8.6691,8.6691,8.6691,8.6691,8.6691,8.6691,8.6691,8.6691,8.6921,8.7393,8.8412,9.0155,9.2423,9.3844,9.3252,9.4435,9.512,9.5284,9.5284,9.4922,9.3969,9.2226,9.1276,9.0353,8.8534,8.7313,8.6691,8.6691,8.6691,8.6691,8.6746,8.7111,8.7574,8.8298,8.9009,8.8837,8.8128,8.6059,8.3964,8.3334,8.2497,8.2224,8.2194,8.2276,8.2392,8.235,8.2555,8.2046,8.0247,7.7933,7.6067,7.4646,7.395,7.3324,7.3529,7.3559,7.3045,7.2385,7.1689,7.797,7.7165,7.7165,7.7165,7.7165,7.7165,7.7165,7.7165,7.7165,7.7165,7.7165,7.7165,7.7165,7.7265,7.7265,7.8288,8.0583,8.3637,8.5755,8.7519,9.0572,9.1877,9.1962,9.1962,9.1962,9.1962,9.1874,9.0566,8.8588,8.789,8.6639,8.4671,8.4177,8.4177,8.4177,8.4177,8.4177,8.4177,8.4177,8.4177,8.4177,8.458,8.5972,8.8744,9.0299,9.2021,9.3593,9.2354,9.0944,9.0681,8.8205,8.702,8.6691,8.6691,8.6691,8.6691,8.6691,8.6691,8.6691,8.6691,8.6691,8.6691,8.6691,8.6691,8.6691,8.6856,8.7656,8.9168,9.101,9.2628,9.2989,9.4429,9.512,9.5284,9.5152,9.4725,9.3311,9.1601,9.0071,8.892,8.7843,8.6691,8.6691,8.6691,8.6691,8.6691,8.6691,8.6875,8.6946,8.7308,8.7642,8.7157,8.6551,8.4151,8.2136,8.1622,8.1153,8.1016,8.0989,8.108,8.1444,8.1232,7.982,7.8383,7.6709,7.5242,7.4214,7.3031,7.2382,7.2248,7.2221,7.2228,7.1497,7.0735,7.0014,7.7287,7.7165,7.7165,7.7165,7.7165,7.7165,7.7165,7.7165,7.7165,7.7165,7.7165,7.7165,7.7165,7.7165,7.7165,7.7265,7.9028,8.2063,8.4932,8.6298,8.9826,9.1397,9.1962,9.1962,9.1962,9.1962,9.1962,9.0507,8.8675,8.7861,8.6697,8.4584,8.4177,8.4177,8.4177,8.4177,8.4177,8.4177,8.4177,8.4177,8.4177,8.4254,8.516,8.774,8.9785,9.2215,9.2564,9.188,9.0944,9.0779,8.8215,8.6954,8.6691,8.6691,8.6691,8.6691,8.6691,8.6691,8.6691,8.6691,8.6691,8.6691,8.6691,8.6691,8.6691,8.679,8.736,8.8445,8.93,9.0549,9.2858,9.4232,9.4988,9.5251,9.5251,9.4593,9.3022,9.0747,8.8905,8.7514,8.6921,8.6691,8.6691,8.6691,8.6691,8.6691,8.6691,8.6647,8.6318,8.617,8.5755,8.523,8.3678,8.1486,8.0953,8.0478,7.997,7.9812,7.9778,8.0229,8.0863,7.983,7.8183,7.5905,7.4034,7.2742,7.1682,7.1278,7.1275,7.1252,7.1094,7.073,7.0009,6.9076,6.749,7.7165,7.7165,7.7165,7.7165,7.7165,7.7165,7.7165,7.7165,7.7165,7.7165,7.7165,7.7165,7.7165,7.7165,7.7165,7.7165,7.8089,8.1064,8.3889,8.6659,8.852,9.0743,9.1595,9.1962,9.1962,9.1962,9.1962,9.0478,8.8704,8.7832,8.6756,8.4381,8.4177,8.4177,8.4177,8.4177,8.4177,8.4177,8.4177,8.4177,8.4177,8.4177,8.481,8.6002,8.9024,9.1597,9.2249,9.1473,9.1001,9.0082,8.7451,8.5653,8.644,8.6691,8.6691,8.6691,8.6691,8.6691,8.6637,8.6691,8.6582,8.6691,8.6691,8.6691,8.6691,8.6691,8.7064,8.7492,8.7985,8.8872,9.1634,9.3278,9.4528,9.4856,9.4593,9.3508,9.2029,9.0155,8.8281,8.7152,8.6658,8.6691,8.6691,8.6691,8.6691,8.6691,8.6691,8.656,8.6231,8.519,8.4532,8.3283,8.131,8.0078,7.9783,7.9435,7.8961,7.8921,7.8888,7.944,7.9451,7.8005,7.6485,7.4622,7.2676,7.1162,7.0362,7.0045,6.9991,7.01,6.9923,6.928,6.8438,6.705,6.5345,7.7165,7.7165,7.7165,7.7165,7.7165,7.7165,7.7165,7.7165,7.7165,7.7165,7.7165,7.7165,7.7165,7.7165,7.7165,7.7165,7.7541,7.9955,8.2699,8.6776,8.743,8.9451,9.0658,9.1764,9.1877,9.1962,9.1962,9.0536,8.8646,8.7832,8.6727,8.4497,8.4177,8.4177,8.4177,8.4177,8.4177,8.4177,8.4177,8.4177,8.4177,8.4148,8.4225,8.4504,8.6987,8.9423,9.0805,9.046,8.9759,8.8614,8.5917,8.409,8.5079,8.5709,8.5709,8.5508,8.562,8.5877,8.562,8.5338,8.5653,8.5821,8.5909,8.6242,8.6495,8.6691,8.6691,8.6757,8.7086,8.8314,9.0352,9.2062,9.3508,9.4199,9.3712,9.2588,9.0681,8.8872,8.7294,8.6472,8.6395,8.6691,8.6691,8.6691,8.6691,8.6691,8.6625,8.6527,8.5704,8.4631,8.3612,8.2442,8.0653,7.919,7.8911,7.8729,7.8425,7.8359,7.8311,7.8531,7.7488,7.617,7.4546,7.2891,7.1348,7.057,6.9724,6.9384,6.9318,6.91,6.8936,6.7675,6.6341,6.4928,6.3364,7.7165,7.7165,7.7165,7.7165,7.7165,7.7165,7.7165,7.7165,7.7165,7.7165,7.7165,7.7165,7.7165,7.7165,7.7165,7.7165,7.7341,7.976,8.1326,8.282,8.5936,8.8344,8.919,9.0743,9.1595,9.1962,9.1962,9.042,8.8646,8.8035,8.6639,8.4729,8.4177,8.4177,8.4177,8.4177,8.4177,8.4177,8.4177,8.4177,8.4177,8.4177,8.4177,8.4225,8.5282,8.642,8.7656,8.7204,8.5925,8.4669,8.2915,8.2226,8.2378,8.3796,8.3736,8.3016,8.3705,8.3823,8.2622,8.2682,8.2956,8.418,8.4413,8.4997,8.5965,8.633,8.6275,8.6076,8.7853,8.8235,8.9196,9.1379,9.2792,9.3285,9.2996,9.1675,8.9366,8.6571,8.4795,8.4643,8.5848,8.6527,8.6691,8.6691,8.6658,8.6527,8.6658,8.6198,8.5124,8.3941,8.2724,8.1573,8.0028,7.8433,7.8187,7.8088,7.8039,7.7891,7.7891,7.7317,7.6332,7.4494,7.2749,7.1245,7.0078,6.9249,6.8859,6.8915,6.8981,6.8664,6.7791,6.6105,6.4224,6.2719,6.1627,7.7165,7.7165,7.7165,7.7165,7.7165,7.7165,7.7165,7.7165,7.7165,7.7165,7.7165,7.7165,7.7165,7.7165,7.7165,7.7165,7.7516,7.976,8.0027,7.9858,8.373,8.6686,8.8168,8.9102,9.0572,9.1764,9.1962,9.0478,8.8442,8.8035,8.661,8.4613,8.4177,8.4177,8.4177,8.4177,8.4177,8.4177,8.4177,8.4177,8.4177,8.4177,8.4177,8.4177,8.4225,8.5105,8.6809,8.6291,8.4684,8.2659,8.1156,8.0626,8.1574,8.2409,8.2348,8.1792,8.2255,8.247,8.173,8.1605,8.2009,8.2531,8.2714,8.3137,8.3764,8.4703,8.4645,8.4323,8.6286,8.6814,8.6922,8.8822,9.1157,9.2274,8.9995,8.7533,8.6396,8.3614,8.2539,8.3007,8.371,8.4302,8.5256,8.5289,8.5716,8.6221,8.6057,8.5204,8.4155,8.3151,8.1869,8.0653,7.9239,7.8153,7.766,7.7858,7.7891,7.776,7.7563,7.6857,7.5305,7.3152,7.1153,6.9315,6.8588,6.8012,6.792,6.792,6.7733,6.713,6.6558,6.4997,6.2332,6.0344,5.95,7.7165,7.7165,7.7165,7.7165,7.7165,7.7165,7.7165,7.7165,7.7165,7.7165,7.7165,7.7165,7.7165,7.7165,7.7165,7.7165,7.7816,7.976,7.9565,7.8089,8.116,8.3889,8.5936,8.7519,8.9566,9.168,9.1874,9.0595,8.821,8.8035,8.6697,8.4264,8.4177,8.4177,8.4177,8.4177,8.4177,8.4177,8.4177,8.4177,8.4177,8.4177,8.4177,8.4177,8.4177,8.4757,8.5583,8.5323,8.3743,8.0975,7.927,7.9059,8.0013,8.069,8.069,8.0306,8.0562,8.0818,8.037,8.0143,8.0498,8.0881,8.0945,8.1167,8.1574,8.2835,8.2775,8.25,8.3645,8.494,8.4813,8.6262,8.8814,9.0664,8.7232,8.3674,8.2407,8.0496,7.9267,8.0312,8.0744,8.1435,8.2093,8.2417,8.274,8.3476,8.3346,8.2634,8.1043,7.9849,7.8399,7.7885,7.8028,7.7391,7.713,7.7512,7.7612,7.7298,7.639,7.5383,7.323,7.1315,6.9371,6.7532,6.6976,6.6739,6.6739,6.6404,6.5736,6.5146,6.41,6.2463,6.0046,5.8355,5.7509,7.7165,7.7165,7.7165,7.7165,7.7165,7.7165,7.7165,7.7165,7.7165,7.7165,7.7165,7.7165,7.7165,7.7165,7.7165,7.7165,7.7641,7.959,7.9199,7.7915,7.7915,7.937,8.1968,8.5664,8.8724,9.1312,9.1877,9.0536,8.8123,8.8006,8.6756,8.4381,8.4177,8.4177,8.4177,8.4177,8.4177,8.4177,8.4177,8.4177,8.4177,8.4177,8.4177,8.4177,8.4032,8.3738,8.3244,8.3005,8.1654,7.8992,7.7662,7.7065,7.7243,7.8421,7.8526,7.7421,7.8489,7.8354,7.7352,7.7451,7.7871,7.9096,7.9294,7.9853,8.0945,8.1355,8.1574,8.1198,8.1947,8.2714,8.3677,8.4404,8.5747,8.7834,8.4356,8.0777,7.8495,7.6907,7.6244,7.6421,7.7184,7.8088,7.8436,7.853,7.8593,7.8656,7.8135,7.7624,7.6747,7.6156,7.454,7.4634,7.5303,7.508,7.5271,7.5642,7.6145,7.5471,7.4083,7.2446,7.0358,6.9154,6.7584,6.6431,6.5576,6.5477,6.5209,6.4416,6.3668,6.2873,6.1391,5.9452,5.7897,5.6639,5.5585,7.7165,7.7165,7.7165,7.7165,7.7165,7.7165,7.7165,7.7165,7.7165,7.7165,7.7165,7.7165,7.7165,7.7165,7.7165,7.7165,7.7265,7.8089,7.8089,7.7241,7.7165,7.7641,7.8929,8.2158,8.5573,8.919,9.1227,9.0595,8.8152,8.7948,8.6756,8.4555,8.4177,8.4177,8.4177,8.4177,8.4177,8.4177,8.4177,8.4177,8.4177,8.4177,8.4177,8.4061,8.344,8.2858,8.2352,8.0898,7.9298,7.762,7.6925,7.6594,7.6635,7.7105,7.7214,7.6816,7.7105,7.7313,7.6746,7.6564,7.6926,7.7352,7.749,7.7871,7.8421,7.9622,7.9425,7.9126,8.0272,8.1449,8.1324,8.1885,8.2614,8.3141,7.9961,7.7257,7.5317,7.3702,7.3234,7.4079,7.4675,7.5469,7.615,7.6399,7.6426,7.6453,7.6073,7.5511,7.3542,7.2652,7.255,7.2589,7.2909,7.3105,7.3358,7.3903,7.4507,7.3184,7.154,6.9532,6.8045,6.6975,6.6236,6.5065,6.4245,6.409,6.3571,6.2655,6.1484,6.0494,5.9468,5.7523,5.5676,5.4544,5.3738,7.7165,7.7165,7.7165,7.7165,7.7165,7.7165,7.7165,7.7165,7.7165,7.7165,7.7165,7.7165,7.7165,7.7165,7.7165,7.7165,7.7165,7.7165,7.7165,7.7165,7.7165,7.7265,7.7716,7.9735,8.2725,8.5818,8.8155,8.7834,8.573,8.5988,8.5364,8.3717,8.3839,8.4177,8.4177,8.4177,8.4177,8.4177,8.4177,8.4177,8.4177,8.4177,8.4177,8.4032,8.3033,8.1974,8.1188,7.9078,7.7565,7.6652,7.6564,7.6564,7.6564,7.6564,7.6564,7.6564,7.6564,7.6564,7.6564,7.6564,7.6564,7.6635,7.6635,7.6564,7.6746,7.7764,7.7803,7.7243,7.8586,8.0013,7.94,7.9905,7.9183,7.7185,7.5351,7.3588,7.2161,7.1109,7.1055,7.1885,7.2061,7.2454,7.3245,7.343,7.3129,7.291,7.2297,7.1564,6.994,6.8983,6.9103,6.9715,7.0713,7.0951,7.1513,7.2114,7.1592,7.0023,6.8389,6.6578,6.5784,6.5026,6.4498,6.3743,6.3113,6.2546,6.1949,6.0935,5.9532,5.8418,5.675,5.5055,5.3437,5.2471,5.1834,7.7165,7.7165,7.7165,7.7165,7.7165,7.7165,7.7165,7.7165,7.7165,7.7165,7.7165,7.7165,7.7165,7.7165,7.7165,7.7165,7.7165,7.7165,7.7165,7.7165,7.7165,7.7165,7.7265,7.9467,8.0942,8.1596,8.2652,8.1993,8.0353,8.23,8.2648,8.1656,8.3157,8.4177,8.4177,8.4177,8.4177,8.4177,8.4177,8.4177,8.4177,8.4177,8.409,8.3916,8.2858,8.1217,7.8816,7.7449,7.6681,7.6564,7.6564,7.6564,7.6564,7.6564,7.6564,7.6564,7.6564,7.6564,7.6564,7.6564,7.6564,7.6564,7.6564,7.6564,7.6564,7.6746,7.6816,7.6635,7.6995,7.7333,7.8427,7.774,7.5636,7.1949,7.1614,7.0816,6.9675,6.9078,6.9112,6.9271,6.9521,6.917,6.9199,6.9642,6.9241,6.8152,6.7003,6.6092,6.5679,6.4911,6.4304,6.5446,6.7117,6.8203,6.9192,6.9971,6.8365,6.6886,6.5293,6.435,6.3733,6.3382,6.2906,6.2005,6.1274,6.0416,5.9781,5.7775,5.6642,5.5643,5.3679,5.1906,5.1349,5.101,5.0198,7.7165,7.7165,7.7165,7.7165,7.7165,7.7165,7.7165,7.7165,7.7165,7.7165,7.7165,7.7165,7.7165,7.7165,7.7165,7.7165,7.7165,7.7165,7.7165,7.7165,7.7165,7.7165,7.7365,7.8015,7.8822,7.9743,8.0314,8.0148,7.961,8.1604,8.2014,8.1056,8.305,8.4177,8.4177,8.4177,8.4177,8.4177,8.4177,8.4177,8.4177,8.4177,8.3847,8.2992,8.177,8.0241,7.8641,7.7304,7.6564,7.6564,7.6564,7.6564,7.6564,7.6564,7.6564,7.6564,7.6564,7.6564,7.6564,7.6564,7.6564,7.6564,7.6564,7.6564,7.6564,7.6564,7.6564,7.6564,7.6564,7.621,7.5815,7.4221,7.243,7.1275,7.0149,6.9451,6.9044,6.8986,6.8986,6.8986,6.8986,6.8986,6.8898,6.82,6.7153,6.5874,6.4623,6.3431,6.2675,6.2094,6.2298,6.3634,6.48,6.5299,6.5827,6.6002,6.4739,6.3779,6.2413,6.2263,6.1913,6.174,6.1195,6.0143,5.9196,5.8284,5.6791,5.4644,5.3509,5.2791,5.1286,5.0145,4.9879,4.9558,4.8828,7.7165,7.7165,7.7165,7.7165,7.7165,7.7165,7.7165,7.7165,7.7165,7.7165,7.7165,7.7165,7.7165,7.7165,7.7165,7.7165,7.7165,7.7165,7.7165,7.7165,7.7165,7.7165,7.7141,7.6726,7.7101,7.7755,7.7188,7.6632,7.65,7.8578,7.9638,7.9945,8.1886,8.347,8.4071,8.4177,8.4177,8.4177,8.4177,8.4177,8.4177,8.4177,8.3382,8.1828,8.0518,7.9165,7.7885,7.7,7.6564,7.6564,7.6564,7.6564,7.6564,7.6564,7.6564,7.6564,7.6564,7.6564,7.6564,7.6564,7.6564,7.6564,7.6564,7.6564,7.6564,7.6564,7.6564,7.6448,7.6257,7.5035,7.3465,7.1894,7.076,7.0236,6.9509,6.9044,6.8986,6.8986,6.8986,6.8986,6.8986,6.8782,6.8288,6.759,6.6339,6.474,6.3722,6.2675,6.1629,6.1252,6.1513,6.2298,6.2821,6.2995,6.2761,6.1809,6.1059,6.0171,5.96,5.9112,5.815,5.7641,5.7782,5.6671,5.6442,5.5712,5.5045,5.3034,5.1861,5.0962,4.9684,4.8745,4.8636,4.7561,4.7026,7.7165,7.7165,7.7165,7.7165,7.7165,7.7165,7.7165,7.7165,7.7165,7.7165,7.7165,7.7165,7.7165,7.7165,7.7165,7.7165,7.7165,7.7165,7.7165,7.7165,7.7067,7.7067,7.7019,7.6117,7.5506,7.5358,7.3739,7.236,7.1346,7.329,7.5214,7.7473,7.9862,8.1938,8.3577,8.3994,8.4177,8.4177,8.4177,8.4177,8.4177,8.4061,8.2829,8.0532,7.9194,7.8031,7.6867,7.6564,7.6564,7.6564,7.6564,7.6564,7.6564,7.6564,7.6564,7.6564,7.6564,7.6564,7.6564,7.6564,7.6564,7.6564,7.6564,7.6564,7.6564,7.639,7.6303,7.6419,7.5122,7.3494,7.1545,7.0905,7.0236,6.9306,6.9044,6.9015,6.8986,6.8986,6.8986,6.8986,6.8986,6.852,6.7331,6.7011,6.5525,6.4012,6.314,6.2559,6.1484,6.1223,6.1252,6.1571,6.1979,6.1665,5.815,5.7725,5.6739,5.559,5.5311,5.4866,5.3721,5.3009,5.3174,5.3197,5.3221,5.3028,5.2625,5.1592,5.0052,4.8814,4.7487,4.7276,4.7082,4.5822,4.5102,7.7165,7.7165,7.7165,7.7165,7.7165,7.7165,7.7165,7.7165,7.7165,7.7165,7.7165,7.7165,7.7165,7.7165,7.7165,7.7165,7.7165,7.7165,7.7165,7.7092,7.6335,7.5994,7.5872,7.4871,7.3944,7.3187,7.2553,7.1723,7.1138,7.2972,7.4339,7.5535,7.901,8.1189,8.1858,8.347,8.4177,8.4177,8.4177,8.4177,8.4032,8.3324,8.1637,7.931,7.87,7.7943,7.6623,7.6564,7.6564,7.6564,7.6564,7.6564,7.6564,7.6564,7.6564,7.6564,7.6564,7.6564,7.6564,7.6564,7.6564,7.6564,7.6564,7.6564,7.6419,7.5733,7.5239,7.4937,7.3203,7.1807,7.0847,7.0091,6.9451,6.9102,6.8986,6.8986,6.8923,6.8986,6.8859,6.8986,6.8524,6.852,6.7124,6.5347,6.3951,6.2995,6.2241,6.1542,6.131,6.111,6.111,6.1252,6.1428,5.9943,5.6321,5.486,5.3342,5.2046,5.1907,5.2186,5.1963,5.255,5.287,5.0418,5.0308,4.9816,4.8458,4.7441,4.6192,4.5434,4.5364,4.5649,4.5567,4.4258,4.3451,7.6085,7.7165,7.7165,7.7165,7.7165,7.7165,7.7165,7.7165,7.7165,7.7165,7.7165,7.7165,7.7165,7.7165,7.7165,7.7165,7.7116,7.6701,7.6506,7.6408,7.5383,7.4871,7.4773,7.3748,7.2919,7.2284,7.1914,7.1376,7.1022,7.2058,7.315,7.4339,7.6601,7.9066,8.0839,8.2204,8.3285,8.4177,8.4177,8.3443,8.216,8.1216,8.0066,7.8641,7.8002,7.7391,7.6652,7.6564,7.6564,7.6564,7.6564,7.6564,7.6564,7.6564,7.6564,7.6564,7.6564,7.6564,7.6564,7.6564,7.6564,7.6564,7.6564,7.6373,7.5849,7.5093,7.3462,7.1411,7.0465,6.9416,6.8064,6.789,6.7528,6.682,6.6689,6.6689,6.6689,6.6689,6.65,6.6114,6.6057,6.5549,6.4284,6.2442,6.1083,6.0378,5.9811,5.9156,5.9159,5.9276,5.9276,5.9219,5.8854,5.7027,5.3955,5.1983,5.061,4.9406,4.9166,4.9222,4.8858,4.9134,4.8911,4.7821,4.6668,4.5352,4.4138,4.4269,4.4101,4.3838,4.3924,4.4683,4.401,4.2647,4.1346,7.4896,7.694,7.7165,7.7165,7.7165,7.7165,7.7165,7.7165,7.7165,7.7116,7.6921,7.6896,7.6774,7.6848,7.6774,7.6726,7.6677,7.5847,7.5506,7.5384,7.4236,7.3724,7.3626,7.2626,7.2138,7.1991,7.1278,7.0839,7.079,7.0857,7.1786,7.3481,7.3987,7.6199,7.9643,8.0406,8.151,8.3499,8.3432,8.1771,7.8812,7.8349,7.8294,7.8351,7.7216,7.6564,7.6564,7.6564,7.6564,7.6564,7.6564,7.6564,7.6564,7.6564,7.6564,7.6564,7.6564,7.6564,7.6564,7.6564,7.6576,7.639,7.6373,7.5751,7.4296,7.384,7.122,6.7141,6.7299,6.6895,6.4002,6.4913,6.5249,6.407,6.3769,6.3302,6.3443,6.3222,6.2807,6.1812,6.2144,6.1286,6.0607,5.9457,5.813,5.7279,5.7042,5.6927,5.6927,5.69,5.6778,5.5755,5.4832,5.3116,5.1094,5.0591,4.8895,4.6129,4.6224,4.6554,4.583,4.4769,4.3407,4.4294,4.2644,4.1992,4.2101,4.2768,4.2333,4.1478,4.2331,4.3736,4.2425,4.0949,3.9126,7.6614,7.7165,7.7165,7.7165,7.7165,7.7165,7.7165,7.7165,7.7141,7.6701,7.5872,7.4993,7.4627,7.4627,7.4627,7.4627,7.4578,7.4358,7.4261,7.4139,7.3138,7.265,7.2553,7.1552,7.1132,7.1083,7.0888,7.079,7.079,7.079,7.104,7.163,7.3239,7.4602,7.5622,7.7446,7.8539,7.901,7.8189,7.7242,7.6276,7.614,7.6396,7.6988,7.6751,7.6564,7.6564,7.6564,7.6564,7.6564,7.6564,7.6564,7.6564,7.6564,7.6564,7.6564,7.6564,7.6564,7.6564,7.6564,7.6198,7.518,7.5064,7.3905,7.1277,6.8819,6.6348,6.4306,6.4425,6.4411,6.3494,6.3728,6.3865,6.3494,6.3356,6.2843,6.2243,6.2149,6.1758,6.0839,6.0597,6.0008,5.9075,5.8473,5.7638,5.6432,5.6349,5.6349,5.6349,5.6349,5.4749,5.2306,5.0315,4.9291,4.7915,4.706,4.6137,4.5342,4.5243,4.5136,4.4625,4.3877,4.3075,4.162,4.0137,3.8941,3.7925,3.8232,3.8376,3.8137,3.9309,4.0095,3.9629,3.8739,3.726,7.596,7.7165,7.7165,7.7165,7.7116,7.6628,7.6433,7.6384,7.5896,7.531,7.4749,7.4163,7.387,7.3919,7.4407,7.4627,7.4651,7.4651,7.4651,7.4529,7.2992,7.2284,7.2187,7.1278,7.079,7.079,7.079,7.079,7.079,7.079,7.079,7.0857,7.1967,7.3086,7.4075,7.5301,7.6244,7.6671,7.3096,7.1263,7.1528,7.1998,7.2553,7.3306,7.4296,7.4831,7.4831,7.4861,7.4861,7.4831,7.4831,7.5093,7.5675,7.5733,7.5966,7.6576,7.6053,7.5704,7.5704,7.518,7.414,7.2635,7.2481,7.062,6.6062,6.4883,6.3422,6.1216,6.2478,6.2758,6.1041,6.1657,6.1564,6.0246,6.0098,5.9634,5.8724,5.8492,5.8122,5.7155,5.6949,5.6509,5.5332,5.5203,5.4854,5.4351,5.4171,5.4081,5.4107,5.3644,5.2396,5.0186,4.849,4.7392,4.6733,4.5649,4.4697,4.3951,4.4424,4.4089,4.2201,4.1984,4.0817,3.9162,3.752,3.6295,3.6256,3.6305,3.6247,3.5855,3.6959,3.7329,3.6784,3.6784,3.5728,7.4398,7.6701,7.6701,7.6701,7.6652,7.5701,7.531,7.5237,7.431,7.3797,7.3651,7.3504,7.3431,7.3504,7.4432,7.4968,7.4871,7.4871,7.4993,7.4871,7.2748,7.1845,7.1772,7.0747,7.0325,7.0325,7.0301,7.0423,7.0454,7.0545,7.0643,7.0765,7.079,7.1696,7.3392,7.3417,7.3647,7.4022,6.8304,6.5689,6.6412,6.7317,6.8034,6.8517,7.0849,7.1914,7.1327,7.1856,7.1798,7.1068,7.101,7.1538,7.2606,7.2606,7.3504,7.4974,7.4267,7.3601,7.3443,7.2491,7.1211,6.9782,6.9405,6.6621,6.0548,6.1388,6.1145,5.8436,6.0527,6.0996,5.8289,5.8947,5.8684,5.6493,5.6007,5.5568,5.473,5.4608,5.4261,5.3275,5.2903,5.2624,5.2065,5.1801,5.1868,5.1619,5.206,5.1686,5.1647,5.0533,4.9735,4.9149,4.7572,4.6466,4.6065,4.5217,4.376,4.2707,4.3487,4.274,3.9714,3.9317,3.856,3.6142,3.4917,3.4299,3.4636,3.5202,3.4788,3.4162,3.4851,3.5625,3.4336,3.4169,3.4095,7.3923,7.4456,7.4456,7.4432,7.4456,7.4261,7.4188,7.4163,0.0,0.0,0.0,7.1718,7.1327,7.1259,7.1547,7.1645,7.1621,7.1645,7.1621,7.1572,7.0234,6.9582,6.9509,6.8575,6.8062,6.8038,6.8087,6.8412,6.9265,6.929,6.9819,7.0692,7.079,7.0924,7.1191,7.0403,6.8707,6.6395,6.4246,6.3628,6.4609,6.4851,6.4474,6.3681,6.7445,6.7844,6.4414,6.7598,6.7434,6.3233,6.2966,6.3077,6.3243,6.3679,6.5253,6.8138,6.8592,6.8537,6.8097,6.782,6.7734,6.7742,6.673,6.3184,5.6207,5.6729,5.7572,5.7888,5.7623,5.7201,5.6593,5.6075,5.5461,5.5004,5.4909,5.4494,5.3563,5.3392,5.2932,5.2023,5.1828,5.1681,5.151,5.1486,5.1486,5.1486,5.1486,5.1486,5.1364,5.0401,4.907,4.7461,4.565,4.4654,4.4656,4.3018,4.153,4.2079,4.1568,4.0415,3.8981,3.8075,3.6709,3.4527,3.3243,3.2221,3.1296,3.179,3.1757,3.1023,3.0981,3.1376,3.223,3.1138,2.989,7.4186,0.0,7.431,7.421,0.0,7.4334,7.4407,7.387,7.387,7.326,7.226,7.1723,7.1278,7.0839,7.182,7.2309,7.2333,7.2989,7.3233,7.3136,7.0918,7.0161,7.0649,6.8973,6.8575,6.9063,6.8461,6.851,6.8973,6.8486,6.8461,6.9063,6.9063,6.8526,6.7501,6.7989,6.6403,6.2693,6.1571,6.1474,6.2266,6.2311,6.2282,6.2093,6.4664,0.0,0.0,0.0,0.0,0.0,0.0,0.0,0.0,0.0,0.0,6.1101,5.8334,5.6289,5.5533,5.528,5.626,5.8585,5.7824,5.4891,4.938,5.1931,5.3591,5.3103,5.4054,5.4835,5.5323,5.4957,5.4396,5.3884,5.3835,5.3396,5.2512,5.2292,5.2072,5.1583,5.1486,5.1486,5.1486,5.1486,5.1486,5.1486,5.1486,5.1486,5.1321,4.9826,4.7775,4.5697,4.3534,4.2196,4.2231,4.0893,4.0211,3.9938,3.9673,3.8388,3.6023,3.5509,3.4685,3.2438,3.1412,3.08,3.0106,3.0278,3.0237,2.9132,2.8958,2.9416,2.9593,2.8619,2.7569,7.4465,7.3224,7.4643,7.4465,7.3224,7.4643,7.4627,7.3578,7.3578,7.2967,7.1991,7.1967,7.1572,7.0936,7.2504,7.3358,7.3626,7.4529,7.4944,7.4919,7.2085,7.104,7.1503,6.9607,6.9136,6.9788,6.8892,6.8388,6.8364,6.7403,6.6989,6.7184,6.6989,6.6037,6.4451,0.0,0.0,0.0,5.9692,5.9802,6.0541,6.0652,6.0677,6.0665,6.2322,0.0,6.21,6.2794,6.2733,6.1482,6.0455,0.0,0.0,0.0,0.0,0.0,0.0,0.0,0.0,0.0,0.0,0.0,4.6915,4.5393,4.3118,4.7014,4.8847,4.7051,5.0394,5.2834,5.3103,5.3298,5.3152,5.2517,5.2395,5.2243,5.1608,5.151,5.1486,5.1486,5.1486,5.1486,5.1486,5.1486,5.1486,5.1486,5.1486,5.1139,5.0012,4.7543,4.5547,4.3909,4.1771,4.0193,4.0025,3.9462,3.8388,3.7695,3.7634,3.6289,3.3296,3.299,3.2467,3.0523,2.9671,2.9482,2.9482,2.9255,2.8529,2.7396,2.7469,2.757,2.6637,2.621,2.6084,7.3995,7.3777,7.4042,7.397,7.3753,7.3946,7.348,7.2479,7.2504,7.1963,7.0985,7.0985,7.0888,7.079,7.1059,7.1576,7.2479,7.2626,7.2699,7.2626,7.1401,7.0259,6.9363,6.8193,6.7281,6.6525,6.6378,6.6281,6.6256,6.5207,6.5183,6.6037,6.5183,6.4573,6.4314,6.275,6.0204,5.686,5.8542,5.9936,6.0948,6.0983,5.9637,5.7156,6.0631,6.093,5.7399,6.0684,6.0143,5.4749,5.3406,5.2093,5.0496,4.9726,4.7854,0.0,4.4609,0.0,0.0,0.0,0.0,0.0,0.0,0.0,0.0,4.2127,4.2567,4.1345,4.76,5.0606,4.7905,4.8515,4.9369,5.0077,5.0174,5.054,5.1388,5.1486,5.1486,5.1486,5.1486,5.1486,5.1297,5.1486,5.1486,5.1139,5.0926,4.9243,4.5253,4.3253,4.2308,4.2001,4.0824,3.965,3.9524,3.7534,3.5939,3.6158,3.5418,3.3764,3.1821,3.1579,3.1273,3.0069,2.8855,2.7975,2.7917,2.6797,2.5877,2.5641,2.5402,2.48,2.3585,2.3791,2.4211,7.4208,7.3353,7.3753,7.387,7.387,7.387,7.3602,7.3163,7.3163,7.2894,7.2382,7.1278,7.0106,6.9014,7.0252,7.1059,7.1498,7.2109,7.2036,7.145,7.0283,6.9527,6.8973,6.7901,6.755,6.7559,6.6452,6.5598,6.4987,6.3914,6.3304,6.3182,6.2718,6.0692,5.7448,5.8594,5.8886,5.8006,5.8932,6.0277,6.1839,6.1888,6.1229,5.9863,6.1058,6.0839,5.8984,6.0717,5.9887,5.5982,5.4689,5.3127,5.0931,4.4746,4.1182,0.0,0.0,0.0,0.0,0.0,0.0,0.0,0.0,0.0,0.0,0.0,3.636,3.8265,4.4708,4.6831,4.214,4.3284,4.4503,4.4856,4.3365,4.3795,4.749,4.7319,4.7074,4.7159,4.8154,4.8246,4.6897,4.7099,4.7383,4.6938,4.6096,4.4168,4.0942,3.9867,3.9339,3.8663,3.7836,3.7192,3.7256,3.5953,3.4963,3.4777,3.3875,3.2688,3.1514,3.0905,3.0123,2.8889,2.809,2.7321,2.6464,2.5684,2.4916,2.4251,2.3628,2.3039,2.2364,2.3113,2.3918,7.3425,7.2115,7.0697,7.0645,7.1568,7.1605,7.2187,7.3065,7.2845,7.2601,7.226,7.0625,6.816,6.5256,6.611,6.7393,6.8908,6.9893,7.057,7.0741,7.0112,6.9485,6.8973,6.8526,6.855,6.8827,6.6915,6.5353,6.4339,6.2669,6.0936,5.9179,5.8838,5.6348,5.1803,5.4784,5.7422,5.9472,5.9741,6.0766,6.2547,6.2889,6.3011,6.3011,6.223,6.1791,6.1791,6.1302,6.018,5.835,5.5519,5.2859,5.0459,4.0546,0.0,0.0,0.0,0.0,0.0,0.0,0.0,0.0,0.0,2.9138,2.1675,0.0,3.0791,0.0,4.1135,4.2962,3.9058,3.9467,0.0,0.0,3.6941,3.6583,4.124,4.1833,4.2021,4.2561,4.4479,4.4916,4.3024,4.3314,4.3051,4.1155,3.9807,3.8434,3.6891,3.6764,3.6542,3.5526,3.4835,3.4416,3.4424,3.4416,3.4093,3.3315,3.2631,3.1808,3.0644,2.9836,2.8855,2.7379,2.6797,2.6095,2.4916,2.4396,2.3679,2.2667,2.2295,2.2217,2.2164,2.2684,2.3319,7.0334,6.9585,6.2314,6.1523,6.5003,6.511,6.7281,7.0888,6.9802,6.8851,6.7989,6.773,6.4377,5.852,5.5786,0.0,6.3304,6.4426,6.694,7.079,7.1694,7.0991,6.9095,6.999,6.9966,6.8973,6.6915,6.5329,6.4241,6.1229,5.7691,5.3737,5.2732,5.2023,5.1535,5.1828,5.4445,5.9399,6.0399,6.1449,6.2596,6.3621,6.4158,6.4265,6.4168,6.4011,6.3962,6.2083,6.0497,5.9179,5.1736,4.5977,4.2762,0.0,0.0,0.0,0.0,0.0,0.0,0.0,0.0,0.0,0.0,0.0,0.0,0.0,0.0,0.0,3.6127,0.0,4.1311,3.8491,0.0,0.0,0.0,3.0697,3.2679,3.5601,3.7918,3.9305,0.0,0.0,4.2763,4.2201,4.004,3.5241,3.4453,3.3966,3.3001,3.3678,3.3834,3.2888,3.2688,3.2683,3.2711,3.2659,3.238,3.1644,3.1419,3.047,2.8474,2.7784,2.7181,2.5684,2.4321,2.3289,2.3169,2.2065,2.0946,2.0885,2.1489,2.2071,2.1922,2.1616,2.1829,6.1266,5.4987,5.3436,5.4426,5.6873,5.6826,5.9569,6.4007,6.3518,6.2693,6.1644,6.0326,5.691,5.1956,4.9345,0.0,0.0,0.0,5.9472,6.306,6.4719,6.6086,6.7159,6.7574,6.7233,6.6134,6.4646,6.3035,6.1376,6.0131,5.3444,4.1901,0.0,0.0,4.2029,4.7514,5.2468,5.647,5.9497,6.2181,6.4524,6.5036,6.528,6.5256,6.4621,6.3645,6.2352,6.1473,5.8447,5.2887,4.8135,4.3,0.0,0.0,0.0,0.0,0.0,0.0,0.0,0.0,0.0,0.0,0.0,2.0585,1.6201,0.0,0.0,0.0,2.4062,2.4764,2.6787,2.8702,0.0,0.0,0.0,0.0,0.0,0.0,0.0,3.1436,3.4455,3.6176,3.5697,3.5357,3.4244,3.1809,3.1474,3.117,3.0354,0.0,3.1923,3.0941,3.174,3.2068,3.1022,3.0623,3.0318,2.9869,2.9039,2.7803,2.6418,2.6178,2.5625,2.4262,2.3364,2.2642,2.1714,2.1055,2.0345,1.9368,1.9788,1.9991,1.9083,2.0065,2.0827,5.0189,0.0,0.0,0.0,0.0,4.8856,5.1946,5.6629,5.602,5.506,5.3797,5.1976,0.0,0.0,0.0,0.0,0.0,0.0,5.3603,5.7482,6.0851,6.3645,6.5866,6.5573,6.5036,6.429,6.223,5.9863,5.7178,5.45,4.6478,3.3628,0.0,0.0,0.0,0.0,5.0165,5.4744,5.9541,6.3377,6.6281,6.6354,6.6208,6.589,6.4255,6.2474,6.0619,5.8496,5.4225,4.7526,4.2529,0.0,0.0,0.0,0.0,0.0,0.0,0.0,0.0,0.0,0.0,0.0,0.0,0.0,0.0,0.0,0.0,0.0,0.0,0.0,1.8023,2.1885,2.3605,0.0,0.0,0.0,0.0,0.0,0.0,0.0,0.0,0.0,2.8523,2.9038,2.9758,0.0,0.0,2.957,2.8661,2.93,2.953,2.8292,2.9482,0.0,2.8354,2.8076,2.7972,2.7525,2.6584,2.5359,2.3835,2.4027,2.3638,2.1362,2.1543,2.143,1.9856,1.9364,1.8749,1.7645,1.7604,1.7408,1.6425,1.7566,1.8698,0.0,0.0,0.0,0.0,0.0,0.0,0.0,0.0,4.7549,4.5889,0.0,4.342,0.0,0.0,0.0,0.0,0.0,4.469,0.0,0.0,6.2276,6.5744,6.5622,6.4621,6.4231,6.4119,5.9838,5.5737,5.1266,4.2655,0.0,0.0,0.0,0.0,0.0,0.0,4.7336,5.4935,6.1056,6.5231,6.7355,6.7452,6.6964,6.589,6.284,6.0644,5.9301,5.2566,4.7501,4.4967,3.4185,0.0,0.0,0.0,0.0,0.0,0.0,0.0,0.0,0.0,0.0,0.0,0.0,0.0,0.0,0.0,0.0,0.0,0.0,0.0,0.0,2.0851,0.0,0.0,0.0,0.0,0.0,0.0,0.0,0.0,0.0,0.0,2.2578,2.4573,2.7554,3.0751,0.0,0.0,0.0,0.0,2.6146,2.4747,2.5186,2.5438,2.444,2.5016,2.5225,2.4371,0.0,0.0,2.0184,2.0952,2.0824,1.7252,1.8392,1.9094,1.7195,1.6264,1.5796,1.5377,1.491,1.4592,1.43,1.422,1.4836,0.0,0.0,0.0,0.0,0.0,0.0,0.0,0.0,0.0,3.8461,0.0,3.5472,0.0,0.0,0.0,0.0,0.0,0.0,0.0,0.0,4.8715,5.1962,5.328,5.5812,5.5128,0.0,4.9467,4.4415,0.0,0.0,0.0,0.0,0.0,0.0,0.0,0.0,4.3011,5.0479,5.8013,6.4089,6.8202,6.8461,6.7949,6.6853,6.4499,5.9375,5.1394,4.7818,4.3772,0.0,0.0,0.0,0.0,0.0,0.0,0.0,0.0,0.0,0.0,0.0,0.0,0.0,0.0,0.0,0.0,0.0,0.0,0.0,0.0,0.0,0.0,0.0,1.5883,0.0,0.0,0.0,0.0,0.0,0.0,0.0,0.0,0.0,1.8537,2.1292,2.4115,2.6171,2.6693,2.669,2.6271,0.0,0.0,0.0,0.0,0.0,0.0,0.0,2.1151,2.0346,1.8571,1.7006,1.6373,1.6919,1.6882,1.5216,0.0,0.0,1.3427,1.2724,1.2282,1.1046,1.0808,1.0425,0.933,1.027,1.1164,0.0,0.0,0.0,0.0,0.0,0.0,0.0,0.0,0.0,3.0507,2.9495,0.0,0.0,0.0,0.0,0.0,0.0,0.0,0.0,0.0,0.0,0.0,4.5465,4.7378,0.0,0.0,0.0,0.0,0.0,0.0,0.0,0.0,0.0,0.0,0.0,0.0,4.0353,4.6931,5.5822,6.2578,6.6823,6.7818,6.7463,6.569,6.4419,5.8545,4.7563,0.0,0.0,0.0,0.0,0.0,0.0,0.0,0.0,0.0,0.0,0.0,0.0,0.0,0.0,0.0,0.0,0.0,0.0,0.0,0.0,0.0,0.0,0.0,0.0,0.0,1.2902,0.0,0.0,0.0,0.0,0.0,0.0,0.0,0.0,0.0,0.0,0.0,2.0222,2.2585,2.3499,2.3962,2.4239,2.382,2.3127,0.0,0.0,0.0,0.0,0.0,0.0,0.0,0.0,0.0,0.0,0.0,0.0,0.0,0.0,1.3263,0.9931,0.9295,0.8851,0.75,0.0,0.0,0.0,0.0,0.0,0.0,0.0,0.0,0.0,0.0,0.0,0.0,0.0,0.0,0.0,0.0,0.0,0.0,2.0787,0.0,0.0,0.0,0.0,0.0,0.0,0.0,0.0,0.0,0.0,0.0,0.0,0.0,0.0,0.0,0.0,0.0,0.0,0.0,0.0,0.0,0.0,3.9544,4.477,5.4772,6.0908,6.2857,6.5434,6.5268,6.2268,6.2312,5.8006,4.8427,0.0,0.0,0.0,0.0,0.0,0.0,0.0,0.0,0.0,0.0,0.0,0.0,0.0,0.0,0.0,0.0,0.0,0.0,0.0,0.0,0.0,0.0,0.0,0.0,0.0,0.0,1.2116,1.3176,1.3428,0.0,0.0,0.0,0.0,0.0,0.0,0.0,0.0,0.0,0.0,2.0939,2.1406,2.2095,2.0805,1.9795,1.9751,1.9921,1.9939,1.9541,2.0139,1.9577,0.0,0.0,0.0,0.0,0.0,0.0,0.0,0.0,0.0,0.0,0.0,0.0,0.0,0.0,0.0,0.0,0.0,0.0,0.0,0.0,0.0,0.0,0.0,0.0,0.0,0.0,0.0,0.0,0.0,0.0,0.0,0.0,0.0,0.0,0.0,0.0,0.0,0.0,0.0,0.0,0.0,0.0,0.0,0.0,0.0,0.0,0.0,0.0,0.0,0.0,0.0,0.0,0.0,0.0,3.7236,4.4108,5.2924,5.9231,6.2705,6.3552,6.3325,6.2021,5.9921,5.5294,0.0,0.0,0.0,0.0,0.0,0.0,0.0,0.0,0.0,0.0,0.0,0.0,0.0,0.0,0.0,0.0,0.0,0.0,0.0,0.0,0.0,0.0,0.0,0.0,0.0,0.0,0.0,0.0,1.4123,1.3887,1.194,0.0,0.0,0.0,0.0,0.0,0.0,0.0,0.0,0.0,0.0,1.8478,1.8926,1.9326,1.9607,1.9658,1.9704,1.9635,1.9122,1.891,1.8175,1.639,0.0,0.0,0.0,0.0,0.0,0.0,0.0,0.0,0.0,0.0,0.0,0.0,0.0,0.0,0.0,0.0,0.0,0.0,0.0,0.0,0.0,0.0,0.0,0.0,0.0,0.0,0.0,0.0,0.0,0.0,0.0,0.0,0.0,0.0,0.0,0.0,0.0,0.0,0.0,0.0,0.0,0.0,0.0,0.0,0.0,0.0,0.0,0.0,0.0,0.0,0.0,0.0,0.0,3.5737,4.2417,5.0644,5.6471,5.9613,6.0795,6.0459,5.8753,5.7699,5.2638,0.0,0.0,0.0,0.0,0.0,0.0,0.0,0.0,0.0,0.0,0.0,0.0,0.0,0.0,0.0,0.0,0.0,0.0,0.0,0.0,0.0,0.0,0.0,0.0,0.0,0.0,0.0,0.0,1.2541,1.2698,1.1548,0.0,0.0,0.0,0.0,0.0,0.0,0.0,0.0,0.0,0.0,1.6154,1.659,1.7981,0.0,0.0,1.8878,1.8566,1.7523,1.8198,1.7775,1.4469,1.3138,0.0,0.0,0.0,0.0,0.0,0.0,0.0,0.0,0.0,0.0,0.0,0.0,0.0,0.0,0.0,0.0,0.0,0.0,0.0,0.0,0.0,0.0,0.0,0.0,0.0,0.0,0.0,0.0,0.0,0.0,0.0,0.0,0.0,0.0,0.0,0.0,0.0,0.0,0.0,0.0,0.0,0.0,0.0,0.0,0.0,0.0,0.0,0.0,0.0,0.0,0.0,0.0,0.0,4.0034,4.8159,5.3228,5.4945,5.7349,5.6925,5.3434,5.5484,4.9812,0.0,0.0,0.0,0.0,0.0,0.0,0.0,0.0,0.0,0.0,0.0,0.0,0.0,0.0,0.0,0.0,0.0,0.0,0.0,0.0,0.0,0.0,0.0,0.0,0.0,0.0,0.0,0.0,0.0,0.0,0.0,0.0,0.0,0.0,0.0,0.0,0.0,0.0,0.0,0.0,0.0,1.4268,1.518,1.6583,1.7514,0.0,0.0,1.6944,1.5093,1.7783,1.7942,1.132,0.0,0.0,0.0,0.0,0.0,0.0,0.0,0.0,0.0,0.0,0.0,0.0,0.0,0.0,0.0,0.0,0.0,0.0,0.0,0.0,0.0,0.0,0.0,0.0,0.0,0.0,0.0,0.0,0.0,0.0,0.0,0.0,0.0,0.0,0.0,0.0,0.0,0.0,0.0,0.0,0.0,0.0,0.0,0.0,0.0,0.0,0.0,0.0,0.0,0.0,0.0,0.0,0.0,0.0,3.9067,4.7324,5.2412,5.4127,5.5373,5.5126,5.327,5.2453,0.0,0.0,0.0,0.0,0.0,0.0,0.0,0.0,0.0,0.0,0.0,0.0,0.0,0.0,0.0,0.0,0.0,0.0,0.0,0.0,0.0,0.0,0.0,0.0,0.0,0.0,0.0,0.7642,0.0,0.0,0.0,0.0,0.0,0.0,0.0,0.0,0.0,0.0,0.0,0.0,0.0,0.0,1.2317,1.4496,1.4535,1.491,0.0,0.0,1.4129,1.3479,1.4653,1.4701,0.0,0.0,0.0,0.0,0.0,0.0,0.0,0.0,0.0,0.0,0.0,0.0,0.0,0.0,0.0,0.0,0.0,0.0,0.0,0.0,0.0,0.0,0.0,0.0,0.0,0.0,0.0,0.0,0.0,0.0,0.0,0.0,0.0,0.0,0.0,0.0,0.0,0.0,0.0,0.0,0.0,0.0,0.0,0.0,0.0,0.0,0.0,0.0,0.0,0.0,0.0,0.0,0.0,0.0,3.2271,3.8687,4.5559,5.0627,5.3766,5.4576,5.3984,5.1898,5.0894,4.5039,0.0,0.0,0.0,0.0,0.0,0.0,0.0,0.0,0.0,0.0,0.0,0.0,0.0,0.0,0.0,0.0,0.0,0.0,0.0,0.0,0.0,0.0,0.0,0.0,0.0,0.0,0.0,0.0,0.0,0.0,0.0,0.0,0.0,0.0,0.0,0.0,0.0,0.0,0.0,0.0,0.0,0.0,1.2586,1.2814,0.0,0.0,0.0,1.2331,1.1222,0.0,0.0,0.0,0.0,0.0,0.0,0.0,0.0,0.0,0.0,0.0,0.0,0.0,0.0,0.0,0.0,0.0,0.0,0.0,0.0,0.0,0.0,0.0,0.0,0.0,0.0,0.0,0.0,0.0,0.0,0.0,0.0,0.0,0.0,0.0,0.0,0.0,0.0,0.0,0.0,0.0,0.0,0.0,0.0,0.0,0.0,0.0,0.0,0.0,0.0,0.0,0.0,0.0,0.0,0.0,0.0,0.0,3.8052,4.3684,4.8807,5.3266,5.4488,5.3323,5.0039,4.9937,4.4157,0.0,0.0,0.0,0.0,0.0,0.0,0.0,0.0,0.0,0.0,0.0,0.0,0.0,0.0,0.0,0.0,0.0,0.0,0.0,0.0,0.0,0.0,0.0,0.0,0.0,0.0,0.0,0.0,0.0,0.0,0.0,0.0,0.0,0.0,0.0,0.0,0.0,0.0,0.0,0.0,0.0,1.0889,1.0451,1.1244,1.1428,0.0,0.0,1.0687,0.8797,1.0957,0.0,0.0,0.0,0.0,0.0,0.0,0.0,0.0,0.0,0.0,0.0,0.0,0.0,0.0,0.0,0.0,0.0,0.0,0.0,0.0,0.0,0.0,0.0,0.0,0.0,0.0,0.0,0.0,0.0,0.0,0.0,0.0,0.0,0.0,0.0,0.0,0.0,0.0,0.0,0.0,0.0,0.0,0.0,0.0,0.0,0.0,0.0,0.0,0.0,0.0,0.0,0.0,0.0,0.0,0.0,0.0,3.5741,4.3481,4.89,5.1747,5.3247,5.2753,5.0001,4.8064,4.2484,0.0,0.0,0.0,0.0,0.0,0.0,0.0,0.0,0.0,0.0,0.0,0.0,0.0,0.0,0.0,0.0,0.0,0.0,0.0,0.0,0.0,0.0,0.0,0.0,0.0,0.0,0.0,0.0,0.0,0.0,0.0,0.0,0.0,0.0,0.0,0.0,0.0,0.0,0.0,0.0,0.0,0.8438,1.0769,0.9352,0.0,0.0,0.0,0.0,0.7067,0.7355,0.0,0.0,0.0,0.0,0.0,0.0,0.0,0.0,0.0,0.0,0.0,0.0,0.0,0.0,0.0,0.0,0.0,0.0,0.0,0.0,0.0,0.0,0.0,0.0,0.0,0.0,0.0,0.0,0.0,0.0,0.0,0.0,0.0,0.0,0.0,0.0,0.0,0.0,0.0,0.0,0.0,0.0,0.0,0.0,0.0,0.0,0.0,0.0,0.0,0.0,0.0,0.0,0.0,0.0,0.0,0.0,3.4213,3.9246,4.427,4.9317,5.0451,5.0612,4.9944,4.7571,4.1933,0.0,0.0,0.0,0.0,0.0,0.0,0.0,0.0,0.0,0.0,0.0,0.0,0.0,0.0,0.0,0.0,0.0,0.0,0.0,0.0,0.0,0.0,0.0,0.0,0.0,0.0,0.0,0.0,0.0,0.0,0.0,0.0,0.0,0.0,0.0,0.0,0.0,0.0,0.0,0.0,0.5895,0.7188,0.9128,0.0,0.0,0.0,0.0,0.0,0.0,0.5467,0.4903,0.0,0.0,0.0,0.0,0.0,0.0,0.0,0.0,0.0,0.0,0.0,0.0,0.0,0.0,0.0,0.0,0.0,0.0,0.0,0.0,0.0,0.0,0.0,0.0,0.0,0.0,0.0,0.0,0.0,0.0,0.0,0.0,0.0,0.0,0.0,0.0,0.0,0.0,0.0,0.0,0.0,0.0,0.0,0.0,0.0,0.0,0.0,0.0,0.0,0.0,0.0,0.0,0.0,0.0,0.0,3.279,3.4497,3.9101,4.6709,4.6907,4.743,4.8503,4.6433,4.0942,3.2034,0.0,0.0,0.0,0.0,0.0,0.0,0.0,0.0,0.0,0.0,0.0,0.0,0.0,0.0,0.0,0.0,0.0,0.0,0.0,0.0,0.0,0.0,0.0,0.0,0.0,0.0,0.0,0.0,0.0,0.0,0.0,0.0,0.0,0.0,0.0,0.0,0.0,0.0,0.0,0.5278,0.6237,0.0,0.0,0.0,0.0,0.0,0.0,0.0,0.0,0.367,0.0,0.0,0.0,0.0,0.0,0.0,0.0,0.0,0.0,0.0,0.0,0.0,0.0,0.0,0.0,0.0,0.0,0.0,0.0,0.0,0.0,0.0,0.0,0.0,0.0,0.0,0.0,0.0,0.0,0.0,0.0,0.0,0.0,0.0,0.0,0.0,0.0,0.0,0.0,0.0,0.0,0.0,0.0,0.0,0.0,0.0,0.0,0.0,0.0,0.0,0.0,0.0,0.0,0.0,0.0,0.0,3.3125,3.7882,4.3816,4.4055,4.374,4.3362,4.182,3.6942,2.855,0.0,0.0,0.0,0.0,0.0,0.0,0.0,0.0,0.0,0.0,0.0,0.0,0.0,0.0,0.0,0.0,0.0,0.0,0.0,0.0,0.0,0.0,0.0,0.0,0.0,0.0,0.0,0.0,0.0,0.0,0.0,0.0,0.0,0.0,0.0,0.0,0.0,0.0,0.1611,0.3226,0.0,0.0,0.0,0.0,0.0,0.0,0.0,0.0,0.3034,0.0,0.0,0.0,0.0,0.0,0.0,0.0,0.0,0.0,0.0,0.0,0.0,0.0,0.0,0.0,0.0,0.0,0.0,0.0,0.0,0.0,0.0,0.0,0.0,0.0,0.0,0.0,0.0,0.0,0.0,0.0,0.0,0.0,0.0,0.0,0.0,0.0,0.0,0.0,0.0,0.0,0.0,0.0,0.0,0.0,0.0,0.0,0.0,0.0,0.0,0.0,0.0,0.0,0.0,0.0,0.0,0.0,0.0,3.4386,4.0548,4.0644,4.106,4.1891,3.7417,3.1856,0.0,0.0,0.0,0.0,0.0,0.0,0.0,0.0,0.0,0.0,0.0,0.0,0.0,0.0,0.0,0.0,0.0,0.0,0.0,0.0,0.0,0.0,0.0,0.0,0.0,0.0,0.0,0.0,0.0,0.0,0.0,0.0,0.0,0.0,0.0,0.0,0.0,0.0,0.0,0.0,0.0,0.0,0.0,0.0,0.0,0.0,0.0,0.0,0.0,0.0,0.0,0.0,0.0,0.0,0.0,0.0,0.0,0.0,0.0,0.0,0.0,0.0,0.0,0.0,0.0,0.0,0.0,0.0,0.0,0.0,0.0,0.0,0.0,0.0,0.0,0.0,0.0,0.0,0.0,0.0,0.0,0.0,0.0,0.0,0.0,0.0,0.0,0.0,0.0,0.0,0.0,0.0,0.0,0.0,0.0,0.0,0.0,0.0,0.0,0.0,0.0,0.0,0.0,0.0,0.0,0.0,0.0,0.0,3.075,3.7303,3.732,3.8222,4.0072,3.3631,2.7787,0.0,0.0,0.0,0.0,0.0,0.0,0.0,0.0,0.0,0.0,0.0,0.0,0.0,0.0,0.0,0.0,0.0,0.0,0.0,0.0,0.0,0.0,0.0,0.0,0.0,0.0,0.0,0.0,0.0,0.0,0.0,0.0,0.0,0.0,0.0,0.0,0.0,0.0,0.0,0.0,0.0,0.0,0.0,0.0,0.0,0.0,0.0,0.0,0.1621,0.0,0.0,0.0,0.0,0.0,0.0,0.0,0.0,0.0,0.0,0.0,0.0,0.0,0.0,0.0,0.0,0.0,0.0,0.0,0.0,0.0,0.0,0.0,0.0,0.0,0.0,0.0,0.0,0.0,0.0,0.0,0.0,0.0,0.0,0.0,0.0,0.0,0.0,0.0,0.0,0.0,0.0,0.0,0.0,0.0,0.0,0.0,0.0,0.0,0.0,0.0,0.0,0.0,0.0,0.0,0.0,0.0,0.0,0.0,2.824,3.4359,3.4537,3.4275,3.3483,3.0959,2.6912,0.0,0.0,0.0,0.0,0.0,0.0,0.0,0.0,0.0,0.0,0.0,0.0,0.0,0.0,0.0,0.0,0.0,0.0,0.0,0.0,0.0,0.0,0.0,0.0,0.0,0.0,0.0,0.0,0.0,0.0,0.0,0.0,0.0,0.0,0.0,0.0,0.0,0.0,0.0,0.0,0.0,0.0,0.0,0.0,0.0,0.0,0.0,0.0,0.0,0.0,0.0,0.0,0.0,0.0,0.0,0.0,0.0,0.0,0.0,0.0,0.0,0.0,0.0,0.0,0.0,0.0,0.0,0.0,0.0,0.0,0.0,0.0,0.0,0.0,0.0,0.0,0.0,0.0,0.0,0.0,0.0,0.0,0.0,0.0,0.0,0.0,0.0,0.0,0.0,0.0,0.0,0.0,0.0,0.0,0.0,0.0,0.0,0.0,0.0,0.0,0.0,0.0,0.0,0.0,0.0,0.0,0.0,0.0,2.6701,3.1552,3.3284,3.2445,2.8964,2.6905,2.3719,0.0,0.0,0.0,0.0,0.0,0.0,0.0,0.0,0.0,0.0,0.0,0.0,0.0,0.0,0.0,0.0,0.0,0.0,0.0,0.0,0.0,0.0,0.0,0.0,0.0,0.0,0.0,0.0,0.0,0.0,0.0,0.0,0.0,0.0,0.0,0.0,0.0,0.0,0.0,0.0,0.0,0.0,0.0,0.0,0.0,0.0,0.0,0.0,0.0,0.0,0.0,0.0,0.0,0.0,0.0,0.0,0.0,0.0,0.0,0.0,0.0,0.0,0.0,0.0,0.0,0.0,0.0,0.0,0.0,0.0,0.0,0.0,0.0,0.0,0.0,0.0,0.0,0.0,0.0,0.0,0.0,0.0,0.0,0.0,0.0,0.0,0.0,0.0,0.0,0.0,0.0,0.0,0.0,0.0,0.0,0.0,0.0,0.0,0.0,0.0,0.0,0.0,0.0,0.0,0.0,0.0,0.0,0.0,0.0,2.8149,3.0568,2.9816,2.5444,2.3015,2.0278,0.0,0.0,0.0,0.0,0.0,0.0,0.0,0.0,0.0,0.0,0.0,0.0,0.0,0.0,0.0,0.0,0.0,0.0,0.0,0.0,0.0,0.0,0.0,0.0,0.0,0.0,0.0,0.0,0.0,0.0,0.0,0.0,0.0,0.0,0.0,0.0,0.0,0.0,0.0,0.0,0.0,0.0,0.0,0.0,0.0,0.0,0.0,0.0,0.0,0.0,0.0,0.0,0.0,0.0,0.0,0.0,0.0,0.0,0.0,0.0,0.0,0.0,0.0,0.0,0.0,0.0,0.0,0.0,0.0,0.0,0.0,0.0,0.0,0.0,0.0,0.0,0.0,0.0,0.0,0.0,0.0,0.0,0.0,0.0,0.0,0.0,0.0,0.0,0.0,0.0,0.0,0.0,0.0,0.0,0.0,0.0,0.0,0.0,0.0,0.0,0.0,0.0,0.0,0.0,0.0,0.0,0.0,0.0,0.0,2.3658,2.5066,2.4837,2.2885,1.9977,1.6899,0.0,0.0,0.0,0.0,0.0,0.0,0.0,0.0,0.0,0.0,0.0,0.0,0.0,0.0,0.0,0.0,0.0,0.0,0.0,0.0,0.0,0.0,0.0,0.0,0.0,0.0,0.0,0.0,0.0,0.0,0.0,0.0,0.0,0.0,0.0,0.0,0.0,0.0,0.0,0.0,0.0,0.0,0.0,0.0,0.0,0.0,0.0,0.0,0.0,0.0,0.0,0.0,0.0,0.0,0.0,0.0,0.0,0.0,0.0,0.0,0.0,0.0,0.0,0.0,0.0,0.0,0.0,0.0,0.0,0.0,0.0,0.0,0.0,0.0,0.0,0.0,0.0,0.0,0.0,0.0,0.0,0.0,0.0,0.0,0.0,0.0,0.0,0.0,0.0,0.0,0.0,0.0,0.0,0.0,0.0,0.0,0.0,0.0,0.0,0.0,0.0,0.0,0.0,0.0,0.0,0.0,0.0,0.0,0.0,1.6448,1.9133,2.0033,1.8759,1.689,1.4978,1.306,0.0,0.0,0.0,0.0,0.0,0.0,0.0,0.0,0.0,0.0,0.0,0.0,0.0,0.0,0.0,0.0,0.0,0.0,0.0,0.0,0.0,0.0,0.0,0.0,0.0,0.0,0.0,0.0,0.0,0.0,0.0,0.0,0.0,0.0,0.0,0.0,0.0,0.0,0.0,0.0,0.0,0.0,0.0,0.0,0.0,0.0,0.0,0.0,0.0,0.0,0.0,0.0,0.0,0.0,0.0,0.0,0.0,0.0,0.0,0.0,0.0,0.0,0.0,0.0,0.0,0.0,0.0,0.0,0.0,0.0,0.0,0.0,0.0,0.0,0.0,0.0,0.0,0.0,0.0,0.0,0.0,0.0,0.0,0.0,0.0,0.0,0.0,0.0,0.0,0.0,0.0,0.0,0.0,0.0,0.0,0.0,0.0,0.0,0.0,0.0,0.0,0.0,0.0,0.0,0.0,0.0,0.0,0.0,1.2179,1.5035,1.6149,1.5208,1.3944,1.2666,0.0,0.0,0.0,0.0,0.0,0.0,0.0,0.0,0.0,0.0,0.0,0.0,0.0,0.0,0.0,0.0,0.0,0.0,0.0,0.0,0.0,0.0,0.0,0.0,0.0,0.0,0.0,0.0,0.0,0.0,0.0,0.0,0.0,0.0,0.0,0.0,0.0,0.0,0.0,0.0,0.0,0.0,0.0,0.0,0.0,0.0,0.0,0.0,0.0,0.0,0.0,0.0,0.0,0.0,0.0,0.0,0.0,0.0,0.0,0.0,0.0,0.0,0.0,0.0,0.0,0.0,0.0,0.0,0.0,0.0,0.0,0.0,0.0,0.0,0.0,0.0,0.0,0.0,0.0,0.0,0.0,0.0,0.0,0.0,0.0,0.0,0.0,0.0,0.0,0.0,0.0,0.0,0.0,0.0,0.0,0.0,0.0,0.0,0.0,0.0,0.0,0.0,0.0,0.0,0.0,0.0,0.0,0.0,0.9144,1.1861,1.3156,1.3476,1.2694,1.1235,0.981,0.0,0.0,0.0,0.0,0.0,0.0,0.0,0.0,0.0,0.0,0.0,0.0,0.0,0.0,0.0,0.0,0.0,0.0,0.0,0.0,0.0,0.0,0.0,0.0,0.0,0.0,0.0,0.0,0.0,0.0,0.0,0.0,0.0,0.0,0.0,0.0,0.0,0.0,0.0,0.0,0.0,0.0,0.0,0.0,0.0,0.0,0.0,0.0,0.0,0.0,0.0,0.0,0.0,0.0,0.0,0.0,0.0,0.0,0.0,0.0,0.0,0.0,0.0,0.0,0.0,0.0,0.0,0.0,0.0,0.0,0.0,0.0,0.0,0.0,0.0,0.0,0.0,0.0,0.0,0.0,0.0,0.0,0.0,0.0,0.0,0.0,0.0,0.0,0.0,0.0,0.0,0.0,0.0,0.0,0.0,0.0,0.0,0.0,0.0,0.0,0.0,0.0,0.0,0.0,0.0,0.0,0.0,0.0,0.0,0.8595,0.0,1.0427,0.0,0.9628,0.8636,0.0,0.0,0.0,0.0,0.0,0.0,0.0,0.0,0.0,0.0,0.0,0.0,0.0,0.0,0.0,0.0,0.0,0.0,0.0,0.0,0.0,0.0,0.0,0.0,0.0,0.0,0.0,0.0,0.0,0.0,0.0,0.0,0.0,0.0,0.0,0.0,0.0,0.0,0.0,0.0,0.0,0.0,0.0,0.0,0.0,0.0,0.0,0.0,0.0,0.0,0.0,0.0,0.0,0.0,0.0,0.0,0.0,0.0,0.0,0.0,0.0,0.0,0.0,0.0,0.0,0.0,0.0,0.0,0.0,0.0,0.0,0.0,0.0,0.0,0.0,0.0,0.0,0.0,0.0,0.0,0.0,0.0,0.0,0.0,0.0,0.0,0.0,0.0,0.0,0.0,0.0,0.0,0.0,0.0,0.0,0.0,0.0,0.0,0.0,0.0,0.0,0.0,0.0,0.0,0.0,0.0,0.0,0.0,0.0,0.6988,0.7701,0.8809,1.0329,0.897,0.8199,0.0,0.0,0.0,0.0,0.0,0.0,0.0,0.0,0.0,0.0,0.0,0.0,0.0,0.0,0.0,0.0,0.0,0.0,0.0,0.0,0.0,0.0,0.0,0.0,0.0,0.0,0.0,0.0,0.0,0.0,0.0,0.0,0.0,0.0,0.0,0.0,0.0,0.0,0.0,0.0,0.0,0.0,0.0,0.0,0.0,0.0,0.0,0.0,0.0,0.0,0.0,0.0,0.0,0.0,0.0,0.0,0.0,0.0,0.0,0.0,0.0,0.0,0.0,0.0,0.0,0.0,0.0,0.0,0.0,0.0,0.0,0.0,0.0,0.0,0.0,0.0,0.0,0.0,0.0,0.0,0.0,0.0,0.0,0.0,0.0,0.0,0.0,0.0,0.0,0.0,0.0,0.0,0.0,0.0,0.0,0.0,0.0,0.0,0.0,0.0,0.0,0.0,0.0,0.0,0.0,0.0,0.0,0.0,0.0,0.0,0.7659,0.8458,0.9177,0.8863,0.833,0.0,0.0,0.0,0.0,0.0,0.0,0.0,0.0,0.0,0.0,0.0,0.0,0.0,0.0,0.0,0.0,0.0,0.0,0.0,0.0,0.0,0.0,0.0,0.0,0.0,0.0,0.0,0.0,0.0,0.0,0.0,0.0,0.0,0.0,0.0,0.0,0.0,0.0,0.0,0.0,0.0,0.0,0.0,0.0,0.0,0.0,0.0,0.0,0.0,0.0,0.0,0.0,0.0,0.0,0.0,0.0,0.0,0.0,0.0,0.0,0.0,0.0,0.0,0.0,0.0,0.0,0.0,0.0,0.0,0.0,0.0,0.0,0.0,0.0,0.0,0.0,0.0,0.0,0.0,0.0,0.0,0.0,0.0,0.0,0.0,0.0,0.0,0.0,0.0,0.0,0.0,0.0,0.0,0.0,0.0,0.0,0.0,0.0,0.0,0.0,0.0,0.0,0.0,0.0,0.0,0.0,0.0,0.0,0.0,0.0,0.6521,0.0,0.7364,0.7259,0.7202,0.7182,0.0,0.0,0.0,0.0,0.0,0.0,0.0,0.0,0.0,0.0,0.0,0.0,0.0,0.0,0.0,0.0,0.0,0.0,0.0,0.0,0.0,0.0,0.0,0.0,0.0,0.0,0.0,0.0,0.0,0.0,0.0,0.0,0.0,0.0,0.0,0.0,0.0,0.0,0.0,0.0,0.0,0.0,0.0,0.0,0.0,0.0,0.0,0.0,0.0,0.0,0.0,0.0,0.0,0.0,0.0,0.0,0.0,0.0,0.0,0.0,0.0,0.0,0.0,0.0,0.0,0.0,0.0,0.0,0.0,0.0,0.0,0.0,0.0,0.0,0.0,0.0,0.0,0.0,0.0,0.0,0.0,0.0,0.0,0.0,0.0,0.0,0.0,0.0,0.0,0.0,0.0,0.0,0.0,0.0,0.0,0.0,0.0,0.0,0.0,0.0,0.0,0.0,0.0,0.0,0.0,0.0,0.0,0.0,0.0,0.0,0.0,0.5829,0.5814,0.6007,0.0,0.0,0.0,0.0,0.0,0.0,0.0,0.0,0.0,0.0,0.0,0.0,0.0,0.0,0.0,0.0,0.0,0.0,0.0,0.0,0.0,0.0,0.0,0.0,0.0,0.0,0.0,0.0,0.0,0.0,0.0,0.0,0.0,0.0,0.0,0.0,0.0,0.0,0.0,0.0,0.0,0.0,0.0,0.0,0.0,0.0,0.0,0.0,0.0,0.0,0.0,0.0,0.0,0.0,0.0,0.0,0.0,0.0,0.0,0.0,0.0,0.0,0.0,0.0,0.0,0.0,0.0,0.0,0.0,0.0,0.0,0.0,0.0,0.0,0.0,0.0,0.0,0.0,0.0,0.0,0.0,0.0,0.0,0.0,0.0,0.0,0.0,0.0,0.0,0.0,0.0,0.0,0.0,0.0,0.0,0.0,0.0,0.0,0.0,0.0,0.0,0.0,0.0,0.0,0.0,0.0,0.0,0.0,0.0,0.0,0.0,0.3741,0.4455,0.4564,0.0,0.5247,0.0,0.0,0.0,0.0,0.0,0.0,0.0,0.0,0.0,0.0,0.0,0.0,0.0,0.0,0.0,0.0,0.0,0.0,0.0,0.0,0.0,0.0,0.0,0.0,0.0,0.0,0.0,0.0,0.0,0.0,0.0,0.0,0.0,0.0,0.0,0.0,0.0,0.0,0.0,0.0,0.0,0.0,0.0,0.0,0.0,0.0,0.0,0.0,0.0,0.0,0.0,0.0,0.0,0.0,0.0,0.0,0.0,0.0,0.0,0.0,0.0,0.0,0.0,0.0,0.0,0.0,0.0,0.0,0.0,0.0,0.0,0.0,0.0,0.0,0.0,0.0,0.0,0.0,0.0,0.0,0.0,0.0,0.0,0.0,0.0,0.0,0.0,0.0,0.0,0.0,0.0,0.0,0.0,0.0,0.0,0.0,0.0,0.0,0.0,0.0,0.0,0.0,0.0,0.0,0.0,0.0,0.0,0.0,0.0,0.0,0.0,0.0,0.3672,0.4054,0.3945,0.0,0.0,0.0,0.0,0.0,0.0,0.0,0.0,0.0,0.0,0.0,0.0,0.0,0.0,0.0,0.0,0.0,0.0,0.0,0.0,0.0,0.0,0.0,0.0,0.0,0.0,0.0,0.0,0.0,0.0,0.0,0.0,0.0,0.0,0.0,0.0,0.0,0.0,0.0,0.0,0.0,0.0,0.0,0.0,0.0,0.0,0.0,0.0,0.0,0.0,0.0,0.0,0.0,0.0,0.0,0.0,0.0,0.0,0.0,0.0,0.0,0.0,0.0,0.0,0.0,0.0,0.0,0.0,0.0,0.0,0.0,0.0,0.0,0.0,0.0,0.0,0.0,0.0,0.0,0.0,0.0,0.0,0.0,0.0,0.0,0.0,0.0,0.0,0.0,0.0,0.0,0.0,0.0,0.0,0.0,0.0,0.0,0.0,0.0,0.0,0.0,0.0,0.0,0.0,0.0,0.0,0.0,0.0,0.0,0.0,0.1317,0.172,0.2197,0.2468,0.2427,0.0,0.0,0.0,0.0,0.0,0.0,0.0,0.0,0.0,0.0,0.0,0.0,0.0,0.0,0.0,0.0,0.0,0.0,0.0,0.0,0.0,0.0,0.0,0.0,0.0,0.0,0.0,0.0,0.0,0.0,0.0,0.0,0.0,0.0,0.0,0.0,0.0,0.0,0.0,0.0,0.0,0.0,0.0,0.0,0.0,0.0,0.0,0.0,0.0,0.0,0.0,0.0,0.0,0.0,0.0,0.0,0.0,0.0,0.0,0.0,0.0,0.0,0.0,0.0,0.0,0.0,0.0,0.0,0.0,0.0,0.0,0.0,0.0,0.0,0.0,0.0,0.0,0.0,0.0,0.0,0.0,0.0,0.0,0.0,0.0,0.0,0.0,0.0,0.0,0.0,0.0,0.0,0.0,0.0,0.0,0.0,0.0,0.0,0.0,0.0,0.0,0.0,0.0,0.0,0.0,0.0,0.0,0.0,0.0,0.0,0.0,0.0,0.0,0.0,0.1061,0.0,0.0,0.0,0.0,0.0,0.0,0.0,0.0,0.0,0.0,0.0,0.0,0.0,0.0,0.0,0.0,0.0,0.0,0.0,0.0,0.0,0.0,0.0,0.0,0.0,0.0,0.0,0.0,0.0,0.0,0.0,0.0,0.0,0.0,0.0,0.0,0.0,0.0,0.0,0.0,0.0,0.0,0.0,0.0,0.0,0.0,0.0,0.0,0.0,0.0,0.0,0.0,0.0,0.0,0.0,0.0,0.0,0.0,0.0,0.0,0.0,0.0,0.0,0.0,0.0,0.0,0.0,0.0,0.0,0.0,0.0,0.0,0.0,0.0,0.0,0.0,0.0,0.0,0.0,0.0,0.0,0.0,0.0,0.0,0.0,0.0,0.0,0.0,0.0,0.0,0.0,0.0,0.0,0.0,0.0,0.0,0.0,0.0,0.0,0.0,0.0,0.0,0.0,0.0,0.0,0.0,0.0,0.0,0.0,0.0,0.0,0.0,0.0,0.0,0.0,0.0,0.0,0.0,0.0,0.0,0.0,0.0,0.0,0.0,0.0,0.0,0.0,0.0,0.0,0.0,0.0,0.0,0.0,0.0,0.0,0.0,0.0,0.0,0.0,0.0,0.0,0.0,0.0,0.0,0.0,0.0,0.0,0.0,0.0,0.0,0.0,0.0,0.0,0.0,0.0,0.0,0.0,0.0,0.0,0.0,0.0,0.0,0.0,0.0,0.0,0.0,0.0,0.0,0.0,0.0,0.0,0.0,0.0,0.0,0.0,0.0,0.0,0.0,0.0,0.0,0.0,0.0,0.0,0.0,0.0,0.0,0.0,0.0,0.0,0.0,0.0,0.0,0.0,0.0,0.0,0.0,0.0,0.0,0.0,0.0,0.0,0.0,0.0,0.0,0.0,0.0,0.0,0.0,0.0,0.0,0.0,0.0,0.0,0.0,0.0,0.0,0.0,0.0,0.0,0.0,0.0,0.0,0.0,0.0,0.0,0.0,0.0,0.0,0.0,0.0,0.0,0.0,0.0,0.0,0.0,0.0,0.0,0.0,0.0,0.0,0.0,0.0,0.0,0.0,0.0,0.0,0.0,0.0,0.0,0.0,0.0,0.0,0.0,0.0,0.0,0.0,0.0,0.0,0.0,0.0,0.0,0.0,0.0,0.0,0.0,0.0,0.0,0.0,0.0,0.0,0.0,0.0,0.0,0.0,0.0,0.0,0.0,0.0,0.0,0.0,0.0,0.0,0.0,0.0,0.0,0.0,0.0,0.0,0.0,0.0,0.0,0.0,0.0,0.0,0.0,0.0,0.0,0.0,0.0,0.0,0.0,0.0,0.0,0.0,0.0,0.0,0.0,0.0,0.0,0.0,0.0,0.0,0.0,0.0,0.0,0.0,0.0,0.0,0.0,0.0,0.0,0.0,0.0,0.0,0.0,0.0,0.0,0.0,0.0,0.0,0.0,0.0,0.0,0.0,0.0,0.0,0.0,0.0,0.0,0.0,0.0,0.0,0.0,0.0,0.0,0.0,0.0,0.0,0.0,0.0,0.0,0.0,0.0,0.0,0.0,0.0,0.0,0.0,0.0,0.0,0.0,0.0,0.0,0.0,0.0,0.0,0.0,0.0,0.0,0.0,0.0,0.0,0.0,0.0,0.0,0.0,0.0,0.0,0.0,0.0,0.0,0.0,0.0,0.0,0.0,0.0,0.0,0.0,0.0,0.0,0.0,0.0,0.0,0.0,0.0,0.0,0.0,0.0,0.0,0.0,0.0,0.0,0.0,0.0,0.0,0.0,0.0,0.0,0.0,0.0,0.0,0.0,0.0,0.0,0.0,0.0,0.0,0.0,0.0,0.0,0.0,0.0,0.0,0.0,0.0,0.0,0.0,0.0,0.0,0.0,0.0,0.0,0.0,0.0,0.0,0.0,0.0,0.0,0.0,0.0,0.0,0.0,0.0,0.0,0.0,0.0,0.0,0.0,0.0,0.0,0.0,0.0,0.0,0.0,0.0,0.0,0.0,0.0,0.0,0.0,0.0,0.0,0.0,0.0,0.0,0.0,0.0,0.0,0.0,0.0,0.0,0.0,0.0,0.0,0.0,0.0,0.0,0.0,0.0,0.0,0.0,0.0,0.0,0.0,0.0,0.0,0.0,0.0,0.0,0.0,0.0,0.0,0.0,0.0,0.0,0.0,0.0,0.0,0.0,0.0,0.0,0.0,0.0,0.0,0.0,0.0,0.0,0.0,0.0,0.0,0.0,0.0,0.0,0.0,0.0,0.0,0.0,0.0,0.0,0.0,0.0,0.0,0.0,0.0,0.0,0.0,0.0,0.0,0.0,0.0,0.0,0.0,0.0,0.0,0.0,0.0,0.0,0.0,0.0,0.0,0.0,0.0,0.0,0.0,0.0,0.0,0.0,0.0,0.0,0.0,0.0,0.0,0.0,0.0,0.0,0.0,0.0,0.0,0.0,0.0,0.0,0.0,0.0,0.0,0.0,0.0,0.0,0.0,0.0,0.0,0.0,0.0,0.0,0.0,0.0,0.0,0.0,0.0,0.0,0.0,0.0,0.0,0.0,0.0,0.0,0.0,0.0,0.0,0.0,0.0,0.0,0.0,0.0,0.0,0.0,0.0,0.0,0.0,0.0,0.0,0.0,0.0,0.0,0.0,0.0,0.0,0.0,0.0,0.0,0.0,0.0,0.0,0.0,0.0,0.0,0.0,0.0,0.0,0.0,0.0,0.0,0.0,0.0,0.0,0.0,0.0,0.0,0.0,0.0,0.0,0.0,0.0,0.0,0.0,0.0,0.0,0.0,0.0,0.0,0.0,0.0,0.0,0.0,0.0,0.0,0.0,0.0,0.0,0.0,0.0,0.0,0.0,0.0,0.0,0.0,0.0,0.0,0.0,0.0,0.0,0.0,0.0,0.0,0.0,0.0,0.0,0.0,0.0,0.0,0.0,0.0,0.0,0.0,0.0,0.0,0.0,0.0,0.0,0.0,0.0,0.0,0.0,0.0,0.0,0.0,0.0,0.0,0.0,0.0,0.0,0.0,0.0,0.0,0.0,0.0,0.0,0.0,0.0,0.0,0.0,0.0,0.0,0.0,0.0,0.0,0.0,0.0,0.0,0.0,0.0,0.0,0.0,0.0,0.0,0.0,0.0,0.0,0.0,0.0,0.0,0.0,0.0,0.0,0.0,0.0,0.0,0.0,0.0,0.0,0.0,0.0,0.0,0.0,0.0,0.0,0.0,0.0,0.0,0.0,0.0,0.0,0.0,0.0,0.0,0.0,0.0,0.0,0.0,0.0,0.0,0.0,0.0,0.0,0.0,0.0,0.0,0.0,0.0,0.0,0.0,0.0,0.0,0.0,0.0,0.0,0.0,0.0,0.0,0.0,0.0,0.0,0.0,0.0,0.0,0.0,0.0,0.0,0.0,0.0,0.0,0.0,0.0,0.0,0.0,0.0,0.0,0.0,0.0,0.0,0.0,0.0,0.0,0.0,0.0,0.0,0.0,0.0,0.0,0.0,0.0,0.0,0.0,0.0,0.0,0.0,0.0,0.0,0.0,0.0,0.0,0.0,0.0,0.0,0.0,0.0,0.0,0.0,0.0,0.0,0.0,0.0,0.0,0.0,0.0,0.0,0.0,0.0,0.0,0.0,0.0,0.0,0.0,0.0,0.0,0.0,0.0,0.0,0.0,0.0,0.0,0.0,0.0,0.0,0.0,0.0,0.0,0.0,0.0,0.0,0.0,0.0,0.0,0.0,0.0,0.0,0.0,0.0,0.0,0.0,0.0,0.0,0.0,0.0,0.0,0.0,0.0,0.0,0.0,0.0,0.0,0.0,0.0,0.0,0.0,0.0,0.0,0.0,0.0,0.0,0.0,0.0,0.0,0.0,0.0,0.0,0.0,0.0,0.0,0.0,0.0,0.0,0.0,0.0,0.0,0.0,0.0,0.0,0.0,0.0,0.0,0.0,0.0,0.0,0.0,0.0,0.0,0.0,0.0,0.0,0.0,0.0,0.0,0.0,0.0,0.0,0.0,0.0,0.0,0.0,0.0,0.0,0.0,0.0,0.0,0.0,0.0,0.0,0.0,0.0,0.0,0.0,0.0,0.0,0.0,0.0,0.0,0.0,0.0,0.0,0.0,0.0,0.0,0.0,0.0,0.0,0.0,0.0,0.0,0.0,0.0,0.0,0.0,0.0,0.0,0.0,0.0,0.0,0.0,0.0,0.0,0.0,0.0,0.0,0.0,0.0,0.0,0.0,0.0,0.0,0.0,0.0,0.0,0.0,0.0,0.0,0.0,0.0,0.0,0.0,0.0,0.0,0.0,0.0,0.0,0.0,0.0,0.0,0.0]}]]]